[[{"header":{"parameterUnit":"m.s-1","parameterCategory":1,"la1":30.6,"la2":29.2853,"lo1":-89.7004,"lo2":-87.6739,"dy":0.0162,"dx":0.0183,"nx":112,"ny":82,"refTime":"2025-04-23T18:00:00:Z","depth":0,"parameterNumber":2,"parameterNumberName":"U-component_of_WINDS"},"data":[0.0,0.0,0.0,0.0,0.0,0.0,0.0,0.0,0.0,0.0,0.0,0.0,0.0,0.0,0.0,0.0,0.0,0.0,0.0,0.0,0.0,0.0,0.0,0.0,0.0,0.0,0.0,0.0,0.0,0.0,0.0,0.0,0.0,0.0,0.0,0.0,0.0,0.0,0.0,0.0,0.0,0.0,0.0,0.0,0.0,0.0,0.0,0.0,0.0,0.0,0.0,0.0,0.0,0.0,0.0,0.0,0.0,0.0,0.0,0.0,0.0,0.0,0.0,0.0,0.0,0.0,0.0,0.0,0.0,0.0,0.0,0.0,0.0,0.0,0.0,0.0,0.0,0.0,0.0,0.0,0.0,0.0,0.0,0.0,0.0,0.0,0.0,0.0,0.0,0.0,0.0,-3.5897,-3.9082,-4.0293,-3.8555,-3.8144,-3.6656,-3.3503,0.0,0.0,0.0,0.0,0.0,0.0,0.0,0.0,0.0,0.0,0.0,0.0,0.0,0.0,0.0,0.0,0.0,0.0,0.0,0.0,0.0,0.0,0.0,0.0,0.0,0.0,0.0,0.0,0.0,0.0,0.0,0.0,0.0,0.0,0.0,0.0,0.0,0.0,0.0,0.0,0.0,0.0,0.0,0.0,0.0,0.0,0.0,0.0,0.0,0.0,0.0,0.0,0.0,0.0,0.0,0.0,0.0,0.0,0.0,0.0,0.0,0.0,0.0,0.0,0.0,0.0,0.0,0.0,0.0,0.0,0.0,0.0,0.0,0.0,0.0,0.0,0.0,0.0,0.0,0.0,0.0,0.0,0.0,0.0,0.0,0.0,0.0,0.0,0.0,0.0,0.0,0.0,0.0,0.0,0.0,0.0,0.0,0.0,0.0,0.0,0.0,0.0,0.0,0.0,-3.2635,-3.668,-3.8906,-3.9394,-3.7656,-3.6133,-3.4744,-3.3474,0.0,0.0,0.0,0.0,0.0,0.0,0.0,0.0,0.0,0.0,0.0,0.0,0.0,0.0,0.0,0.0,0.0,0.0,0.0,0.0,0.0,0.0,0.0,0.0,0.0,0.0,0.0,0.0,0.0,0.0,0.0,0.0,0.0,0.0,0.0,0.0,0.0,0.0,0.0,0.0,0.0,0.0,0.0,0.0,0.0,0.0,0.0,0.0,0.0,0.0,0.0,0.0,0.0,0.0,0.0,0.0,0.0,0.0,0.0,0.0,0.0,0.0,0.0,0.0,0.0,0.0,0.0,0.0,0.0,0.0,0.0,0.0,0.0,0.0,0.0,0.0,0.0,0.0,0.0,0.0,0.0,0.0,0.0,0.0,0.0,0.0,0.0,0.0,0.0,0.0,0.0,0.0,0.0,0.0,0.0,0.0,0.0,0.0,0.0,0.0,0.0,0.0,0.0,-3.1519,-3.3553,-3.6933,-3.8437,-3.8672,-3.7402,-3.5703,-3.4139,-3.2776,-3.0586,0.0,0.0,0.0,0.0,0.0,0.0,0.0,0.0,0.0,0.0,0.0,0.0,0.0,0.0,0.0,0.0,0.0,0.0,0.0,0.0,0.0,0.0,0.0,0.0,0.0,0.0,0.0,0.0,0.0,0.0,0.0,0.0,0.0,0.0,0.0,0.0,0.0,0.0,0.0,0.0,0.0,0.0,0.0,0.0,0.0,0.0,0.0,0.0,0.0,0.0,0.0,0.0,0.0,0.0,0.0,0.0,0.0,0.0,0.0,0.0,0.0,0.0,0.0,0.0,0.0,0.0,0.0,0.0,0.0,0.0,0.0,0.0,0.0,0.0,0.0,0.0,0.0,0.0,0.0,0.0,0.0,0.0,0.0,0.0,0.0,0.0,0.0,0.0,0.0,0.0,0.0,0.0,0.0,0.0,0.0,0.0,0.0,0.0,0.0,0.0,0.0,0.0,-3.3334,-3.4548,-3.6756,-3.7773,-3.7851,-3.6777,-3.5098,-3.3456,-3.1904,-2.9346,0.0,0.0,0.0,0.0,0.0,0.0,0.0,0.0,0.0,0.0,0.0,0.0,0.0,0.0,0.0,0.0,0.0,0.0,0.0,0.0,0.0,0.0,0.0,0.0,0.0,0.0,0.0,0.0,0.0,0.0,0.0,0.0,0.0,0.0,0.0,0.0,0.0,0.0,0.0,0.0,0.0,0.0,0.0,0.0,0.0,0.0,0.0,0.0,0.0,0.0,0.0,0.0,0.0,0.0,0.0,0.0,0.0,0.0,0.0,0.0,0.0,0.0,0.0,0.0,0.0,0.0,0.0,0.0,0.0,0.0,0.0,0.0,0.0,0.0,0.0,0.0,0.0,0.0,0.0,0.0,0.0,0.0,0.0,0.0,0.0,0.0,0.0,0.0,0.0,0.0,0.0,0.0,0.0,0.0,0.0,0.0,0.0,0.0,0.0,0.0,0.0,0.0,-3.3134,-3.4992,-3.5994,-3.6874,-3.6718,-3.5039,-3.334,-3.1973,-3.1035,-2.847,0.0,0.0,0.0,0.0,0.0,0.0,0.0,0.0,0.0,0.0,0.0,0.0,0.0,0.0,0.0,0.0,0.0,0.0,0.0,0.0,0.0,0.0,0.0,0.0,0.0,0.0,0.0,0.0,0.0,0.0,0.0,0.0,0.0,0.0,0.0,0.0,0.0,0.0,0.0,0.0,0.0,0.0,0.0,0.0,0.0,0.0,0.0,0.0,0.0,0.0,0.0,0.0,0.0,0.0,0.0,0.0,0.0,0.0,0.0,0.0,0.0,0.0,0.0,0.0,0.0,0.0,0.0,0.0,0.0,0.0,0.0,0.0,0.0,0.0,0.0,0.0,0.0,0.0,0.0,0.0,0.0,0.0,0.0,0.0,0.0,0.0,0.0,0.0,0.0,0.0,0.0,0.0,0.0,0.0,0.0,0.0,0.0,0.0,0.0,0.0,0.0,0.0,-3.2105,-3.3787,0.0,-3.5816,-3.5407,-3.4763,-3.3123,-3.1542,-3.0175,0.0,0.0,0.0,0.0,0.0,0.0,0.0,0.0,0.0,0.0,0.0,0.0,0.0,0.0,0.0,0.0,0.0,0.0,0.0,0.0,0.0,0.0,0.0,0.0,0.0,0.0,0.0,0.0,0.0,0.0,0.0,0.0,0.0,0.0,0.0,0.0,0.0,0.0,0.0,0.0,0.0,0.0,0.0,0.0,0.0,0.0,0.0,0.0,0.0,0.0,0.0,0.0,0.0,0.0,0.0,0.0,0.0,0.0,0.0,0.0,0.0,0.0,0.0,0.0,0.0,0.0,0.0,0.0,0.0,0.0,0.0,0.0,0.0,0.0,0.0,0.0,0.0,0.0,0.0,0.0,0.0,0.0,0.0,0.0,0.0,0.0,0.0,0.0,0.0,0.0,0.0,0.0,0.0,0.0,0.0,0.0,0.0,0.0,0.0,0.0,0.0,0.0,-3.0201,-3.1458,-3.289,0.0,-3.4786,-3.4148,-3.3901,-3.2554,-3.0876,-2.8904,0.0,0.0,0.0,0.0,0.0,0.0,0.0,0.0,0.0,0.0,0.0,0.0,0.0,0.0,0.0,0.0,0.0,0.0,0.0,0.0,0.0,0.0,0.0,0.0,0.0,0.0,0.0,0.0,0.0,0.0,0.0,0.0,0.0,0.0,0.0,0.0,0.0,0.0,0.0,0.0,0.0,0.0,0.0,0.0,0.0,0.0,0.0,0.0,0.0,0.0,0.0,0.0,0.0,0.0,0.0,0.0,0.0,0.0,0.0,0.0,0.0,0.0,0.0,0.0,0.0,0.0,0.0,0.0,0.0,0.0,0.0,0.0,0.0,0.0,0.0,0.0,0.0,0.0,0.0,0.0,0.0,0.0,0.0,0.0,0.0,0.0,0.0,0.0,0.0,0.0,0.0,0.0,0.0,0.0,0.0,0.0,0.0,0.0,0.0,0.0,0.0,0.0,-3.0146,-3.1354,-3.2597,-3.4382,-3.3808,-3.2952,-3.2162,-3.1363,-2.9781,0.0,0.0,0.0,0.0,0.0,0.0,0.0,0.0,0.0,0.0,0.0,0.0,0.0,0.0,0.0,0.0,0.0,0.0,0.0,0.0,0.0,0.0,0.0,0.0,0.0,0.0,0.0,0.0,0.0,0.0,0.0,0.0,0.0,0.0,0.0,0.0,0.0,0.0,0.0,0.0,0.0,0.0,0.0,0.0,0.0,0.0,0.0,0.0,0.0,0.0,0.0,0.0,0.0,0.0,0.0,0.0,0.0,0.0,0.0,0.0,0.0,0.0,0.0,0.0,0.0,0.0,0.0,0.0,0.0,0.0,0.0,0.0,0.0,0.0,0.0,0.0,0.0,0.0,0.0,0.0,0.0,0.0,0.0,0.0,0.0,0.0,0.0,0.0,0.0,0.0,0.0,0.0,0.0,0.0,0.0,0.0,0.0,0.0,0.0,0.0,0.0,0.0,0.0,-2.9292,-3.0964,-3.2283,-3.3498,-3.2821,-3.2224,-3.1974,-3.1229,-2.9666,-2.7093,0.0,0.0,0.0,0.0,0.0,0.0,0.0,0.0,0.0,0.0,0.0,0.0,0.0,0.0,0.0,0.0,0.0,0.0,0.0,0.0,0.0,0.0,0.0,0.0,0.0,0.0,0.0,0.0,0.0,0.0,0.0,0.0,0.0,0.0,0.0,0.0,0.0,0.0,0.0,0.0,0.0,0.0,0.0,0.0,0.0,0.0,0.0,0.0,0.0,0.0,0.0,0.0,0.0,0.0,0.0,0.0,0.0,0.0,0.0,0.0,0.0,0.0,0.0,0.0,0.0,0.0,0.0,0.0,0.0,0.0,0.0,0.0,0.0,0.0,0.0,0.0,0.0,0.0,0.0,0.0,0.0,0.0,0.0,0.0,0.0,0.0,0.0,0.0,0.0,0.0,0.0,0.0,0.0,0.0,0.0,0.0,0.0,0.0,0.0,0.0,0.0,0.0,-2.8403,-3.024,-3.1599,-3.2546,-3.1852,-3.136,-3.137,-3.0947,-2.9566,-2.7016,0.0,0.0,0.0,0.0,0.0,0.0,0.0,0.0,0.0,0.0,0.0,0.0,0.0,0.0,0.0,0.0,0.0,0.0,0.0,0.0,0.0,0.0,0.0,0.0,0.0,0.0,0.0,0.0,0.0,0.0,0.0,0.0,0.0,0.0,0.0,0.0,0.0,0.0,0.0,0.0,0.0,0.0,0.0,0.0,0.0,0.0,0.0,0.0,0.0,0.0,0.0,0.0,0.0,0.0,0.0,0.0,0.0,0.0,0.0,0.0,0.0,0.0,0.0,0.0,0.0,0.0,0.0,0.0,0.0,0.0,0.0,0.0,0.0,0.0,0.0,0.0,0.0,0.0,0.0,0.0,0.0,0.0,0.0,0.0,0.0,0.0,0.0,0.0,0.0,0.0,0.0,0.0,0.0,0.0,0.0,0.0,0.0,0.0,0.0,0.0,0.0,0.0,-2.7453,-2.9308,-3.0739,-3.1574,-3.0965,-3.0524,-3.0587,-3.0598,-2.9492,-2.6942,0.0,0.0,0.0,0.0,0.0,0.0,0.0,0.0,0.0,0.0,0.0,0.0,0.0,0.0,0.0,0.0,0.0,0.0,0.0,0.0,0.0,0.0,0.0,0.0,0.0,0.0,0.0,0.0,0.0,0.0,0.0,0.0,0.0,0.0,0.0,0.0,0.0,0.0,0.0,0.0,0.0,0.0,0.0,0.0,0.0,0.0,0.0,0.0,0.0,0.0,0.0,0.0,0.0,0.0,0.0,0.0,0.0,0.0,0.0,0.0,-2.7205,0.0,0.0,0.0,0.0,0.0,0.0,0.0,0.0,0.0,0.0,0.0,0.0,0.0,0.0,0.0,0.0,0.0,0.0,0.0,0.0,0.0,0.0,0.0,0.0,0.0,0.0,0.0,0.0,0.0,0.0,0.0,0.0,0.0,0.0,0.0,0.0,0.0,0.0,0.0,0.0,0.0,-2.6544,-2.8942,-3.0473,-3.067,-3.0521,-3.0436,-3.0439,-3.0487,-2.944,-2.6884,0.0,0.0,0.0,0.0,0.0,0.0,0.0,0.0,0.0,0.0,0.0,0.0,0.0,0.0,0.0,0.0,0.0,0.0,0.0,0.0,0.0,0.0,0.0,0.0,0.0,0.0,0.0,0.0,0.0,0.0,0.0,0.0,0.0,0.0,0.0,0.0,0.0,0.0,0.0,0.0,0.0,0.0,0.0,0.0,0.0,0.0,0.0,0.0,0.0,0.0,0.0,0.0,0.0,0.0,0.0,0.0,0.0,0.0,0.0,0.0,0.0,-2.7698,0.0,0.0,0.0,0.0,0.0,0.0,0.0,0.0,0.0,0.0,0.0,0.0,0.0,0.0,0.0,0.0,0.0,0.0,0.0,0.0,0.0,0.0,0.0,0.0,0.0,0.0,0.0,0.0,0.0,0.0,0.0,0.0,0.0,0.0,0.0,0.0,0.0,0.0,0.0,0.0,-2.6332,-2.8827,-3.0404,-3.0404,-3.0404,-3.0404,-3.0404,-3.0422,-2.9703,-2.7952,-2.5928,0.0,0.0,0.0,0.0,0.0,0.0,0.0,0.0,0.0,0.0,0.0,0.0,0.0,0.0,0.0,0.0,0.0,0.0,0.0,0.0,0.0,0.0,0.0,0.0,0.0,0.0,0.0,0.0,0.0,0.0,0.0,0.0,0.0,0.0,0.0,0.0,0.0,0.0,0.0,0.0,0.0,0.0,0.0,0.0,0.0,0.0,0.0,0.0,0.0,0.0,0.0,0.0,0.0,-3.2062,-3.2135,-3.1988,-3.1988,-3.2001,-3.1911,-2.9906,-2.9095,-2.9168,0.0,0.0,0.0,0.0,0.0,0.0,0.0,0.0,0.0,0.0,0.0,0.0,0.0,0.0,0.0,0.0,0.0,0.0,0.0,0.0,0.0,0.0,0.0,0.0,0.0,-2.7817,-2.7432,0.0,0.0,0.0,0.0,0.0,0.0,0.0,0.0,0.0,0.0,0.0,0.0,-2.6586,-2.8906,-3.0386,-3.0386,-3.0386,-3.0386,-3.0386,-3.0373,-3.0013,-2.9148,-2.6892,-2.5213,0.0,0.0,0.0,0.0,0.0,0.0,0.0,0.0,0.0,0.0,0.0,0.0,0.0,0.0,0.0,0.0,0.0,0.0,0.0,0.0,0.0,0.0,0.0,0.0,0.0,0.0,0.0,0.0,0.0,0.0,0.0,0.0,-2.9697,-3.0758,0.0,0.0,0.0,0.0,0.0,0.0,0.0,0.0,0.0,0.0,0.0,0.0,0.0,0.0,-3.3295,-3.4002,-3.4002,-3.3332,-3.4717,-3.5042,-3.4349,-3.4349,-3.4392,-3.4338,-3.2667,0.0,-3.0001,-2.941,0.0,0.0,0.0,0.0,0.0,0.0,0.0,0.0,0.0,0.0,0.0,0.0,0.0,0.0,0.0,0.0,0.0,0.0,0.0,0.0,0.0,0.0,-2.8709,-2.8743,-2.8805,-2.8573,0.0,-2.6423,-2.4981,-2.24,0.0,0.0,0.0,0.0,0.0,0.0,0.0,0.0,-2.7428,-2.9212,-3.0305,-3.0305,-3.0305,-3.0305,-3.0305,-3.0311,-2.9933,-2.9071,-2.7404,-2.6048,-2.5186,-2.2692,0.0,0.0,0.0,0.0,0.0,0.0,0.0,0.0,0.0,0.0,0.0,0.0,0.0,0.0,0.0,0.0,0.0,0.0,0.0,0.0,0.0,0.0,0.0,0.0,0.0,0.0,0.0,0.0,0.0,-2.9225,-3.0024,-3.0989,-3.0974,-3.0626,0.0,0.0,0.0,0.0,0.0,0.0,0.0,0.0,0.0,-3.3719,-3.3755,-3.4142,-3.4943,-3.5289,-3.5289,-3.4962,-3.5654,-3.5818,-3.5468,-3.5468,-3.5483,-3.5476,-3.4765,-3.3556,-3.2033,-3.0931,-2.9713,-2.8533,0.0,0.0,0.0,0.0,0.0,-2.7409,-2.7809,-2.7989,0.0,0.0,0.0,0.0,0.0,0.0,0.0,0.0,0.0,0.0,0.0,0.0,0.0,-2.9005,-2.9005,-2.8895,-2.8546,-2.8028,-2.6942,0.0,-2.4476,-2.4014,-2.1561,0.0,0.0,0.0,0.0,0.0,-2.8299,-2.9538,-3.0292,-3.0292,-3.0292,-3.0292,-3.0292,-3.0305,-3.0132,-2.9749,-2.8195,-2.7105,-2.6724,-2.426,-2.2318,0.0,0.0,0.0,0.0,0.0,0.0,0.0,0.0,0.0,0.0,0.0,0.0,0.0,0.0,0.0,0.0,0.0,0.0,0.0,0.0,0.0,0.0,0.0,0.0,0.0,0.0,0.0,0.0,-2.9932,-3.0595,-3.1264,-3.1909,-3.1813,0.0,0.0,0.0,0.0,0.0,0.0,-3.2538,-3.3175,-3.4042,-3.5144,-3.5181,-3.5626,-3.6555,-3.6573,-3.6573,-3.6573,-3.6573,-3.6573,-3.6573,-3.6573,-3.6573,-3.657,-3.6152,-3.5308,-3.4112,-3.2609,-3.1035,-2.9587,-2.961,-2.8877,-2.7897,-2.8503,-2.8716,-2.8796,-2.942,-2.9482,-2.9207,-2.8613,0.0,-2.6796,-2.6201,0.0,0.0,0.0,0.0,-2.8117,-2.8117,-2.8546,-2.9005,-2.9005,-2.9005,-2.9005,-2.9005,-2.9005,-2.8445,0.0,-2.665,-2.6254,-2.3737,0.0,0.0,0.0,0.0,-2.8132,-2.9108,-2.9838,-3.0266,-3.0266,-3.0266,-3.0266,-3.0266,-3.0273,-3.0177,-2.9953,-2.8587,-2.7673,-2.745,-2.542,-2.3619,-2.2149,0.0,0.0,0.0,0.0,0.0,0.0,0.0,0.0,0.0,0.0,0.0,0.0,0.0,0.0,0.0,0.0,0.0,0.0,0.0,0.0,0.0,0.0,0.0,0.0,0.0,0.0,0.0,0.0,0.0,-3.2177,-3.3423,0.0,0.0,0.0,0.0,-3.1987,-3.2057,-3.2442,-3.3212,-3.33,-3.4199,-3.6167,-3.622,-3.6823,-3.8082,-3.8082,-3.8082,-3.8082,-3.8082,-3.8082,-3.8082,-3.8082,-3.8132,-3.8107,-3.6565,-3.59,-3.5772,-3.4223,-3.2642,-3.1186,-3.1262,-3.1231,-3.1158,-3.1213,-3.1213,-3.1231,-3.1268,-3.0779,-3.0136,-3.0099,-2.9017,-2.7732,-2.7688,-2.7688,0.0,0.0,-2.8301,-2.8932,-2.8932,-2.8968,-2.9005,-2.9005,-2.9005,-2.9005,-2.9005,-2.9005,-2.873,0.0,-2.7717,-2.7495,-2.6701,0.0,-2.6991,-2.792,-2.8345,-2.8855,-2.9742,-3.006,-3.0211,-3.0211,-3.0211,-3.0211,-3.0211,-3.0219,-2.9856,-2.9013,-2.8179,-2.7325,-2.6504,-2.5612,-2.4706,-2.3804,-2.2124,0.0,0.0,0.0,0.0,0.0,0.0,0.0,0.0,0.0,0.0,0.0,0.0,0.0,0.0,0.0,0.0,0.0,0.0,0.0,0.0,0.0,0.0,0.0,0.0,0.0,0.0,0.0,0.0,-3.4294,-3.5494,0.0,-3.4449,-3.4765,-3.4852,-3.4327,-3.4801,-3.5259,-3.5539,-3.5595,-3.5955,-3.6672,-3.6689,-3.6906,-3.7357,-3.7357,-3.7357,-3.7357,-3.7357,-3.7357,-3.7376,-3.7632,-3.7614,-3.7396,-3.7389,-3.6931,-3.6152,-3.5411,-3.3887,-3.2009,-3.207,-3.1798,-3.134,-3.134,-3.134,-3.134,-3.1289,-3.108,-3.0726,-2.9995,-2.8889,-2.7869,-2.7869,-2.7869,-2.7921,-2.8136,-2.826,-2.8456,-2.8893,-2.887,-2.8779,-2.8905,-2.8964,-2.8994,-2.894,-2.8964,-2.8913,-2.862,-2.8565,-2.8342,-2.7572,-2.7877,-2.821,-2.8183,-2.8661,-2.9205,-2.9652,-2.9769,-2.9811,-2.9811,-2.9929,-2.9945,-2.982,-2.9467,-2.9053,-2.8607,-2.7297,-2.6389,-2.609,-2.53,-2.4223,-2.283,-2.1676,-2.0047,0.0,0.0,0.0,0.0,0.0,0.0,0.0,0.0,0.0,0.0,0.0,0.0,0.0,0.0,0.0,0.0,0.0,0.0,0.0,0.0,0.0,0.0,0.0,0.0,0.0,0.0,-3.4614,-3.5859,-3.732,-3.7734,-3.6425,-3.702,-3.7162,-3.6381,-3.6613,-3.6793,-3.6793,-3.6575,-3.6519,-3.6698,-3.6698,-3.6761,-3.69,-3.69,-3.69,-3.69,-3.69,-3.69,-3.69,-3.7189,-3.7133,-3.6904,-3.697,-3.6505,-3.567,-3.4979,-3.3777,-3.2397,-3.2748,-3.256,-3.2067,-3.2067,-3.2067,-3.2031,-3.1722,-3.1422,-3.1031,-3.0007,-2.8923,-2.8034,-2.8034,-2.7964,-2.7954,-2.817,-2.8102,-2.8065,-2.8507,-2.8513,-2.8417,-2.8645,-2.8737,-2.8773,-2.8858,-2.8893,-2.8935,-2.8935,-2.897,-2.8822,-2.8301,-2.8638,-2.886,-2.8471,-2.8918,-2.9355,-2.9484,-2.9561,-2.9608,-2.9608,-2.9716,-2.9742,-2.9617,-2.8969,-2.8418,-2.799,-2.6647,-2.5791,-2.552,-2.4761,-2.3842,-2.273,-2.1569,-2.0176,-1.8585,0.0,0.0,0.0,0.0,0.0,0.0,0.0,0.0,0.0,0.0,0.0,0.0,0.0,0.0,0.0,0.0,0.0,0.0,0.0,0.0,0.0,0.0,0.0,-3.2156,-3.4199,-3.5988,-3.6789,-3.8843,-3.9605,-3.8142,-3.865,-3.8751,-3.799,-3.7246,-3.6829,-3.6795,-3.6045,-3.5805,-3.6259,-3.628,-3.6471,-3.686,-3.686,-3.686,-3.686,-3.686,-3.686,-3.686,-3.688,-3.686,-3.6773,-3.5283,-3.4634,-3.4511,-3.2967,-3.2335,-3.242,-3.325,-3.3559,-3.3559,-3.3559,-3.3559,-3.3435,-3.2638,-3.1837,-3.1018,-3.0212,-2.9179,-2.8259,-2.8259,-2.8057,-2.7869,-2.7883,-2.7883,-2.7869,-2.7897,-2.7897,-2.795,-2.8219,-2.8285,-2.8381,-2.8706,-2.8785,-2.8785,-2.8798,-2.8893,-2.8994,-2.8994,-2.9005,-2.9005,-2.9005,-2.9171,0.0,-2.9293,-2.9465,-2.9589,-2.9589,-2.9589,-2.9589,-2.9589,-2.8828,-2.7983,-2.7141,-2.6303,-2.5504,-2.4729,-2.4061,-2.3707,-2.3688,-2.1966,-2.1023,-2.0896,0.0,0.0,0.0,0.0,0.0,0.0,0.0,0.0,0.0,0.0,0.0,0.0,0.0,0.0,0.0,0.0,0.0,0.0,0.0,0.0,0.0,0.0,-3.4125,-3.3617,-3.6085,-3.8192,-3.8958,-4.0611,-4.1322,-4.0392,-4.0476,-4.007,-3.8785,-3.8007,-3.7347,-3.6829,-3.6045,-3.5667,-3.5783,-3.5783,-3.5849,-3.5963,-3.5963,-3.5963,-3.5963,-3.5963,-3.5963,-3.5985,-3.6326,-3.6284,-3.5955,-3.561,-3.529,-3.4933,-3.3703,-3.3178,-3.3143,-3.2866,-3.2732,-3.2732,-3.2732,-3.27,-3.2543,-3.1779,-3.084,-2.9843,-2.9084,-2.8064,-2.7145,-2.7145,-2.7082,-2.7083,-2.7378,-2.7321,-2.7293,-2.7768,-2.7725,-2.7604,-2.788,-2.7978,-2.8093,-2.8308,-2.8399,-2.8502,-2.8743,-2.8822,-2.8858,-2.8917,-2.8964,-2.9005,-2.9005,-2.9044,0.0,-2.9089,-2.9127,-2.9171,-2.9171,-2.9301,-2.9304,-2.9119,-2.7943,-2.7092,-2.6692,-2.5364,-2.4515,-2.433,-2.4162,-2.3764,-2.3137,-2.1554,-2.07,0.0,0.0,0.0,0.0,0.0,0.0,0.0,0.0,0.0,0.0,0.0,0.0,0.0,0.0,0.0,0.0,0.0,0.0,0.0,0.0,0.0,0.0,-3.4991,-3.6512,-3.672,-3.8397,-3.9999,-4.1083,-4.2065,-4.25,-4.2078,-4.1523,-4.0713,-3.9554,-3.8193,-3.7246,-3.6829,-3.6045,-3.56,-3.56,-3.56,-3.56,-3.56,-3.56,-3.56,-3.56,-3.56,-3.56,-3.5622,-3.5871,-3.5701,0.0,-3.4888,-3.449,-3.3911,-3.2942,-3.2553,0.0,0.0,0.0,0.0,0.0,-3.2334,-3.2177,-3.1456,-3.0552,-2.9585,-2.8852,-2.7832,-2.6907,-2.6907,-2.6808,-2.6758,-2.6971,-2.694,-2.6908,-2.7303,-2.7239,-2.7178,-2.7472,-2.7577,-2.7681,-2.794,-2.802,-2.812,-2.8299,0.0,0.0,-2.8023,-2.85,-2.8923,-2.8923,-2.8923,-2.8923,-2.8923,-2.8923,-2.8795,-2.8448,-2.8522,-2.8386,-2.7876,-2.6788,0.0,0.0,0.0,-2.3939,-2.3713,-2.3695,0.0,0.0,0.0,0.0,0.0,0.0,0.0,0.0,-2.2158,-2.2017,0.0,0.0,0.0,0.0,0.0,0.0,0.0,0.0,0.0,0.0,0.0,0.0,0.0,0.0,0.0,0.0,-3.7002,-3.8957,-4.0442,-4.0856,-4.1521,-4.2813,-4.3188,-4.3194,-4.2942,-4.1849,-4.0755,-3.9758,-3.7889,-3.6761,-3.6654,0.0,0.0,0.0,0.0,-3.56,-3.56,-3.56,-3.56,-3.56,-3.56,-3.56,-3.56,-3.56,-3.5199,-3.4455,-3.3728,-3.2983,-3.2242,-3.1495,-3.119,-3.1269,-3.1931,-3.2179,-3.2179,-3.2179,-3.2127,-3.1952,-3.1198,0.0,0.0,-2.8887,-2.7971,-2.7149,-2.7149,-2.694,-2.6691,-2.6691,-2.6691,-2.6691,-2.6691,-2.6691,-2.6775,-2.7069,-2.7149,-2.7244,-2.7582,-2.7587,-2.7531,-2.7578,-2.7546,-2.7317,-2.6678,-2.7705,-2.8579,-2.8506,-2.8512,-2.8524,-2.8524,-2.8524,-2.8251,-2.7551,0.0,0.0,-2.6457,-2.5644,-2.5178,-2.5178,-2.4452,-2.3736,-2.3143,-2.3115,-2.3106,-2.3106,-2.3106,-2.3437,-2.4103,-2.4761,-2.5139,-2.5176,-2.3263,-2.3095,0.0,0.0,0.0,0.0,0.0,0.0,0.0,0.0,0.0,0.0,0.0,0.0,0.0,0.0,0.0,-3.6409,-3.858,-4.0464,-4.1905,-4.2647,-4.2999,-4.2844,-4.3471,-4.3205,-4.1456,-4.1127,-3.9951,-3.7321,-3.6915,-3.6495,-3.579,-3.5656,0.0,-3.56,-3.56,-3.56,-3.56,-3.56,-3.56,-3.56,0.0,0.0,-3.56,-3.56,-3.5199,-3.4455,-3.3728,-3.2983,-3.2242,-3.1495,-3.119,-3.121,-3.1368,-3.1408,-3.1408,-3.1408,-3.105,-3.042,-2.9687,-2.8902,-2.81,-2.7367,-2.6977,-2.6791,-2.6791,-2.6741,0.0,-2.6691,-2.6691,-2.6691,-2.6691,-2.6691,-2.6708,-2.6775,-2.6791,-2.6891,-2.7228,-2.6838,-2.6494,-2.676,-2.63,-2.5817,-2.5689,-2.6647,-2.7235,-2.6628,-2.6738,-2.687,-2.687,-2.687,-2.6797,-2.6651,-2.6633,-2.6537,-2.6329,-2.559,-2.5125,-2.5125,-2.4431,-2.3943,-2.3808,-2.3808,-2.3789,-2.3731,-2.3731,-2.4091,-2.4806,-2.4958,-2.5346,-2.598,-2.5557,-2.5514,0.0,0.0,0.0,0.0,0.0,0.0,0.0,0.0,0.0,0.0,0.0,-3.0262,-3.1608,0.0,-3.5498,-3.7907,-3.9785,-4.1444,-4.2857,-4.3367,-4.3346,-4.275,-4.2794,-4.2323,-4.0852,-3.9821,-3.8615,-3.7073,-3.6404,-3.5856,-3.5417,-3.5498,-3.5566,-3.5566,-3.5577,-3.56,-3.56,-3.56,-3.56,-3.56,-3.56,-3.56,-3.5583,-3.5211,-3.4658,-3.3914,-3.3169,-3.2425,-3.1718,-3.1343,-3.119,-3.119,-3.119,-3.119,-3.119,-3.119,-3.0734,-2.9989,-2.9264,-2.8467,-2.7672,-2.6945,-2.6691,-2.6691,-2.6691,-2.6691,-2.6691,-2.6691,-2.6691,-2.6691,-2.6691,-2.6691,-2.6691,-2.6691,-2.6691,-2.664,-2.643,-2.6102,-2.5788,-2.5592,-2.5221,-2.4824,-2.4461,-2.4991,-2.5517,-2.5666,-2.5809,-2.5949,-2.6074,-2.6098,-2.6,-2.5732,-2.5706,-2.5514,-2.5092,-2.4682,-2.4454,-2.4454,-2.4104,-2.3896,-2.3896,-2.3896,-2.3886,-2.3847,-2.3847,-2.4226,-2.5009,-2.5407,-2.6023,-2.6808,-2.7206,-2.7188,0.0,0.0,0.0,0.0,0.0,0.0,0.0,0.0,-2.8753,-3.0086,-3.0836,-3.1788,-3.3493,-3.4998,-3.6778,-3.9232,-4.0656,-4.1929,-4.3208,-4.3251,-4.2837,-4.1988,-4.1737,-4.1289,-4.0434,-3.8605,-3.7318,-3.7034,-3.5937,-3.5291,-3.5268,-3.54,-3.5469,-3.5469,-3.5503,-3.5554,-3.5594,-3.5594,-3.5594,-3.5594,-3.56,-3.5515,-3.5341,-3.4776,-3.4015,-3.3152,-3.2412,-3.1752,-3.119,-3.119,-3.119,-3.119,-3.119,-3.119,-3.119,-3.119,-3.0632,-2.9803,-2.9213,-2.8383,-2.7486,-2.6894,-2.6691,-2.6691,-2.6691,-2.6691,-2.6691,-2.6691,-2.6691,-2.6691,-2.6691,-2.6691,-2.6691,-2.6691,-2.6691,-2.6488,-2.5761,-2.549,-2.5169,-2.4423,-2.4169,-2.3881,-2.3291,-2.3374,-2.3826,-2.4738,-2.4919,-2.5036,-2.5257,-2.5282,-2.5105,-2.4683,-2.4685,-2.4458,-2.385,-2.3806,-2.3806,-2.3806,-2.3806,-2.3806,-2.3806,-2.3806,-2.3806,-2.3806,-2.3806,-2.4194,-2.5009,-2.5805,-2.6609,-2.7423,-2.8238,-2.8256,-2.8626,-2.7021,-2.6123,-2.7844,-2.7859,-2.8259,0.0,0.0,-3.1436,-3.2781,-3.3574,-3.4294,-3.5121,-3.6863,-3.8648,-4.015,-4.0973,-4.1704,-4.2506,-4.2042,-4.116,-3.9829,-4.0724,-4.0906,-3.9574,-3.8168,-3.6745,-3.5295,-3.5258,-3.5245,-3.5128,-3.5245,-3.5314,-3.5314,-3.5337,-3.5383,-3.5514,-3.5514,-3.5514,-3.5514,-3.5571,-3.52,-3.4454,-3.4479,-3.3749,-3.2378,-3.163,-3.1275,-3.119,-3.119,-3.119,-3.119,-3.119,-3.119,-3.119,-3.119,-3.033,-2.9111,-2.9027,-2.8045,-2.681,-2.6725,-2.6691,-2.6691,-2.6691,-2.6691,-2.6691,-2.6691,-2.6691,-2.6691,-2.6691,-2.6691,-2.6691,-2.6691,-2.6691,-2.6488,-2.5761,-2.5084,-2.4406,-2.3663,-2.2987,-2.2516,-2.2446,-2.2443,-2.2586,-2.2953,-2.3192,-2.3367,-2.3404,-2.3404,-2.3381,-2.3317,-2.3519,-2.3699,-2.3785,-2.3806,-2.3806,-2.3806,-2.3806,-2.3806,-2.3806,-2.3806,-2.3806,-2.3806,-2.3806,-2.4194,-2.5009,-2.5805,-2.6609,-2.7423,-2.8238,-2.8545,-2.9941,-2.8831,-2.8203,0.0,-2.9804,-3.0342,-3.2108,-3.2602,-3.2946,-3.3873,-3.4607,-3.516,-3.5444,-3.6791,-3.8314,0.0,-4.0415,-4.1205,-4.2352,-4.1541,-4.0597,-4.0011,-3.9322,-3.851,-3.7466,-3.6472,-3.561,-3.4949,-3.4994,-3.5041,-3.4994,-3.5111,-3.5182,-3.5182,-3.5268,-3.5331,-3.5377,-3.5383,-3.5383,-3.5383,-3.5406,-3.5032,-3.428,-3.3903,-3.2988,-3.165,-3.1326,-3.119,-3.119,-3.119,-3.119,-3.119,-3.119,-3.119,-3.119,-3.119,-3.0279,-2.8993,-2.8993,-2.7994,-2.6691,-2.6691,-2.6691,-2.6691,-2.6691,-2.6691,-2.6691,-2.6691,-2.6691,-2.6691,-2.6691,-2.6691,-2.6691,-2.6691,-2.637,-2.5862,-2.5118,-2.4389,-2.3644,-2.2902,-2.2499,-2.2296,-2.2296,-2.2296,-2.2338,-2.2446,-2.2565,-2.2694,-2.285,-2.2876,-2.2922,-2.3079,-2.3206,-2.3295,-2.3399,-2.3382,-2.3382,-2.3382,-2.3535,-2.3631,-2.3631,-2.3732,-2.3806,-2.3806,-2.3806,-2.4194,-2.5009,-2.5805,-2.6609,-2.7423,-2.8238,-2.86,-3.0432,-2.9789,0.0,-3.0537,-3.1271,-3.1989,-3.2871,-3.3574,-3.4188,-3.4666,-3.516,-3.5564,-3.5744,-3.6673,-3.7882,-3.9264,-3.9834,-4.0539,-4.1763,-4.0701,-3.9702,-3.9504,-3.7897,-3.6506,-3.5777,-3.5214,-3.4899,-3.4899,-3.4899,-3.4899,-3.4899,-3.4994,-3.5041,-3.5041,-3.5152,-3.5198,-3.5245,-3.5245,-3.5245,-3.5245,-3.509,-3.4633,-3.3889,-3.2992,-3.2083,-3.119,-3.119,-3.119,-3.119,-3.119,-3.119,-3.119,-3.119,-3.1072,-3.0903,-3.0903,-2.9939,-2.8671,-2.8671,-2.7655,-2.642,-2.6623,-2.6691,-2.6691,-2.6691,-2.6691,-2.6691,-2.6691,-2.6691,-2.6691,-2.6691,-2.6691,-2.6691,-2.6691,-2.6133,-2.5406,-2.466,-2.3915,-2.3173,-2.2431,-2.2296,-2.2296,-2.2296,-2.2296,-2.2296,-2.2296,-2.2296,-2.238,-2.2552,-2.2579,-2.2699,-2.296,-2.2985,-2.3022,-2.3091,-2.3091,-2.3091,-2.3091,-2.3289,-2.3383,-2.3383,-2.3609,-2.371,-2.371,-2.3774,-2.4085,-2.4664,-2.5479,-2.6276,-2.7079,-2.7894,-2.8332,-2.9774,-2.9131,-2.9101,-3.0987,-3.1974,-3.2826,-3.4159,-3.4951,-3.5444,-3.5474,-3.5489,-3.5699,-3.6342,-3.7042,-3.7941,-3.9283,-3.9453,-3.9671,-4.037,-3.9193,-3.8013,-3.7301,-3.6506,-3.5744,0.0,-3.4916,-3.4899,-3.4899,-3.4899,-3.4899,-3.4899,-3.4899,-3.4899,-3.4899,-3.4923,-3.497,-3.5088,-3.5105,-3.5105,-3.5111,-3.4509,-3.379,-3.2907,-3.1633,-3.1106,-3.119,-3.119,-3.119,-3.119,-3.119,-3.119,-3.119,-3.119,-3.0768,-3.0123,-3.0123,-2.9159,-2.7841,-2.7841,-2.6877,-2.5761,-2.6471,-2.6691,-2.6691,-2.6691,-2.6691,-2.6691,-2.6691,-2.6691,-2.6691,-2.6691,-2.6691,-2.6691,-2.6691,-2.6133,-2.5406,-2.466,-2.3915,-2.3173,-2.2431,-2.2296,-2.2296,-2.2296,-2.2296,-2.2296,-2.2296,-2.2296,-2.231,-2.231,-2.231,-2.2405,-2.2685,-2.2712,-2.2812,-2.3084,-2.3091,-2.3091,-2.3091,-2.3103,-2.3103,-2.3103,-2.3371,-2.3515,-2.3515,-2.3689,-2.3813,-2.3842,-2.4646,-2.5461,-2.6258,-2.7061,-2.7646,-3.0253,-3.0372,-3.0778,-3.1884,-3.2318,-3.2856,-3.4173,-3.4651,-3.4848,-3.4848,-3.4848,-3.4756,-3.4547,-3.5053,-3.6098,-3.7877,-3.8135,-3.8446,-3.9537,-3.8395,-3.7201,-3.6456,-3.5727,0.0,0.0,0.0,0.0,-3.4899,-3.4899,-3.4899,-3.4899,-3.4899,-3.4899,-3.4899,-3.4899,-3.4923,-3.497,-3.497,-3.4721,-3.4223,-3.3123,-3.245,-3.214,-3.1348,-3.1015,-3.1055,-3.1151,-3.119,-3.1157,-3.0666,-3.048,-3.0429,-2.9922,-2.9602,-2.9314,-2.877,-2.7943,-2.708,-2.708,-2.6742,-2.6285,-2.6048,-2.6302,-2.6691,-2.6691,-2.6691,-2.6691,-2.6691,-2.6691,-2.6691,-2.6691,-2.6691,-2.6691,-2.6691,-2.576,-2.4948,-2.5169,-2.3883,-2.275,-2.2987,-2.2632,-2.2296,-2.2296,-2.2296,-2.2296,-2.2296,-2.2296,-2.2296,-2.2296,-2.2296,-2.2338,-2.2419,-2.2432,-2.2474,-2.2565,-2.2579,-2.2579,-2.2579,-2.2734,-2.2838,-2.2838,-2.3096,-2.3182,-2.3099,-2.3171,-2.3177,-2.3129,-2.4441,-2.52,-2.55,-2.6806,-2.7475,-3.0447,-3.0821,-3.1361,-3.2258,-3.2512,-3.2796,-3.3873,-3.4159,-3.4159,-3.4159,-3.3933,-3.3724,-3.3529,-3.3455,-3.4148,-3.6405,-3.6735,-3.7229,-3.8763,-3.7883,-3.6936,-3.6456,-3.5512,-3.4899,0.0,0.0,0.0,-3.4899,-3.4899,-3.4899,-3.4899,-3.4899,-3.4899,-3.4899,-3.4899,-3.4899,-3.4899,-3.4899,-3.4386,-3.3375,-3.2265,-3.1632,-3.1391,-3.1052,-3.0935,-3.0995,-3.1072,-3.0979,-3.0768,-3.0239,-2.9882,-2.9595,-2.9178,-2.8805,-2.8482,-2.7993,-2.7317,-2.6657,-2.6404,-2.6133,-2.5879,-2.5676,-2.593,-2.6353,-2.6623,-2.6691,-2.6691,-2.6691,-2.6691,-2.6691,-2.6691,-2.6691,-2.6691,-2.6691,-2.5761,-2.4949,-2.5152,-2.3883,-2.2767,-2.297,-2.2617,-2.2296,-2.2296,-2.2296,-2.2296,-2.2296,-2.2282,-2.2268,-2.2296,-2.2296,-2.2296,-2.2296,-2.2296,-2.2296,-2.2296,-2.2296,-2.2296,-2.2296,-2.246,-2.2555,-2.2528,-2.2769,-2.2862,-2.2721,-2.2822,-2.2848,-2.281,-2.4054,-2.4819,-2.5129,-2.6402,-2.7041,-3.0357,-3.0552,-3.0911,-3.2123,-3.2437,-3.2632,-3.3305,-3.344,-3.344,-3.3395,-3.2901,-3.2632,0.0,0.0,-3.2318,-3.4981,-3.5365,-3.6055,-3.8006,-3.761,-3.7084,0.0,0.0,0.0,0.0,0.0,0.0,-3.4899,0.0,-3.4899,-3.4899,-3.4899,-3.4899,-3.4899,-3.4899,-3.4883,-3.4833,-3.4767,-3.4021,-3.2636,-3.1896,-3.1248,-3.0692,-3.0692,-3.0794,-3.0975,-3.0882,-3.0555,-3.0072,-2.9859,-2.9364,-2.8706,-2.8818,-2.8326,-2.7597,-2.7669,-2.7248,-2.6522,-2.5795,-2.5101,-2.4677,-2.5338,-2.5575,-2.5728,-2.6471,-2.6691,-2.6691,-2.6691,-2.6691,-2.6691,-2.6691,-2.6691,-2.6691,-2.6691,-2.6133,-2.5423,-2.4711,-2.3949,-2.319,-2.2496,-2.233,-2.2296,-2.2296,-2.2296,-2.2296,-2.2296,-2.2225,-2.2228,-2.2282,-2.2296,-2.2296,-2.2296,-2.2296,-2.2296,-2.2296,-2.2296,-2.2296,-2.2296,-2.2296,-2.2254,-2.2183,-2.2426,-2.2514,-2.2381,-2.2617,-2.2759,-2.2759,-2.3536,-2.4285,-2.5073,-2.5845,-2.6411,-3.0597,-3.124,-3.1929,-3.1795,-3.175,-3.1929,-3.2617,-3.2766,-3.2617,-3.2108,-3.1869,-3.1511,0.0,0.0,0.0,-3.3664,-3.4362,0.0,-3.6646,-3.7026,0.0,-3.6413,0.0,-3.6324,-3.5777,-3.5727,0.0,0.0,-3.4899,-3.4899,-3.4899,-3.4899,-3.4899,-3.4899,-3.4899,-3.4634,-3.4087,-3.2994,-3.2243,-3.1863,-3.1118,-3.0709,-3.0568,-3.0651,-3.0733,-3.074,-3.0282,-3.0029,-2.9859,-2.8728,-2.7973,-2.7499,-2.7027,-2.6478,-2.602,-2.6403,-2.6217,-2.5709,-2.5026,-2.5017,-2.5253,-2.4897,-2.5152,-2.5728,-2.6471,-2.6691,-2.6691,-2.6691,-2.6691,-2.6691,-2.6691,-2.6691,-2.6691,-2.6691,-2.6133,-2.5542,-2.5372,-2.4306,-2.3342,-2.3156,-2.2682,-2.2282,-2.2225,-2.2228,-2.2197,-2.2087,-2.2058,-2.2104,-2.2282,-2.2271,-2.224,-2.2296,-2.2296,-2.2296,-2.2296,-2.2296,-2.2282,-2.2242,-2.2228,-2.2166,-2.2058,-2.2113,-2.2096,-2.2025,-2.2096,-2.211,-2.2053,-2.335,-2.4071,-2.4305,-2.5598,-2.625,-3.0957,-3.1481,-3.1974,-3.16,-3.1511,-3.1525,-3.1585,-3.1629,-3.145,-3.0806,-3.0419,0.0,-2.928,0.0,0.0,0.0,0.0,0.0,-3.5692,-3.641,-3.6713,0.0,-3.6612,0.0,-3.6042,-3.5711,-3.5346,0.0,-3.4899,-3.4899,-3.4899,-3.4899,-3.4899,-3.4899,-3.4899,-3.4535,-3.3829,-3.2326,-3.1598,-3.1598,-3.0853,-3.0506,-3.0489,-3.024,-3.0087,-2.9935,0.0,-2.8962,-2.8527,-2.7655,-2.6976,-2.6442,-2.5907,-2.554,-2.5349,-2.5687,-2.567,-2.5396,-2.4693,-2.473,-2.4929,-2.4074,-2.407,-2.4575,-2.5463,-2.5728,-2.5794,-2.6093,-2.6157,-2.6122,-2.6122,-2.6104,-2.6052,-2.6052,-2.572,-2.5256,-2.4629,-2.3852,-2.3123,-2.2663,-2.2228,-2.1974,-2.2092,-2.2106,-2.2092,-2.2013,-2.1969,-2.2015,-2.2147,-2.2135,-2.212,-2.2147,-2.2178,-2.2178,-2.2178,-2.2178,-2.2163,-2.2106,-2.2106,-2.2061,-2.1955,-2.1955,-2.1926,-2.1855,-2.1855,-2.184,-2.1812,-2.3272,-2.4,-2.4033,-2.5507,-2.6202,-3.1346,-3.1511,-3.1511,-3.1511,-3.1511,-3.1316,-3.0657,-3.0432,-3.0178,-2.9487,0.0,-2.8323,-2.8323,-2.8412,-2.8906,-3.0283,0.0,-3.3016,-3.4894,-3.5783,-3.6449,-3.7024,-3.661,-3.6257,-3.6158,-3.5479,-3.5015,-3.4899,-3.4899,-3.4899,-3.4899,-3.4899,-3.4849,-3.475,-3.4651,-3.4237,-3.3508,-3.2128,-3.1449,-3.1449,-3.0803,-3.0506,-3.0472,-2.9687,-2.9177,-2.8939,0.0,0.0,-2.6787,-2.6642,-2.6159,-2.5516,-2.5237,-2.5082,-2.5059,-2.5234,-2.5329,-2.5255,-2.46,-2.4293,-2.4037,-2.3227,-2.3025,-2.3275,-2.4218,-2.4553,-2.4745,-2.5324,-2.5427,-2.5387,-2.5387,-2.5294,-2.5202,-2.5202,-2.5122,-2.4705,-2.3373,-2.2941,-2.2548,-2.1613,-2.1461,-2.16,-2.1866,-2.1969,-2.1984,-2.1969,-2.1926,-2.1897,-2.1969,-2.1984,-2.1998,-2.2013,-2.2013,-2.2013,-2.2013,-2.2013,-2.1998,-2.1984,-2.1984,-2.1955,-2.1899,-2.1899,-2.1855,-2.1812,-2.1812,-2.1812,-2.1812,-2.3172,-2.3901,-2.4033,-2.5407,-2.6103,-3.1466,-3.1511,-3.1511,-3.1511,-3.1511,-3.1316,-3.0657,-3.0103,0.0,0.0,-2.742,-2.6931,-2.6931,-2.7405,-2.8378,-3.0193,0.0,0.0,0.0,0.0,-3.6413,0.0,0.0,0.0,0.0,0.0,0.0,0.0,0.0,0.0,-3.4899,-3.4899,-3.4618,-3.4005,-3.3392,-3.2729,-3.1979,-3.1118,-3.0688,-3.0688,-3.0555,-3.0506,-3.0472,-2.9382,-2.8888,-2.8744,0.0,0.0,-2.6194,-2.5575,-2.5041,-2.4632,-2.4688,-2.4497,-2.4261,-2.4735,-2.4735,-2.4485,-2.4305,-2.3699,-2.304,-2.3232,-2.3694,-2.4179,-2.4423,-2.4891,-2.5341,-2.5411,-2.5406,-2.5368,-2.5275,-2.5221,-2.5202,-2.5202,-2.4772,-2.415,-2.3279,-2.2191,-2.1311,-2.1119,-2.1307,-2.1508,-2.1493,-2.1735,-2.1913,-2.184,-2.1825,-2.1811,-2.1825,-2.1868,-2.194,-2.1982,-2.2013,-2.2013,-2.2013,-2.2013,-2.1984,-2.1911,-2.1928,-2.1899,-2.1811,-2.1827,-2.1796,-2.1812,-2.1812,-2.1812,-2.1812,-2.2659,-2.3404,-2.4017,-2.4895,-2.5606,-3.16,-3.1511,-3.1511,-3.1511,-3.1511,-3.1241,-3.0253,0.0,0.0,0.0,-2.6542,-2.5974,-2.563,-2.6686,0.0,-2.8368,0.0,0.0,0.0,0.0,0.0,0.0,0.0,0.0,0.0,0.0,0.0,0.0,0.0,0.0,-3.4899,-3.4535,-3.4154,-3.3806,-3.2713,-3.1946,-3.1598,-3.087,-3.0506,-3.0506,-3.0241,-2.9959,-2.9583,-2.8393,-2.7562,-2.6973,-2.5887,0.0,-2.5153,-2.4784,-2.4522,-2.4333,-2.4152,-2.4057,-2.4024,-2.4281,-2.4338,-2.4251,-2.422,-2.362,-2.284,-2.2717,-2.2799,-2.2974,-2.3193,-2.3721,-2.4312,-2.459,-2.4603,-2.4563,-2.4486,-2.441,-2.4369,-2.4369,-2.3615,-2.2719,-2.2,-2.1056,-2.0379,-2.0549,-2.0715,-2.0878,-2.1055,-2.123,-2.1324,-2.1293,-2.1277,-2.134,-2.1526,-2.1555,-2.1661,-2.1868,-2.1899,-2.1899,-2.1899,-2.1899,-2.1884,-2.1855,-2.1855,-2.1825,-2.1812,-2.1812,-2.1812,-2.1812,-2.1812,-2.1812,-2.1812,-2.2526,-2.3073,-2.3454,-2.458,-2.5292,-3.2056,-3.1802,-3.1668,-3.1524,-3.1511,-3.1167,-2.9879,-2.8966,0.0,0.0,-2.5734,-2.5038,-2.4664,0.0,-2.6941,0.0,-2.8154,0.0,0.0,0.0,0.0,0.0,0.0,0.0,0.0,0.0,0.0,0.0,0.0,0.0,-3.4651,-3.4104,-3.3657,-3.3342,-3.2194,-3.1515,-3.1366,-3.0787,-3.0423,-3.0257,-2.9799,-2.9232,-2.8524,-2.7248,-2.6201,-2.5373,-2.4854,0.0,0.0,-2.4156,-2.4156,-2.4099,-2.3739,-2.3739,-2.3961,-2.3961,-2.4024,-2.4145,-2.4124,-2.3619,-2.2854,-2.2187,-2.1842,-2.1714,-2.1819,-2.2339,-2.299,-2.3572,-2.367,-2.3616,-2.373,-2.3674,-2.3535,-2.3251,-2.2323,-2.1306,-2.0613,-2.0064,-1.9782,-2.005,-2.0139,-2.0294,-2.0629,-2.0745,-2.0794,-2.0794,-2.0794,-2.0893,-2.1151,-2.1183,-2.1293,-2.1555,-2.1706,-2.1812,-2.1812,-2.1812,-2.1812,-2.1812,-2.1812,-2.1812,-2.1812,-2.1812,-2.1812,-2.1812,-2.1812,-2.1812,-2.1812,-2.2377,-2.2824,-2.3156,-2.4332,-2.4961,-3.3264,-3.2847,-3.2176,-3.164,-3.1511,-3.1167,-2.9879,0.0,0.0,-2.5974,-2.4672,-2.3954,-2.45,-2.4754,0.0,0.0,0.0,-2.8619,0.0,0.0,0.0,0.0,0.0,0.0,0.0,0.0,0.0,0.0,0.0,0.0,0.0,-3.3822,-3.3193,-3.1846,-3.1664,-3.1283,-3.0605,-3.0522,-3.0158,-2.9496,-2.909,-2.8508,-2.7757,-2.6241,-2.5487,-2.533,0.0,0.0,0.0,-2.3659,-2.3659,-2.3659,-2.3616,-2.3696,-2.3818,-2.3818,-2.3903,-2.4003,-2.3882,-2.3381,-2.2717,-2.2033,-2.1875,-2.1854,-2.1288,-2.1573,-2.2206,-2.2752,-2.2892,-2.3007,-2.3488,-2.3595,-2.331,-2.2143,-2.1321,-2.0617,-1.9947,-1.9753,-1.9708,-1.9729,-1.9997,-2.0208,-2.0243,-2.0562,-2.0794,-2.0794,-2.0794,-2.0811,-2.0844,-2.0844,-2.086,-2.0893,-2.1448,-2.1812,-2.1812,-2.1812,-2.1812,-2.1812,-2.1812,-2.1812,-2.1812,-2.1812,-2.1812,-2.1812,-2.1812,-2.1812,-2.1812,-2.1879,-2.2576,-2.3901,-2.4033,-2.4464,-3.3294,-3.3114,-3.2815,-3.2571,-3.2272,-3.1579,-2.9881,0.0,-2.7106,-2.5352,-2.4268,-2.3684,-2.3954,-2.4335,-2.4993,0.0,0.0,0.0,0.0,0.0,0.0,0.0,0.0,0.0,0.0,0.0,0.0,0.0,0.0,0.0,0.0,-3.2497,-3.2083,-3.1203,-3.0762,-3.0044,-2.9054,-2.9054,-2.8721,-2.801,-2.7566,-2.7003,-2.6288,-2.5354,-2.4697,-2.4288,0.0,0.0,0.0,-2.3595,-2.3595,-2.3595,-2.3595,-2.3674,-2.3797,-2.3797,-2.3839,-2.3861,-2.3818,-2.3318,-2.263,-2.1949,-2.1488,-2.1185,-2.0956,-2.1352,-2.1998,-2.2575,-2.2465,-2.2279,-2.2897,-2.2757,-2.2323,-2.1814,-2.1201,-2.0528,-1.9824,-1.9708,-1.9708,-1.9708,-1.98,-1.9892,-1.9892,-2.003,-2.0135,-2.0135,-2.0135,-2.0222,-2.0412,-2.0446,-2.053,-2.0778,-2.123,-2.1495,-2.1495,-2.1693,-2.1812,-2.1812,-2.1812,-2.1812,-2.1812,-2.1812,-2.1812,-2.1812,-2.1812,-2.1812,-2.1812,-2.1812,-2.2327,-2.3354,-2.3785,-2.4166,-3.3692,-3.3618,-3.3423,-3.3251,-3.2647,-3.164,0.0,-2.8312,-2.6806,-2.4963,-2.4066,-2.3595,-2.3595,-2.3999,-2.4515,0.0,0.0,-2.6531,-2.806,0.0,0.0,0.0,0.0,0.0,0.0,0.0,0.0,0.0,0.0,0.0,0.0,-3.0974,-3.0772,-3.0577,-2.9935,-2.9102,-2.8113,-2.8091,-2.7654,-2.6767,-2.6312,-2.5753,-2.5068,-2.4549,-2.4059,-2.3595,0.0,0.0,0.0,-2.3595,-2.3595,-2.3595,-2.3595,-2.3674,-2.3739,-2.3739,-2.3739,-2.3739,-2.3739,-2.3411,-2.2838,-2.1979,-2.138,-2.0932,-2.0587,-2.0802,-2.1313,-2.1944,-2.1904,-2.1799,-2.2283,-2.1904,-2.1395,-2.1395,-2.0902,-2.0273,-1.9813,-1.9708,-1.9708,-1.9708,-1.9708,-1.9708,-1.9708,-1.9708,-1.9708,-1.9708,-1.9708,-1.9782,-2.0015,-2.005,-2.0154,-2.0444,-2.0763,-2.1023,-2.1135,-2.1371,-2.1509,-2.1509,-2.1509,-2.1509,-2.1509,-2.1601,-2.1617,-2.1509,-2.1691,-2.1753,-2.1663,-2.1663,-2.2087,-2.2907,-2.3424,-2.3817,-3.4859,-3.4593,-3.3958,-3.3355,-3.2315,-3.1054,-2.9718,-2.7947,-2.6228,-2.4874,-2.4066,-2.3595,-2.3595,-2.361,-2.3834,-2.45,0.0,0.0,0.0,0.0,0.0,0.0,0.0,0.0,0.0,0.0,0.0,0.0,0.0,0.0,0.0,-2.9516,-2.9341,-2.9788,-2.9348,-2.8765,-2.8107,-2.8091,-2.7395,-2.6002,-2.5596,-2.5022,-2.4297,-2.3824,-2.361,0.0,0.0,0.0,0.0,-2.3595,-2.3595,-2.3595,-2.3595,-2.3595,-2.3595,-2.3595,-2.3595,-2.3595,-2.3595,-2.3595,-2.3385,-2.2113,-2.1695,-2.144,-2.0112,-1.9723,-1.9872,-2.0524,-2.1201,-2.1695,-2.171,-2.1216,-2.0703,-2.0703,-2.0198,-1.9708,-1.9708,-1.9708,-1.9708,-1.9708,-1.9708,-1.9708,-1.9708,-1.9708,-1.9708,-1.9708,-1.9708,-1.9708,-1.9693,-1.9708,-1.9708,-1.9708,-2.0015,-2.0378,-2.0778,-2.0811,-2.0811,-2.0811,-2.0811,-2.0811,-2.0811,-2.1135,-2.1151,-2.0811,-2.1463,-2.1648,-2.1325,-2.1325,-2.1855,-2.2892,-2.2835,-2.3415,-3.2504,-3.2341,-3.1816,-3.1128,-3.0502,-2.9564,-2.7814,-2.6998,-2.6078,-2.4298,-2.3744,-2.3595,-2.3595,-2.3595,-2.3969,-2.5098,-2.5277,0.0,0.0,0.0,0.0,0.0,0.0,0.0,0.0,0.0,0.0,0.0,0.0,0.0,0.0,-2.8881,-2.8614,-2.8764,-2.8622,-2.7859,-2.6413,-2.639,-2.5704,-2.4347,-2.4234,-2.4042,-2.3824,-2.3659,0.0,0.0,0.0,0.0,0.0,-2.3595,-2.3595,-2.3595,-2.3595,-2.3595,-2.3595,-2.3595,-2.3595,-2.3595,-2.3595,-2.3325,-2.2853,-2.1979,-2.1395,-2.0857,-1.9977,-1.9708,-1.9753,-1.9944,-2.0498,-2.1021,-2.1021,-2.0528,-2.0124,-2.0583,-2.0183,-1.9708,-1.9708,-1.9708,-1.9708,-1.9708,-1.9708,-1.9708,-1.9708,-1.9708,-1.9708,-1.9708,-1.9708,-1.9708,-1.9708,-1.9708,-1.9708,-1.9708,-1.9782,-1.9997,-2.0361,-2.102,-2.1234,-2.0826,-2.1188,-2.1219,-2.081,-2.0893,-2.0909,-2.0794,-2.1023,-2.1055,-2.0958,-2.0958,-2.1597,-2.2835,-2.2812,-2.3504,-3.0608,-3.0652,-3.0254,-2.9774,-2.9154,-2.8285,-2.6838,-2.6146,-2.542,-2.3909,-2.3595,-2.3595,-2.3595,-2.3595,-2.3864,-2.4717,-2.4852,0.0,0.0,0.0,0.0,0.0,0.0,0.0,0.0,0.0,0.0,0.0,0.0,0.0,0.0,0.0,-2.793,-2.7686,-2.7646,-2.7,-2.5615,-2.5337,-2.4687,-2.3595,-2.3595,-2.3595,-2.3595,-2.3595,0.0,0.0,0.0,0.0,0.0,-2.3595,-2.3595,-2.3595,-2.3595,-2.3595,-2.3595,-2.3595,-2.3595,-2.3595,-2.3595,-2.3191,-2.2583,-2.1924,-2.1081,-2.0243,-1.9828,-1.9708,-1.9708,-1.9708,-1.9989,-2.0318,-2.0318,-2.0004,-1.9813,-2.0228,-1.9989,-1.9708,-1.9708,-1.9708,-1.9708,-1.9708,-1.9708,-1.9708,-1.9708,-1.9708,-1.9708,-1.9708,-1.9708,-1.9798,-2.0034,-2.0079,-2.0168,-2.0441,-2.0456,-2.055,-2.0755,-2.0883,-2.0992,-2.1133,-2.1025,-2.0992,-2.1115,-2.1025,-2.1009,-2.1149,-2.1396,-2.1341,-2.0938,-2.1073,-2.1569,-2.2387,-2.2767,-2.3561,0.0,-2.9271,-2.9019,-2.8971,-2.8067,-2.7026,-2.6415,-2.5423,0.0,-2.3744,-2.3595,-2.361,-2.367,-2.3625,-2.3625,-2.3729,0.0,0.0,0.0,0.0,0.0,0.0,0.0,0.0,0.0,0.0,0.0,0.0,0.0,0.0,0.0,0.0,-2.724,-2.6617,-2.6497,-2.6153,-2.5516,-2.4903,-2.4261,-2.3595,-2.3595,-2.3595,-2.3595,-2.3595,0.0,0.0,0.0,0.0,0.0,-2.3595,-2.3595,-2.3595,-2.3595,-2.3595,-2.3595,-2.3595,-2.3565,-2.3535,-2.3535,-2.3122,-2.2448,-2.1789,-2.0726,-1.9708,-1.9708,-1.9708,-1.9708,-1.9708,-1.9708,-1.9708,-1.9708,-1.9708,-1.9708,-1.9708,-1.9708,-1.9708,-1.9708,-1.9708,-1.9708,-1.9768,-1.9768,-1.9798,-1.9828,-1.9842,-1.9842,-1.9842,-1.9842,-2.0082,-2.0692,-2.0763,-2.1002,-2.1635,-2.1695,-2.1724,-2.1754,-2.0636,-2.0393,-2.156,-2.0561,-2.0441,-2.1575,-2.1379,-2.1367,-2.168,-2.2315,-2.2175,-2.1246,-2.1555,-2.1728,-2.1804,-2.2732,-2.3539,-2.5566,0.0,-2.6187,-2.5616,-2.5365,-2.5078,0.0,-2.4447,-2.441,-2.3744,-2.3595,-2.3759,-2.4261,-2.3954,-2.3939,-2.4971,0.0,0.0,0.0,0.0,0.0,0.0,0.0,0.0,0.0,0.0,0.0,0.0,0.0,0.0,0.0,0.0,-2.6752,-2.6587,-2.5615,-2.4993,-2.4844,-2.4679,-2.4261,-2.3595,-2.3595,-2.3595,-2.3595,-2.3595,0.0,0.0,0.0,0.0,-2.3595,-2.3595,-2.3595,-2.3595,-2.3595,-2.3595,-2.3595,-2.3595,-2.3295,-2.2912,-2.2912,-2.2143,-2.1066,-2.0397,-1.9962,-1.9708,-1.9708,-1.9708,-1.9708,-1.9708,-1.9708,-1.9708,-1.9708,-1.9708,-1.9708,-1.9708,-1.9708,-1.9708,-1.9708,-1.9708,-1.9839,-2.0378,-2.0449,-2.0632,-2.1141,-2.1216,-2.1216,-2.1216,-2.1216,-2.1276,-2.144,-2.1455,-2.153,-2.168,-2.1695,-2.1904,-2.2418,-2.2179,-2.168,-2.0991,-2.159,-2.1684,-2.0957,-2.1338,-2.1613,-2.1695,-2.1842,-2.1825,-2.1577,-2.1674,-2.1963,-2.2463,-2.2695,-2.3164,-2.4162,-2.4496,-2.4937,-2.455,-2.4513,-2.45,-2.4141,-2.4096,-2.4044,-2.367,-2.3595,-2.3714,-2.4066,-2.4037,-2.4209,0.0,0.0,0.0,0.0,0.0,0.0,0.0,0.0,0.0,0.0,0.0,0.0,0.0,0.0,0.0,0.0,0.0,-2.6318,-2.5704,-2.4978,-2.4605,-2.4605,-2.4291,-2.3969,-2.3595,-2.3595,-2.3595,-2.3595,-2.3595,-2.3595,0.0,0.0,0.0,-2.3595,-2.3595,-2.3595,-2.3595,-2.3595,-2.3595,-2.3595,-2.3595,-2.3385,-2.3077,-2.2808,-2.1814,-2.0583,-1.9914,-1.9708,-1.9708,-1.9708,-1.9708,-1.9708,-1.9708,-1.9708,-1.9708,-1.9708,-1.9708,-1.9708,-1.9708,-1.9708,-1.9765,-2.0094,-2.0154,-2.0363,-2.1036,-2.1171,-2.1276,-2.1635,-2.1695,-2.1695,-2.1695,-2.1695,-2.1799,-2.2134,-2.2164,-2.2248,-2.2532,-2.2562,-2.2712,-2.3092,-2.3122,-2.2802,-2.2084,-2.2158,-2.2194,-2.2039,-2.2099,-2.2298,-2.2562,-2.2313,-2.2164,-2.2164,-2.2164,-2.2358,-2.2703,-2.2987,-2.3302,-2.393,-2.4231,-2.4709,-2.45,-2.453,-2.4575,-2.447,-2.4007,-2.3595,-2.3595,0.0,-2.3625,-2.3729,-2.4112,0.0,0.0,0.0,0.0,0.0,0.0,0.0,0.0,0.0,0.0,0.0,0.0,0.0,0.0,0.0,0.0,0.0,0.0,0.0,-2.4784,-2.4545,-2.4455,-2.4455,-2.3872,-2.3595,-2.3595,-2.3595,-2.3595,-2.3595,-2.3595,-2.3595,0.0,0.0,0.0,-2.3595,-2.3595,-2.3595,-2.3595,-2.3595,-2.3595,-2.3595,-2.3595,-2.3535,-2.3355,-2.2643,-2.165,-2.0583,-1.9914,-1.9708,-1.9708,-1.9708,-1.9708,-1.9708,-1.9708,-1.9708,-1.9708,-1.9708,-1.9708,-1.9738,-1.9842,-1.9839,-2.0034,-2.0722,-2.0838,-2.1051,-2.1724,-2.1844,-2.1874,-2.1964,-2.1979,-2.1979,-2.1979,-2.1979,-2.2188,-2.2763,-2.2838,-2.3032,-2.355,-2.3595,-2.3595,-2.3595,-2.3595,-2.3595,-2.3595,-2.2592,-2.2473,-2.355,-2.3122,-2.3092,-2.3595,-2.3107,-2.2838,-2.2838,-2.2838,-2.2838,-2.2853,-2.3355,-2.3595,-2.4446,-2.4933,-2.5158,-2.4044,-2.4171,-2.4455,-2.3879,-2.367,-2.3595,0.0,0.0,0.0,0.0,-2.4507,-2.494,0.0,0.0,0.0,0.0,0.0,0.0,0.0,0.0,0.0,0.0,0.0,0.0,0.0,0.0,0.0,0.0,0.0,-2.5068,-2.545,-2.4358,-2.3759,-2.3759,-2.3655,-2.3595,-2.3595,-2.3595,-2.3595,-2.3595,-2.3595,-2.3595,0.0,0.0,-2.3595,-2.3595,-2.3595,-2.3595,-2.3595,-2.3595,-2.3595,-2.3595,-2.3595,-2.3287,-2.2658,-2.144,-2.0868,-2.0583,-1.9914,-1.9708,-1.9708,-1.9708,-1.9708,-1.9708,-1.9708,-1.9708,-1.9708,-1.9708,-1.9708,-1.9824,-2.0423,-2.0557,-2.0737,-2.1395,-2.1545,-2.1739,-2.2418,-2.2553,-2.2718,-2.3221,-2.331,-2.331,-2.331,-2.331,-2.334,-2.3445,-2.346,-2.349,-2.3595,-2.3595,-2.3595,-2.3595,-2.3595,-2.3595,-2.3595,-2.3415,-2.34,-2.3595,-2.3505,-2.3505,-2.3595,-2.3505,-2.346,-2.346,-2.346,-2.346,-2.346,-2.355,-2.3595,-2.4093,-2.4545,-2.4903,-2.4291,-2.4926,-2.5591,-2.5207,-2.4827,-2.4536,0.0,0.0,0.0,0.0,0.0,-2.5785,0.0,0.0,0.0,0.0,0.0,0.0,0.0,0.0,0.0,0.0,0.0,0.0,0.0,0.0,0.0,0.0,0.0,-2.4575,-2.4522,-2.3924,-2.3595,-2.3595,-2.3595,-2.3595,-2.3595,-2.3595,-2.3595,-2.3595,-2.3595,-2.3595,-2.3595,0.0,-2.3595,-2.3595,-2.3595,-2.3595,-2.3595,-2.3595,-2.3595,-2.3595,-2.3595,-2.3227,-2.2613,-2.1979,-2.1321,-2.0643,-2.0348,-1.9989,-1.9708,-1.9708,-1.9708,-1.9708,-1.9708,-1.9708,-1.9708,-1.9708,-1.9959,-2.0318,-2.0613,-2.0991,-2.1425,-2.2104,-2.2239,-2.2433,-2.3056,-2.3197,-2.3266,-2.355,-2.3595,-2.3595,-2.3595,-2.3595,-2.3595,-2.3595,-2.3595,-2.3595,-2.3595,-2.3595,-2.3595,-2.3595,-2.3595,-2.3595,-2.3595,-2.3595,-2.3595,-2.3595,-2.3595,-2.3595,-2.3595,-2.3595,-2.3595,-2.3595,-2.3595,-2.3595,-2.3595,-2.3595,-2.3595,-2.3891,-2.4216,-2.4604,-2.4753,-2.5448,-2.6111,-2.6154,-2.5734,-2.5361,0.0,0.0,0.0,0.0,-2.5903,0.0,0.0,0.0,0.0,0.0,0.0,0.0,0.0,0.0,0.0,0.0,0.0,0.0,0.0,0.0,0.0,0.0,0.0,-2.4201,-2.3849,-2.3684,-2.3595,-2.3595,-2.3595,-2.3595,-2.3595,-2.3595,-2.3595,-2.3595,-2.3595,-2.3595,-2.3595,-2.3595,-2.3595,-2.3595,-2.3595,-2.3595,-2.3595,-2.3595,-2.3595,-2.3595,-2.3595,-2.3295,-2.2897,-2.2748,-2.1919,-2.0897,-2.0748,-2.0243,-1.9738,-1.9902,-1.9929,-1.9959,-2.0127,-2.0067,-1.9884,-1.9753,-2.0079,-2.0539,-2.0872,-2.1223,-2.1783,-2.2712,-2.2729,-2.2771,-2.3462,-2.3508,-2.3443,-2.3443,-2.353,-2.3551,-2.3443,-2.353,-2.3595,-2.3595,-2.3595,-2.3595,-2.3595,-2.3595,-2.3595,-2.3595,-2.3595,-2.3595,-2.3595,-2.3595,-2.3595,-2.3595,-2.3595,-2.3595,-2.3595,-2.3595,-2.3595,-2.3595,-2.3595,-2.3595,-2.3595,-2.3595,-2.3595,-2.4388,-2.4522,-2.4647,-2.5188,-2.5004,-2.4796,-2.5352,-2.5337,-2.5388,-2.5992,0.0,0.0,0.0,0.0,0.0,0.0,0.0,0.0,0.0,0.0,0.0,0.0,0.0,0.0,0.0,0.0,0.0,0.0,0.0,0.0,0.0,0.0,0.0,-2.4515,-2.3924,-2.3595,-2.3595,-2.3595,-2.3595,-2.3595,-2.3595,-2.3595,-2.3595,-2.3595,-2.3595,-2.3595,-2.3595,-2.3595,-2.3595,-2.3595,-2.3595,-2.3595,-2.3595,-2.3595,-2.3595,-2.3595,-2.3565,-2.3445,-2.2897,-2.2239,-2.153,-2.0897,-2.0243,-1.9828,-2.0453,-2.0628,-2.0748,-2.138,-2.1111,-2.0479,-1.9854,-1.9738,-2.0097,-2.1321,-2.128,-2.1426,-2.3144,-2.2802,-2.2418,-2.3406,-2.3246,-2.2957,-2.2957,-2.3312,-2.3443,-2.3024,-2.3312,-2.3595,-2.3595,-2.3595,-2.3595,-2.3595,-2.3595,-2.3595,-2.3595,-2.3595,-2.3595,-2.3595,-2.3595,-2.3595,-2.3595,-2.3595,-2.3595,-2.3595,-2.3595,-2.3595,-2.3595,-2.3595,-2.3595,-2.3595,-2.3595,-2.3595,-2.3769,-2.3859,-2.3955,-2.4576,-2.4764,-2.4973,-2.5629,-2.6065,-2.6473,-2.7024,-2.745,0.0,0.0,0.0,0.0,0.0,0.0,0.0,0.0,0.0,0.0,0.0,0.0,0.0,0.0,0.0,0.0,0.0,0.0,0.0,0.0,0.0,0.0,-2.3984,-2.3729,-2.3595,-2.3595,-2.3595,-2.3595,-2.3595,-2.3595,-2.3595,-2.3595,-2.3595,-2.3595,-2.3595,-2.3595,-2.3595,-2.3595,-2.3595,-2.3595,-2.3595,-2.3595,-2.3595,-2.3595,-2.3595,-2.3595,-2.3565,-2.3325,-2.2577,-2.1665,-2.1395,-2.0635,-1.9869,-2.0133,-2.0499,-2.088,-2.1129,-2.0773,-2.0327,-2.0322,-2.015,-2.0082,-2.0583,-2.0941,-2.1333,-2.2025,-2.2136,-2.2221,-2.2589,-2.2521,-2.2397,-2.2397,-2.2543,-2.2612,-2.2443,-2.283,-2.3157,-2.3157,-2.3421,-2.3595,-2.3595,-2.3595,-2.3595,-2.3595,-2.3595,-2.3595,-2.3595,-2.3595,-2.3595,-2.3595,-2.3595,-2.3595,-2.3595,-2.3595,-2.3595,-2.3595,-2.3595,-2.3595,-2.3595,-2.3595,-2.3595,-2.3159,-2.3281,-2.3504,-2.4092,-2.4438,-2.4883,-2.5729,-2.659,-2.738,-2.7897,-2.8376,0.0,0.0,0.0,0.0,0.0,0.0,0.0,0.0,0.0,0.0,0.0,0.0,0.0,0.0,0.0,0.0,0.0,0.0,0.0,0.0,0.0,0.0,0.0,-2.3595,-2.3595,-2.3595,-2.3595,-2.3595,-2.3595,-2.3595,-2.3595,-2.3595,-2.3595,-2.3595,-2.3595,-2.3595,-2.3595,-2.3595,-2.3595,-2.3595,-2.3595,-2.3595,-2.3595,-2.3573,-2.3421,-2.3377,-2.3377,-2.3377,-2.2526,-2.1489,-2.1697,-2.0914,-1.9955,-2.0231,-2.0619,-2.104,-2.1227,-2.0882,-2.0512,-2.079,-2.0364,-1.989,-2.0111,-2.0599,-2.11,-2.1476,-2.1616,-2.1742,-2.2035,-2.1978,-2.1884,-2.1884,-2.1988,-2.2035,-2.1908,-2.2328,-2.2649,-2.2649,-2.3076,-2.3377,-2.3377,-2.3377,-2.3377,-2.3377,-2.3508,-2.3595,-2.3595,-2.3595,-2.3595,-2.3595,-2.3595,-2.3595,-2.3595,-2.3595,-2.3595,-2.3595,-2.3443,-2.3465,-2.3595,-2.3443,-2.3465,-2.2706,-2.2896,-2.3437,-2.3978,-2.3999,-2.4263,-2.5527,-2.6794,-2.7884,-2.8565,-2.8709,-2.8492,-2.7811,0.0,0.0,0.0,0.0,0.0,0.0,0.0,0.0,0.0,0.0,0.0,0.0,0.0,0.0,0.0,0.0,0.0,0.0,0.0,0.0,0.0,-2.3595,-2.3595,-2.3595,-2.3595,-2.3595,-2.3595,-2.3595,-2.3595,-2.3595,-2.3595,-2.3595,-2.3595,-2.3595,-2.3595,-2.3595,-2.3595,-2.3595,-2.3595,-2.3595,-2.3595,-2.353,-2.3068,-2.2889,-2.2889,-2.2889,-2.2019,-2.1021,-2.1664,-2.0978,-2.0068,-2.0944,-2.1204,-2.133,-2.1927,-2.1661,-2.119,-2.119,-2.0244,-1.946,-2.014,-2.0345,-2.0683,-2.1825,-2.1348,-2.0983,-2.1908,-2.1708,-2.1399,-2.1399,-2.1779,-2.1931,-2.1458,-2.1789,-2.2081,-2.2105,-2.2558,-2.2889,-2.2889,-2.2889,-2.2889,-2.2889,-2.3312,-2.3573,-2.3573,-2.3573,-2.3588,-2.3595,-2.3595,-2.3595,-2.3588,-2.3588,-2.3588,-2.3573,-2.3113,-2.3135,-2.3573,-2.3113,-2.3135,-2.2587,-2.289,-2.3422,-2.3978,0.0,0.0,0.0,-2.6794,0.0,0.0,-2.9,-2.8492,0.0,0.0,0.0,0.0,0.0,0.0,0.0,0.0,0.0,0.0,0.0,0.0,0.0,0.0,0.0,0.0,0.0,0.0,0.0,0.0,0.0,0.0,-2.3595,-2.3595,-2.3595,-2.3595,-2.3595,-2.3595,-2.3595,-2.3595,-2.3595,-2.3595,-2.3595,-2.3595,-2.3595,-2.3595,-2.3595,-2.3595,-2.3595,-2.3595,-2.3595,-2.3399,-2.3091,-2.2957,-2.2649,-2.2337,-2.2337,-2.1818,-2.1136,-2.1342,-2.0887,-2.0304,-2.0575,-2.0977,-2.1383,-2.1547,-2.1174,-2.0708,-2.0708,-2.0188,-1.9672,-1.9775,-1.9888,-2.0065,-2.0404,-2.0607,-2.0774,-2.1068,-2.1008,-2.0873,-2.0774,-2.0885,-2.0934,-2.0799,-2.1177,-2.1585,-2.1917,-2.2175,-2.2291,-2.2198,-2.2267,-2.2291,-2.2198,-2.2314,-2.2369,-2.2271,-2.2271,-2.2515,-2.3076,-2.3113,-2.292,-2.2543,-2.2543,-2.2498,-2.2406,-2.2267,-2.2267,-2.2406,-2.2267,-2.2535,-2.2542,-2.3082,-2.3805,-2.4321,-2.5136,-2.5923,-2.6445,0.0,0.0,0.0,0.0,0.0,0.0,0.0,0.0,0.0,0.0,0.0,0.0,0.0,0.0,0.0,0.0,0.0,0.0,0.0,0.0,0.0,0.0,0.0,0.0,0.0,0.0,0.0,-2.3236,-2.3101,-2.2847,-2.3101,-2.3236,-2.3257,-2.349,-2.3595,-2.3595,-2.3595,-2.3595,-2.3595,-2.3595,-2.3595,-2.3588,-2.3399,-2.3421,-2.3551,-2.3165,-2.2965,-2.2844,-2.2457,-2.2095,-2.1813,-2.1813,-2.1402,-2.0923,-2.1195,-2.089,-2.0411,-2.0478,-2.0788,-2.1106,-2.1106,-2.0863,-2.0582,-2.0582,-2.0369,-2.0092,-1.9771,-1.9935,-2.0164,-2.0164,-2.0438,-2.0699,-2.0699,-2.0699,-2.0662,-2.0511,-2.0486,-2.0486,-2.0486,-2.0736,-2.1104,-2.1561,-2.1465,-2.1393,-2.1537,-2.1657,-2.168,-2.1561,-2.1752,-2.1833,-2.171,-2.1697,-2.1828,-2.2128,-2.2397,-2.2337,-2.2035,-2.2011,-2.195,-2.1819,-2.1619,-2.1657,-2.1833,-2.1842,-2.2207,-2.2489,-2.3289,-2.4326,-2.4868,-2.5471,0.0,-2.7347,-2.7623,-2.7797,-2.8463,0.0,0.0,0.0,0.0,0.0,0.0,0.0,0.0,0.0,0.0,0.0,0.0,0.0,0.0,0.0,0.0,0.0,0.0,0.0,0.0,0.0,0.0,0.0,0.0,-2.2733,-2.2418,-2.1799,-2.2403,-2.2673,0.0,-2.3242,-2.352,-2.352,-2.3565,-2.3595,-2.3595,-2.3595,-2.3573,-2.3508,-2.3068,-2.3135,-2.3363,-2.2452,-2.2374,-2.2663,-2.1746,-2.1375,-2.135,-2.135,-2.0924,-2.0536,-2.1137,-2.0911,-2.0466,-2.0627,-2.0699,-2.0699,-2.0699,-2.0699,-2.0699,-2.0699,-2.0699,-2.0543,-2.0009,-2.0308,-2.0699,-2.0699,-2.0699,-2.0699,-2.0699,-2.0699,-2.0662,-2.0511,-2.0461,-2.0461,-2.0461,-2.0461,-2.0624,-2.1042,-2.056,-2.0372,-2.087,-2.1042,-2.1066,-2.0919,-2.1417,-2.1667,-2.1544,-2.153,-2.1369,-2.0999,-2.1516,-2.1799,-2.1752,-2.1807,-2.1749,-2.1626,-2.126,-2.1274,-2.1684,-2.1748,-2.2092,-2.2099,-2.3007,0.0,-2.5002,-2.5871,-2.6675,-2.6924,-2.6982,-2.7171,-2.7782,0.0,0.0,0.0,0.0,0.0,0.0,0.0,0.0,0.0,0.0,0.0,0.0,0.0,0.0,0.0,0.0,0.0,0.0,0.0,0.0,0.0,0.0,0.0,-2.34,-2.2957,-2.2628,-2.2493,-2.2628,-2.2448,0.0,-2.2583,-2.2897,-2.2912,-2.337,-2.3595,-2.3595,-2.3595,-2.3399,-2.3046,-2.2934,-2.2717,-2.2406,-2.2175,-2.1955,-2.1698,-2.1482,-2.118,-2.0848,-2.0848,-2.0756,-2.0652,-2.0809,-2.0756,-2.0627,-2.0684,-2.0699,-2.0699,-2.0699,-2.0699,-2.0699,-2.0699,-2.0699,-2.0673,-2.053,-2.062,-2.0699,-2.0699,-2.0699,-2.0699,-2.0699,-2.0699,-2.0599,-2.0309,-2.0258,-2.0233,-2.0118,-2.0195,-2.0258,-2.0258,-2.0233,-2.0207,-2.0207,-2.0346,-2.0346,-2.0233,-2.0321,-2.0359,-2.0207,-2.0207,-2.0425,-2.0899,-2.1096,-2.0993,-2.056,-2.1029,-2.1212,-2.1056,-2.1388,-2.1594,-2.1689,-2.1709,-2.2031,-2.2464,0.0,0.0,-2.536,0.0,-2.6873,-2.6806,-2.6533,-2.6402,0.0,0.0,0.0,0.0,0.0,0.0,0.0,0.0,0.0,0.0,0.0,0.0,0.0,0.0,0.0,0.0,0.0,0.0,0.0,0.0,0.0,0.0,-2.292,-2.262,-2.2697,-2.2069,-2.1575,-2.1265,-2.1575,-2.156,-2.1231,-2.1889,-2.225,-2.2353,-2.3225,-2.3486,-2.3268,-2.3268,-2.3135,-2.2867,-2.2388,-2.2142,-2.2058,-2.1599,-2.1434,-2.1375,-2.1155,-2.0923,-2.0699,-2.0699,-2.0699,-2.0699,-2.0699,-2.0699,-2.0699,-2.0699,-2.0699,-2.0699,-2.0699,-2.0699,-2.0699,-2.0699,-2.0699,-2.0699,-2.0699,-2.0699,-2.0699,-2.0699,-2.0699,-2.0699,-2.0699,-2.0662,-2.0524,-2.0258,-2.0156,-2.0093,-2.0016,-2.0067,-2.0093,-2.0016,-2.0003,-1.9991,-1.9926,-2.0283,-2.0359,-1.9952,-2.0471,-2.0647,-2.0264,-2.0464,-2.0779,-2.1176,-2.122,-2.1133,-2.0934,-2.124,-2.1312,-2.1188,-2.1453,-2.1592,-2.1592,-2.1857,-2.2153,-2.272,-2.3532,-2.4517,-2.5692,-2.6418,0.0,-2.6672,-2.621,-2.5774,0.0,0.0,0.0,0.0,0.0,0.0,0.0,0.0,0.0,0.0,0.0,0.0,0.0,0.0,0.0,0.0,0.0,0.0,0.0,0.0,0.0,-2.3251,-2.2138,-2.156,-2.1695,-2.1051,-2.0438,-1.9887,-2.0423,-2.0643,-2.0524,-2.1142,-2.1501,-2.1636,-2.2709,-2.2981,-2.2603,-2.2603,-2.2523,-2.228,-2.1562,-2.1438,-2.1637,-2.0968,-2.0947,-2.1229,-2.0848,-2.0699,-2.0699,-2.0699,-2.0699,-2.0699,-2.0699,-2.0699,-2.0699,-2.0699,-2.0699,-2.0699,-2.0699,-2.0699,-2.0699,-2.0699,-2.0699,-2.0699,-2.0699,-2.0699,-2.0699,-2.0699,-2.0699,-2.0699,-2.0699,-2.0562,-2.0385,-2.0207,-2.0054,-1.9965,-1.9965,-1.9965,-1.9965,-1.9965,-1.9862,-1.9836,-1.9936,-2.0507,-2.066,-2.0125,-2.1049,-2.143,-2.0867,-2.1257,-2.1531,-2.1631,-2.1631,-2.1725,-2.1926,-2.1837,-2.1759,-2.1631,-2.1732,-2.1782,-2.1782,-2.2234,-2.2447,-2.1525,0.0,-2.3932,0.0,-2.6067,-2.6115,0.0,0.0,0.0,0.0,0.0,0.0,0.0,0.0,0.0,0.0,0.0,0.0,0.0,0.0,0.0,0.0,0.0,0.0,0.0,0.0,0.0,0.0,0.0,0.0,-2.2456,-2.1845,-2.156,-2.1695,-2.1051,-2.0658,-2.0554,-2.0658,-2.0423,-1.9824,-2.0175,-2.0353,-2.0442,-2.1259,-2.1565,-2.152,-2.152,-2.098,-2.0163,-2.0475,-2.0425,-2.0149,-2.0527,-2.0724,-2.0799,-2.0724,-2.0699,-2.0699,-2.0699,-2.0699,-2.0699,-2.0699,-2.0699,-2.0699,-2.0699,-2.0699,-2.0699,-2.0699,-2.0699,-2.0699,-2.0699,-2.0699,-2.0699,-2.0699,-2.0699,-2.0699,-2.0699,-2.0699,-2.0699,-2.0699,-2.0448,-2.0182,-2.0042,-1.9926,-1.9837,-1.9837,-1.9837,-1.9837,-1.9837,-1.9798,-1.9987,-2.0515,-2.068,-2.0855,-2.123,-2.1433,-2.1483,-2.1408,-2.1443,-2.1707,-2.2184,-2.2196,-2.2422,-2.2899,-2.2447,-2.2196,-2.2196,-2.2656,-2.2882,-2.2895,-2.2957,-2.2995,-2.154,-2.2586,-2.3755,0.0,-2.5383,-2.56,-2.5404,0.0,0.0,0.0,0.0,0.0,0.0,0.0,0.0,0.0,0.0,0.0,0.0,0.0,0.0,0.0,0.0,0.0,0.0,0.0,0.0,0.0,0.0,-2.0978,-2.1751,-2.0868,-2.058,-2.1122,-2.0498,-2.0139,-2.0139,-2.0139,-1.9879,-1.9362,-1.9472,-1.9487,-1.9374,-1.97,-2.0398,-2.1342,-2.1006,-2.0772,-2.0613,-2.0251,-2.0186,-2.0334,-2.0607,-2.0699,-2.0699,-2.0699,-2.0699,-2.0699,-2.0699,-2.0699,-2.0699,-2.0699,-2.0699,-2.0699,-2.0699,-2.0699,-2.0699,-2.0699,-2.0699,-2.0699,-2.0699,-2.0699,-2.0699,-2.0699,-2.0637,-2.0587,-2.0587,-2.0662,-2.0649,-2.0473,-2.0233,-2.0054,-1.9926,-1.9837,-1.9798,-1.9798,-1.9798,-1.9798,-1.9798,-1.9798,-2.0024,-2.0629,-2.0968,-2.1257,-2.1496,-2.2058,-2.2284,-2.197,-2.2234,-2.2493,-2.2732,-2.2744,-2.2857,-2.3095,-2.2869,-2.2744,-2.2744,-2.2982,-2.3108,-2.3108,-2.3108,-2.3108,0.0,0.0,-2.3059,-2.3926,-2.4646,-2.5088,0.0,0.0,0.0,0.0,0.0,0.0,0.0,0.0,0.0,0.0,0.0,0.0,0.0,0.0,0.0,0.0,0.0,0.0,0.0,0.0,0.0,0.0,0.0,-1.9702,-2.0715,-1.9691,-1.938,-2.0063,-1.9742,-1.9545,-1.9545,-1.9545,-1.9398,-1.9101,-1.8879,-1.8759,-1.8702,-1.8596,-1.9351,-2.0745,-2.0288,-2.0341,-2.0697,-2.0085,-2.0061,-2.0478,-2.0646,-2.0699,-2.0699,-2.0699,-2.0699,-2.0699,-2.0699,-2.0699,-2.0699,-2.0699,-2.0699,-2.0699,-2.0699,-2.0699,-2.0699,-2.0699,-2.0699,-2.0699,-2.0699,-2.0687,-2.0662,-2.0662,-2.0524,-2.0423,-2.0423,-2.0498,-2.0498,-2.0207,-2.0067,-1.9952,-1.9837,-1.9798,-1.9798,-1.9798,-1.9798,-1.9861,-1.9999,-2.0024,-2.03,-2.1031,-2.1455,-2.1757,-2.1895,-2.2631,-2.2932,-2.2518,-2.2882,-2.3108,-2.3108,-2.3108,-2.3108,-2.3108,-2.3108,-2.3108,-2.3108,-2.3108,-2.3108,-2.3108,-2.3108,-2.3108,0.0,-2.0506,0.0,-2.3013,-2.3955,0.0,0.0,0.0,0.0,0.0,0.0,0.0,0.0,0.0,0.0,0.0,0.0,0.0,0.0,0.0,0.0,0.0,0.0,0.0,0.0,0.0,0.0,0.0,0.0,-1.8878,-1.9024,-1.8471,-1.8252,-1.842,-1.8874,-1.9139,-1.9139,-1.9139,-1.912,-1.9082,-1.8266,-1.816,-1.8681,-1.8314,-1.8472,-1.9035,-1.9009,-1.9009,-1.9064,-1.9577,-1.9826,-1.9904,-2.0478,-2.0699,-2.0699,-2.0699,-2.0699,-2.0699,-2.0699,-2.0699,-2.0699,-2.0699,-2.0699,-2.0699,-2.0699,-2.0699,-2.0699,-2.0699,-2.0699,-2.0699,-2.0699,-2.0612,-2.0511,-2.0511,-2.0372,-2.0207,-2.0207,-2.0233,-2.0182,-2.0042,-1.999,-1.9952,-1.9837,-1.9798,-1.9798,-1.9798,-1.9798,-1.9999,-2.0578,-2.0641,-2.1056,-2.2108,-2.2246,-2.2456,-2.297,-2.307,-2.3095,-2.3058,-2.3083,-2.3108,-2.3108,-2.3108,-2.3108,-2.3108,-2.3108,-2.3108,-2.3108,-2.3108,-2.3108,-2.3108,-2.3108,-2.3108,0.0,0.0,0.0,-2.178,-2.2609,-2.3284,0.0,0.0,0.0,0.0,0.0,0.0,0.0,0.0,0.0,0.0,0.0,0.0,0.0,0.0,0.0,0.0,0.0,0.0,0.0,0.0,0.0,0.0,0.0,0.0,-1.8289,-1.817,-1.8159,-1.8305,-1.8572,-1.8841,-1.9101,-1.8841,-1.8707,-1.8707,-1.8088,-1.7787,-1.7718,-1.7597,-1.7839,-1.8388,-1.8388,-1.8806,-1.9473,-1.9303,-1.9669,-2.0399,-2.0633,-2.0699,-2.0699,-2.0699,-2.0699,-2.0699,-2.0699,-2.0699,-2.0699,-2.0699,-2.0699,-2.0699,-2.0699,-2.0699,-2.0699,-2.0699,-2.0699,-2.0687,-2.0587,-2.0258,-1.9786,-1.9228,-1.9044,-1.8965,-1.8871,-1.9148,-1.9539,-1.9939,-1.9642,-1.946,-1.9759,-1.9798,-1.9798,-1.9798,-1.9798,-2.0012,-2.0616,-2.0691,-2.1119,-2.2196,-2.2309,-2.2506,-2.3058,-2.3108,-2.3108,-2.3108,-2.3108,-2.3108,-2.3108,-2.3108,-2.3108,-2.3108,-2.3108,-2.3108,-2.3108,-2.3108,-2.3108,-2.3108,-2.3108,-2.3108,-1.8644,0.0,0.0,0.0,0.0,-2.2188,0.0,0.0,0.0,0.0,0.0,0.0,0.0,0.0,0.0,0.0,0.0,0.0,0.0,0.0,0.0,0.0,0.0,0.0,0.0,0.0,0.0,0.0,0.0,0.0,-1.7482,-1.7632,-1.7834,-1.8108,-1.8226,-1.8461,-1.8879,-1.8481,-1.8266,-1.8266,-1.7808,-1.7455,-1.7199,-1.7199,-1.7421,-1.78,-1.78,-1.844,-1.9486,-1.929,-1.9656,-2.0412,-2.0633,-2.0699,-2.0699,-2.0699,-2.0699,-2.0699,-2.0699,-2.0699,-2.0699,-2.0699,-2.0699,-2.0699,-2.0699,-2.0699,-2.0674,-2.0511,-2.041,-2.0271,-2.0054,-1.9592,-1.9006,-1.8367,-1.8244,-1.8217,-1.812,-1.8402,-1.8842,-1.9291,-1.9001,-1.8804,-1.9162,-1.924,-1.924,-1.924,-1.924,-1.9509,-2.0242,-2.0339,-2.0726,-2.1769,-2.21,-2.2385,-2.2725,-2.2975,-2.3108,-2.3108,-2.3108,-2.3108,-2.3108,-2.3108,-2.3108,-2.3108,-2.3108,-2.3108,-2.3108,-2.3108,-2.3108,-2.3108,-2.3108,-2.3108,0.0,0.0,0.0,0.0,0.0,0.0,0.0,0.0,0.0,0.0,0.0,0.0,0.0,0.0,0.0,0.0,0.0,0.0,0.0,0.0,0.0,0.0,0.0,0.0,0.0,0.0,0.0,0.0,0.0,-1.65,-1.65,-1.6748,-1.7178,-1.776,-1.7767,-1.8008,-1.8461,-1.8008,-1.7787,-1.7787,-1.7393,-1.7199,-1.7199,-1.7199,-1.7199,-1.7199,-1.7199,-1.7826,-1.8911,-1.9512,-1.9773,-1.9865,-2.0438,-2.0686,-2.0699,-2.0699,-2.0699,-2.0699,-2.0699,-2.0699,-2.0699,-2.0699,-2.0699,-2.0699,-2.0674,-2.0674,-2.0574,-2.0105,-1.9773,-1.9489,-1.9054,-1.8605,-1.8232,-1.8093,-1.8038,-1.8038,-1.8038,-1.8038,-1.8066,-1.8093,-1.8093,-1.8093,-1.8093,-1.8093,-1.8093,-1.8093,-1.8093,-1.846,-1.9459,-1.9608,-1.9998,-2.0966,-2.1667,-2.207,-2.207,-2.2659,-2.3035,-2.3035,-2.3035,-2.3047,-2.3078,-2.3078,-2.3065,-2.3108,-2.3065,-2.3078,-2.3078,-2.3078,-2.3108,-2.3108,-2.3108,-2.3108,-1.8857,0.0,0.0,0.0,0.0,0.0,0.0,0.0,0.0,0.0,0.0,0.0,0.0,0.0,0.0,0.0,0.0,0.0,0.0,0.0,0.0,0.0,0.0,0.0,0.0,0.0,0.0,0.0,-1.65,-1.65,-1.65,-1.6748,-1.7044,-1.7352,-1.7372,-1.7578,-1.7988,-1.7578,-1.7516,-1.7787,-1.7393,-1.7199,-1.7199,-1.7199,-1.7199,-1.7199,-1.7199,-1.7382,-1.7721,-1.8323,-1.9054,-1.9826,-1.9969,-2.0321,-2.0699,-2.0699,-2.0699,-2.0699,-2.0699,-2.0699,-2.0699,-2.0699,-2.0699,-2.0624,-2.0296,-2.0182,-2.0105,-1.9682,-1.937,-1.8963,-1.8066,-1.7672,-1.7396,-1.6965,-1.6864,-1.6864,-1.6864,-1.6864,-1.7106,-1.7929,-1.7754,-1.7589,-1.8011,-1.8093,-1.8093,-1.8093,-1.8093,-1.8334,-1.9005,-1.9378,-1.9861,-2.0534,-2.1062,-2.1376,-2.1376,-2.1565,-2.1659,-2.1659,-2.1659,-2.1877,-2.2359,-2.2372,-2.2586,-2.3078,-2.2616,-2.2372,-2.2372,-2.2854,-2.3108,-2.3108,-2.3108,-2.3108,0.0,0.0,0.0,0.0,0.0,0.0,0.0,-2.0112,0.0,0.0,0.0,0.0,0.0,0.0,0.0,0.0,0.0,0.0,0.0,0.0,0.0,0.0,0.0,0.0,0.0,0.0,0.0,-1.65,-1.65,-1.6522,-1.6577,-1.6791,-1.696,-1.7115,-1.7178,-1.7323,-1.7557,-1.7323,-1.7323,-1.7557,-1.7323,-1.7199,-1.7199,-1.7199,-1.7199,-1.7199,-1.7199,-1.7199,-1.7225,-1.7578,-1.8401,-1.946,-1.9708,-2.0177,-2.0699,-2.0699,-2.0699,-2.0699,-2.0699,-2.0699,-2.0699,-2.0699,-2.0561,-2.0346,-2.0067,-1.9875,-1.963,-1.9081,-1.8521,-1.7897,-1.7179,-1.6927,-1.6797,-1.6477,-1.6413,-1.6413,-1.6413,-1.6413,-1.6602,-1.7262,-1.7123,-1.6983,-1.7346,-1.7401,-1.7401,-1.7401,-1.7401,-1.7567,-1.8052,-1.8342,-1.8772,-1.9486,-2.0068,-2.0484,-2.0666,-2.0933,-2.1092,-2.1092,-2.1092,-2.1282,-2.1678,-2.1678,-2.1877,-2.2261,-2.1865,-2.1678,-2.1678,-2.2063,-2.2414,-2.2689,-2.2689,-2.2689,0.0,0.0,0.0,0.0,0.0,0.0,-2.0752,-2.0333,0.0,0.0,0.0,0.0,0.0,0.0,0.0,0.0,0.0,0.0,0.0,0.0,0.0,0.0,0.0,0.0,0.0,-1.6799,-1.6565,-1.65,-1.65,-1.6543,-1.6697,-1.6825,-1.6918,-1.7002,-1.7136,-1.7199,-1.7199,-1.7199,-1.7199,-1.7199,-1.7199,-1.7199,-1.7199,-1.7199,-1.7199,-1.7199,-1.7199,-1.7199,-1.7199,-1.7199,-1.7839,-1.8872,-1.9407,-1.9993,-2.0515,-2.0581,-2.0607,-2.062,-2.0686,-2.0674,-2.0624,-2.0624,-2.0296,-1.9927,-1.9837,-1.9552,-1.9131,-1.836,-1.7496,-1.6733,-1.6459,-1.6413,-1.6413,-1.6413,-1.6413,-1.6413,-1.6413,-1.6413,-1.6413,-1.6413,-1.6413,-1.6413,-1.6413,-1.6413,-1.6413,-1.6413,-1.6413,-1.6529,-1.6893,-1.6986,-1.7316,-1.8143,-1.8827,-1.9401,-1.9879,-2.047,-2.0812,-2.0869,-2.0869,-2.0901,-2.0996,-2.0996,-2.1028,-2.1092,-2.1028,-2.0965,-2.0869,-2.1028,-2.1396,-2.199,-2.199,-2.199,0.0,0.0,0.0,0.0,0.0,0.0,0.0,-1.8281,0.0,0.0,0.0,0.0,0.0,0.0,0.0,0.0,0.0,0.0,0.0,0.0,0.0,0.0,0.0,0.0,0.0,-1.696,-1.6905,-1.6522,-1.65,-1.6543,-1.6697,-1.6825,-1.6918,-1.7002,-1.7136,-1.7199,-1.7199,-1.7199,-1.7199,-1.7199,-1.7199,-1.7199,-1.7199,-1.7199,-1.7199,-1.7199,-1.7199,-1.7199,-1.7199,-1.7199,-1.7617,-1.827,-1.8388,-1.8767,-1.9303,-1.9799,-1.9969,-2.0035,-2.0517,-2.046,-2.0131,-2.0131,-1.9862,-1.9408,-1.8804,-1.8575,-1.8306,-1.7357,-1.6948,-1.6733,-1.6459,-1.6413,-1.6413,-1.6413,-1.6413,-1.6413,-1.6413,-1.6413,-1.6413,-1.6413,-1.6413,-1.6413,-1.6413,-1.6413,-1.6413,-1.6413,-1.6413,-1.6444,-1.6498,-1.6789,-1.7079,-1.7254,-1.7729,-1.8218,-1.87,-1.886,-1.9083,-1.9464,-1.9495,-1.9715,-2.0258,-2.0291,-2.0549,-2.1092,-2.0581,-2.0042,-1.9495,-2.0581,-2.1155,-2.1313,-2.1313,-2.1313,0.0,0.0,0.0,-2.0847,0.0,0.0,0.0,0.0,-1.799,0.0,0.0,0.0,0.0,0.0,0.0,0.0,0.0,0.0,0.0,0.0,0.0,0.0,0.0,0.0,0.0,-1.7136,-1.6833,-1.6522,-1.6543,-1.6633,-1.6697,-1.6867,-1.696,-1.7002,-1.7136,-1.7199,-1.7199,-1.7199,-1.7199,-1.7199,-1.7199,-1.7199,-1.7199,-1.7199,-1.7199,-1.7199,-1.7199,-1.7199,-1.7199,-1.7199,-1.7382,-1.7682,-1.7983,-1.8427,-1.8937,-1.9251,-1.9355,-1.9423,-1.9802,-1.9785,-1.9598,-1.953,-1.9212,-1.8715,-1.7977,-1.7496,-1.7147,-1.6884,-1.6705,-1.6573,-1.6431,-1.6413,-1.6413,-1.6413,-1.6413,-1.6413,-1.6413,-1.6413,-1.6413,-1.6413,-1.6413,-1.6413,-1.6413,-1.6413,-1.6413,-1.6413,-1.6413,-1.6413,-1.6413,-1.657,-1.6769,-1.6986,-1.7223,-1.7626,-1.8351,-1.8414,-1.8611,-1.9077,-1.9108,-1.9264,-1.9584,-1.9584,-1.9748,-2.0096,-1.9781,-1.9419,-1.9108,-1.9781,-2.0258,-2.0613,-2.0613,-2.0613,0.0,0.0,0.0,0.0,0.0,-2.0403,0.0,0.0,0.0,-1.8616,0.0,0.0,0.0,0.0,0.0,0.0,0.0,0.0,0.0,0.0,0.0,0.0,0.0,0.0,0.0,-1.7016,-1.6528,-1.6543,-1.6519,-1.6562,-1.6697,-1.6876,-1.6981,-1.7002,-1.7136,-1.7199,-1.7199,-1.7199,-1.7199,-1.7199,-1.7199,-1.7199,-1.7199,-1.7199,-1.7199,-1.7199,-1.7199,-1.7199,-1.7199,-1.7199,-1.7199,-1.7251,-1.7735,-1.8192,-1.8575,-1.8611,-1.8614,-1.8659,-1.8873,-1.8906,-1.8821,-1.8766,-1.8342,-1.7763,-1.7168,-1.6551,-1.6109,-1.649,-1.65,-1.6413,-1.6413,-1.6413,-1.6413,-1.6413,-1.6413,-1.6413,-1.6413,-1.6413,-1.6413,-1.6413,-1.6413,-1.6413,-1.6413,-1.6413,-1.6413,-1.6413,-1.6413,-1.6413,-1.6413,-1.6413,-1.6519,-1.6841,-1.6882,-1.7213,-1.805,-1.8206,-1.8486,-1.8942,-1.9056,-1.9067,-1.8973,-1.8891,-1.8891,-1.8973,-1.8973,-1.9015,-1.9108,-1.9108,-1.9396,-1.9911,-1.9911,-1.9911,0.0,0.0,0.0,0.0,-2.2094,0.0,0.0,0.0,-1.8564,-1.8101,0.0,0.0,0.0,0.0,0.0,0.0,0.0,0.0,0.0,0.0,0.0,0.0,0.0,0.0,0.0,0.0,-1.6185,-1.6637,-1.6145,-1.6082,-1.6671,-1.6825,-1.6939,-1.7002,-1.7136,-1.7199,-1.7199,-1.7199,-1.7199,-1.7199,-1.7199,-1.7199,-1.7199,-1.7199,-1.7199,-1.7199,-1.7199,-1.7199,-1.7199,-1.7199,-1.7199,-1.7212,-1.7277,-1.7342,-1.7405,-1.7593,-1.7673,-1.7705,-1.7961,-1.7824,-1.7543,-1.7716,-1.7123,-1.6332,-1.6251,-1.6007,-1.5756,-1.5808,-1.6091,-1.6413,-1.6413,-1.6413,-1.6413,-1.6413,-1.6413,-1.6413,-1.6413,-1.6413,-1.6413,-1.6413,-1.6413,-1.6413,-1.6413,-1.6413,-1.6413,-1.6413,-1.6413,-1.6413,-1.6413,-1.6413,-1.6423,-1.6446,-1.6485,-1.6653,-1.712,-1.7544,-1.7988,-1.8465,-1.888,-1.8922,-1.8507,-1.8092,-1.8061,-1.8476,-1.8486,-1.8694,-1.9108,-1.9108,-1.9131,-1.9198,-1.9198,-1.9198,0.0,0.0,0.0,0.0,0.0,0.0,-1.9844,0.0,-1.8327,0.0,0.0,0.0,0.0,0.0,0.0,0.0,0.0,0.0,0.0,0.0,0.0,0.0,0.0,0.0,0.0,0.0,0.0,0.0,0.0,-1.6112,-1.6396,-1.6822,-1.7094,-1.7115,-1.7178,-1.7199,-1.7199,-1.7199,-1.7199,-1.7199,-1.7199,-1.7199,-1.7199,-1.7199,-1.7199,-1.7199,-1.7199,-1.7094,-1.6913,-1.6913,-1.6799,-1.662,-1.662,-1.6735,-1.6918,-1.6999,-1.6926,-1.6749,-1.6774,-1.6681,-1.6523,-1.637,-1.5916,-1.5515,-1.5788,-1.579,-1.577,-1.6039,-1.6257,-1.6413,-1.6413,-1.6413,-1.6413,-1.6413,-1.6413,-1.6413,-1.6413,-1.6413,-1.6413,-1.6413,-1.6413,-1.6413,-1.6413,-1.6413,-1.6413,-1.6413,-1.6413,-1.6413,-1.6413,-1.6413,-1.6413,-1.6413,-1.6413,-1.656,-1.6975,-1.7192,-1.7492,-1.7968,-1.8185,-1.8206,-1.8009,-1.7802,-1.7781,-1.7999,-1.8247,-1.8507,-1.8704,-1.8973,-1.9108,-1.9108,-1.9108,-1.9108,-2.3437,0.0,0.0,0.0,0.0,0.0,0.0,0.0,0.0,0.0,0.0,0.0,0.0,0.0,0.0,0.0,0.0,0.0,0.0,0.0,0.0,0.0,0.0,0.0,0.0,0.0,0.0,0.0,0.0,0.0,-1.6164,-1.666,-1.7021,-1.7199,-1.7199,-1.7199,-1.7199,-1.7199,-1.7199,-1.7199,-1.7199,-1.7199,-1.7199,-1.7199,-1.7199,-1.7199,-1.7094,-1.6913,-1.6701,-1.6595,-1.6414,-1.62,-1.62,-1.6284,-1.6389,-1.6389,-1.6228,-1.5995,-1.573,-1.5645,-1.5599,-1.5297,-1.5101,-1.5059,-1.5401,-1.5587,-1.5753,-1.6122,-1.6309,-1.6413,-1.6413,-1.6413,-1.6413,-1.6413,-1.6413,-1.6413,-1.6413,-1.6413,-1.6413,-1.6413,-1.6413,-1.6413,-1.6413,-1.6413,-1.6413,-1.6413,-1.6413,-1.6413,-1.6413,-1.6413,-1.6413,-1.6413,-1.6413,-1.6508,-1.68,-1.6944,-1.7203,-1.7668,-1.7585,-1.7513,-1.7513,-1.7399,-1.7389,-1.7513,-1.7854,-1.8071,-1.8206,-1.8694,-1.8911,-1.8911,-1.9046,-1.9108,0.0,0.0,0.0,-2.1435,0.0,0.0,0.0,0.0,-1.9168,0.0,0.0,0.0,0.0,0.0,0.0,0.0,0.0,0.0,0.0,0.0,0.0,0.0,0.0,0.0,0.0,0.0,0.0,0.0,0.0,0.0,-1.6113,-1.6216,-1.6536,-1.7186,-1.7199,-1.7199,-1.7199,-1.7199,-1.7199,-1.7199,-1.7199,-1.7199,-1.7199,-1.7199,-1.7199,-1.7178,-1.6871,-1.671,-1.668,-1.6362,-1.6222,-1.62,-1.62,-1.5957,-1.5635,-1.5635,-1.5635,-1.5524,-1.4949,-1.4735,-1.4733,-1.4719,-1.4849,-1.4997,-1.5018,-1.5328,-1.5691,-1.5711,-1.606,-1.6413,-1.6413,-1.6413,-1.6413,-1.6413,-1.6413,-1.6413,-1.6413,-1.6413,-1.6413,-1.6413,-1.6413,-1.6413,-1.6413,-1.6413,-1.6413,-1.6413,-1.6413,-1.6413,-1.6413,-1.6413,-1.6413,-1.6413,-1.6413,-1.6413,-1.6423,-1.6769,-1.7203,-1.7668,-1.7285,-1.7007,-1.7007,-1.6653,-1.6622,-1.7027,-1.7048,-1.7275,-1.7719,-1.8185,-1.8434,-1.8445,-1.8901,-1.9108,0.0,0.0,-2.3404,-2.2405,0.0,0.0,0.0,0.0,0.0,0.0,0.0,0.0,0.0,0.0,0.0,0.0,0.0,0.0,0.0,0.0,0.0,0.0,0.0,0.0,0.0,0.0,0.0,0.0,0.0,0.0,0.0,-1.6844,-1.7366,-1.7212,-1.7199,-1.7199,-1.7199,-1.7199,-1.7199,-1.7199,-1.7199,-1.7199,-1.7199,-1.7199,-1.7073,-1.6871,-1.6765,-1.6411,-1.5954,-1.5834,-1.5669,-1.5468,-1.5468,-1.5289,-1.504,-1.5288,-1.5232,-1.4926,-1.443,-1.4116,-1.3979,-1.3979,-1.4243,-1.4593,-1.4904,-1.5328,-1.5753,-1.6091,-1.6288,-1.6413,-1.6413,-1.6413,-1.6413,-1.6413,-1.6413,-1.6413,-1.6413,-1.6413,-1.6413,-1.6413,-1.6413,-1.6413,-1.6413,-1.6413,-1.6413,-1.6413,-1.6413,-1.6413,-1.6413,-1.6413,-1.6413,-1.6413,-1.6413,-1.6413,-1.6413,-1.6519,-1.6674,-1.6829,-1.6694,-1.6601,-1.6601,-1.6456,-1.6446,-1.6601,-1.6862,-1.7089,-1.7244,-1.7699,-1.7957,-1.7957,-1.8112,-1.8506,-2.3818,-2.3739,0.0,-2.26,-2.1441,0.0,-2.0117,0.0,0.0,0.0,0.0,0.0,0.0,0.0,0.0,0.0,0.0,0.0,0.0,0.0,0.0,0.0,0.0,0.0,0.0,0.0,-1.4896,-1.4738,0.0,0.0,0.0,0.0,-1.7499,-1.7512,-1.7303,-1.7199,-1.7199,-1.7199,-1.7199,-1.7199,-1.7199,-1.7199,-1.7199,-1.7073,-1.6892,-1.6701,-1.6411,-1.5998,-1.549,-1.5434,-1.5244,-1.4971,-1.5062,-1.4949,-1.472,-1.4983,-1.4834,-1.4407,-1.4114,-1.3821,-1.3597,-1.3597,-1.3931,-1.4397,-1.4863,-1.5328,-1.5811,-1.6278,-1.6413,-1.6413,-1.6413,-1.6413,-1.6413,-1.6413,-1.6413,-1.6413,-1.6413,-1.6413,-1.6413,-1.6413,-1.6413,-1.6413,-1.6413,-1.6413,-1.6413,-1.6413,-1.6413,-1.6413,-1.6413,-1.6413,-1.6413,-1.6413,-1.6413,-1.6413,-1.6413,-1.6413,-1.6413,-1.6413,-1.6413,-1.6413,-1.6413,-1.6413,-1.6413,-1.6413,-1.6663,-1.6779,-1.6779,-1.7234,-1.7461,-1.7461,-1.7626,-1.8008]},{"header":{"parameterUnit":"m.s-1","parameterCategory":1,"la1":30.6,"la2":29.2853,"lo1":-89.7004,"lo2":-87.6739,"dy":0.0162,"dx":0.0183,"nx":112,"ny":82,"refTime":"2025-04-23T18:00:00:Z","depth":0,"parameterNumber":3,"parameterNumberName":"V-component_of_WINDS"},"data":[0.0,0.0,0.0,0.0,0.0,0.0,0.0,0.0,0.0,0.0,0.0,0.0,0.0,0.0,0.0,0.0,0.0,0.0,0.0,0.0,0.0,0.0,0.0,0.0,0.0,0.0,0.0,0.0,0.0,0.0,0.0,0.0,0.0,0.0,0.0,0.0,0.0,0.0,0.0,0.0,0.0,0.0,0.0,0.0,0.0,0.0,0.0,0.0,0.0,0.0,0.0,0.0,0.0,0.0,0.0,0.0,0.0,0.0,0.0,0.0,0.0,0.0,0.0,0.0,0.0,0.0,0.0,0.0,0.0,0.0,0.0,0.0,0.0,0.0,0.0,0.0,0.0,0.0,0.0,0.0,0.0,0.0,0.0,0.0,0.0,0.0,0.0,0.0,0.0,0.0,0.0,0.0274,0.0085,0.0,0.0,0.0,-0.056,-0.1866,0.0,0.0,0.0,0.0,0.0,0.0,0.0,0.0,0.0,0.0,0.0,0.0,0.0,0.0,0.0,0.0,0.0,0.0,0.0,0.0,0.0,0.0,0.0,0.0,0.0,0.0,0.0,0.0,0.0,0.0,0.0,0.0,0.0,0.0,0.0,0.0,0.0,0.0,0.0,0.0,0.0,0.0,0.0,0.0,0.0,0.0,0.0,0.0,0.0,0.0,0.0,0.0,0.0,0.0,0.0,0.0,0.0,0.0,0.0,0.0,0.0,0.0,0.0,0.0,0.0,0.0,0.0,0.0,0.0,0.0,0.0,0.0,0.0,0.0,0.0,0.0,0.0,0.0,0.0,0.0,0.0,0.0,0.0,0.0,0.0,0.0,0.0,0.0,0.0,0.0,0.0,0.0,0.0,0.0,0.0,0.0,0.0,0.0,0.0,0.0,0.0,0.0,0.0,0.0,0.0285,0.008,0.0,0.0,0.0,0.0,-0.0341,-0.1206,0.0,0.0,0.0,0.0,0.0,0.0,0.0,0.0,0.0,0.0,0.0,0.0,0.0,0.0,0.0,0.0,0.0,0.0,0.0,0.0,0.0,0.0,0.0,0.0,0.0,0.0,0.0,0.0,0.0,0.0,0.0,0.0,0.0,0.0,0.0,0.0,0.0,0.0,0.0,0.0,0.0,0.0,0.0,0.0,0.0,0.0,0.0,0.0,0.0,0.0,0.0,0.0,0.0,0.0,0.0,0.0,0.0,0.0,0.0,0.0,0.0,0.0,0.0,0.0,0.0,0.0,0.0,0.0,0.0,0.0,0.0,0.0,0.0,0.0,0.0,0.0,0.0,0.0,0.0,0.0,0.0,0.0,0.0,0.0,0.0,0.0,0.0,0.0,0.0,0.0,0.0,0.0,0.0,0.0,0.0,0.0,0.0,0.0,0.0,0.0,0.0,0.0,0.0,0.055,0.0293,0.0161,0.0084,0.0,0.0,0.0,-0.0298,-0.1037,-0.1536,0.0,0.0,0.0,0.0,0.0,0.0,0.0,0.0,0.0,0.0,0.0,0.0,0.0,0.0,0.0,0.0,0.0,0.0,0.0,0.0,0.0,0.0,0.0,0.0,0.0,0.0,0.0,0.0,0.0,0.0,0.0,0.0,0.0,0.0,0.0,0.0,0.0,0.0,0.0,0.0,0.0,0.0,0.0,0.0,0.0,0.0,0.0,0.0,0.0,0.0,0.0,0.0,0.0,0.0,0.0,0.0,0.0,0.0,0.0,0.0,0.0,0.0,0.0,0.0,0.0,0.0,0.0,0.0,0.0,0.0,0.0,0.0,0.0,0.0,0.0,0.0,0.0,0.0,0.0,0.0,0.0,0.0,0.0,0.0,0.0,0.0,0.0,0.0,0.0,0.0,0.0,0.0,0.0,0.0,0.0,0.0,0.0,0.0,0.0,0.0,0.0,0.0,0.0618,0.0415,0.0321,0.0165,0.0041,0.0,0.0,-0.0255,-0.0801,-0.1313,0.0,0.0,0.0,0.0,0.0,0.0,0.0,0.0,0.0,0.0,0.0,0.0,0.0,0.0,0.0,0.0,0.0,0.0,0.0,0.0,0.0,0.0,0.0,0.0,0.0,0.0,0.0,0.0,0.0,0.0,0.0,0.0,0.0,0.0,0.0,0.0,0.0,0.0,0.0,0.0,0.0,0.0,0.0,0.0,0.0,0.0,0.0,0.0,0.0,0.0,0.0,0.0,0.0,0.0,0.0,0.0,0.0,0.0,0.0,0.0,0.0,0.0,0.0,0.0,0.0,0.0,0.0,0.0,0.0,0.0,0.0,0.0,0.0,0.0,0.0,0.0,0.0,0.0,0.0,0.0,0.0,0.0,0.0,0.0,0.0,0.0,0.0,0.0,0.0,0.0,0.0,0.0,0.0,0.0,0.0,0.0,0.0,0.0,0.0,0.0,0.0,0.0,0.0831,0.0725,0.0353,0.0282,0.02,0.0,0.0,-0.0035,-0.0068,-0.0621,0.0,0.0,0.0,0.0,0.0,0.0,0.0,0.0,0.0,0.0,0.0,0.0,0.0,0.0,0.0,0.0,0.0,0.0,0.0,0.0,0.0,0.0,0.0,0.0,0.0,0.0,0.0,0.0,0.0,0.0,0.0,0.0,0.0,0.0,0.0,0.0,0.0,0.0,0.0,0.0,0.0,0.0,0.0,0.0,0.0,0.0,0.0,0.0,0.0,0.0,0.0,0.0,0.0,0.0,0.0,0.0,0.0,0.0,0.0,0.0,0.0,0.0,0.0,0.0,0.0,0.0,0.0,0.0,0.0,0.0,0.0,0.0,0.0,0.0,0.0,0.0,0.0,0.0,0.0,0.0,0.0,0.0,0.0,0.0,0.0,0.0,0.0,0.0,0.0,0.0,0.0,0.0,0.0,0.0,0.0,0.0,0.0,0.0,0.0,0.0,0.0,0.0,0.1226,0.1217,0.0,0.0547,0.0464,0.0379,0.0325,0.0275,0.0197,0.0,0.0,0.0,0.0,0.0,0.0,0.0,0.0,0.0,0.0,0.0,0.0,0.0,0.0,0.0,0.0,0.0,0.0,0.0,0.0,0.0,0.0,0.0,0.0,0.0,0.0,0.0,0.0,0.0,0.0,0.0,0.0,0.0,0.0,0.0,0.0,0.0,0.0,0.0,0.0,0.0,0.0,0.0,0.0,0.0,0.0,0.0,0.0,0.0,0.0,0.0,0.0,0.0,0.0,0.0,0.0,0.0,0.0,0.0,0.0,0.0,0.0,0.0,0.0,0.0,0.0,0.0,0.0,0.0,0.0,0.0,0.0,0.0,0.0,0.0,0.0,0.0,0.0,0.0,0.0,0.0,0.0,0.0,0.0,0.0,0.0,0.0,0.0,0.0,0.0,0.0,0.0,0.0,0.0,0.0,0.0,0.0,0.0,0.0,0.0,0.0,0.0,0.1781,0.2027,0.1976,0.0,0.1139,0.0894,0.0592,0.0533,0.0438,0.0347,0.0,0.0,0.0,0.0,0.0,0.0,0.0,0.0,0.0,0.0,0.0,0.0,0.0,0.0,0.0,0.0,0.0,0.0,0.0,0.0,0.0,0.0,0.0,0.0,0.0,0.0,0.0,0.0,0.0,0.0,0.0,0.0,0.0,0.0,0.0,0.0,0.0,0.0,0.0,0.0,0.0,0.0,0.0,0.0,0.0,0.0,0.0,0.0,0.0,0.0,0.0,0.0,0.0,0.0,0.0,0.0,0.0,0.0,0.0,0.0,0.0,0.0,0.0,0.0,0.0,0.0,0.0,0.0,0.0,0.0,0.0,0.0,0.0,0.0,0.0,0.0,0.0,0.0,0.0,0.0,0.0,0.0,0.0,0.0,0.0,0.0,0.0,0.0,0.0,0.0,0.0,0.0,0.0,0.0,0.0,0.0,0.0,0.0,0.0,0.0,0.0,0.0,0.3169,0.3261,0.2995,0.2216,0.1994,0.1547,0.0596,0.0513,0.0487,0.0,0.0,0.0,0.0,0.0,0.0,0.0,0.0,0.0,0.0,0.0,0.0,0.0,0.0,0.0,0.0,0.0,0.0,0.0,0.0,0.0,0.0,0.0,0.0,0.0,0.0,0.0,0.0,0.0,0.0,0.0,0.0,0.0,0.0,0.0,0.0,0.0,0.0,0.0,0.0,0.0,0.0,0.0,0.0,0.0,0.0,0.0,0.0,0.0,0.0,0.0,0.0,0.0,0.0,0.0,0.0,0.0,0.0,0.0,0.0,0.0,0.0,0.0,0.0,0.0,0.0,0.0,0.0,0.0,0.0,0.0,0.0,0.0,0.0,0.0,0.0,0.0,0.0,0.0,0.0,0.0,0.0,0.0,0.0,0.0,0.0,0.0,0.0,0.0,0.0,0.0,0.0,0.0,0.0,0.0,0.0,0.0,0.0,0.0,0.0,0.0,0.0,0.0,0.3079,0.3596,0.375,0.3004,0.2908,0.2784,0.2481,0.1944,0.1555,0.139,0.0,0.0,0.0,0.0,0.0,0.0,0.0,0.0,0.0,0.0,0.0,0.0,0.0,0.0,0.0,0.0,0.0,0.0,0.0,0.0,0.0,0.0,0.0,0.0,0.0,0.0,0.0,0.0,0.0,0.0,0.0,0.0,0.0,0.0,0.0,0.0,0.0,0.0,0.0,0.0,0.0,0.0,0.0,0.0,0.0,0.0,0.0,0.0,0.0,0.0,0.0,0.0,0.0,0.0,0.0,0.0,0.0,0.0,0.0,0.0,0.0,0.0,0.0,0.0,0.0,0.0,0.0,0.0,0.0,0.0,0.0,0.0,0.0,0.0,0.0,0.0,0.0,0.0,0.0,0.0,0.0,0.0,0.0,0.0,0.0,0.0,0.0,0.0,0.0,0.0,0.0,0.0,0.0,0.0,0.0,0.0,0.0,0.0,0.0,0.0,0.0,0.0,0.3771,0.4317,0.4476,0.3852,0.3735,0.3573,0.3297,0.281,0.2457,0.2245,0.0,0.0,0.0,0.0,0.0,0.0,0.0,0.0,0.0,0.0,0.0,0.0,0.0,0.0,0.0,0.0,0.0,0.0,0.0,0.0,0.0,0.0,0.0,0.0,0.0,0.0,0.0,0.0,0.0,0.0,0.0,0.0,0.0,0.0,0.0,0.0,0.0,0.0,0.0,0.0,0.0,0.0,0.0,0.0,0.0,0.0,0.0,0.0,0.0,0.0,0.0,0.0,0.0,0.0,0.0,0.0,0.0,0.0,0.0,0.0,0.0,0.0,0.0,0.0,0.0,0.0,0.0,0.0,0.0,0.0,0.0,0.0,0.0,0.0,0.0,0.0,0.0,0.0,0.0,0.0,0.0,0.0,0.0,0.0,0.0,0.0,0.0,0.0,0.0,0.0,0.0,0.0,0.0,0.0,0.0,0.0,0.0,0.0,0.0,0.0,0.0,0.0,0.481,0.5201,0.5178,0.4648,0.449,0.412,0.3451,0.3351,0.323,0.301,0.0,0.0,0.0,0.0,0.0,0.0,0.0,0.0,0.0,0.0,0.0,0.0,0.0,0.0,0.0,0.0,0.0,0.0,0.0,0.0,0.0,0.0,0.0,0.0,0.0,0.0,0.0,0.0,0.0,0.0,0.0,0.0,0.0,0.0,0.0,0.0,0.0,0.0,0.0,0.0,0.0,0.0,0.0,0.0,0.0,0.0,0.0,0.0,0.0,0.0,0.0,0.0,0.0,0.0,0.0,0.0,0.0,0.0,0.0,0.0,0.861,0.0,0.0,0.0,0.0,0.0,0.0,0.0,0.0,0.0,0.0,0.0,0.0,0.0,0.0,0.0,0.0,0.0,0.0,0.0,0.0,0.0,0.0,0.0,0.0,0.0,0.0,0.0,0.0,0.0,0.0,0.0,0.0,0.0,0.0,0.0,0.0,0.0,0.0,0.0,0.0,0.0,0.468,0.5136,0.5339,0.5236,0.5176,0.5093,0.4957,0.4386,0.3974,0.3778,0.0,0.0,0.0,0.0,0.0,0.0,0.0,0.0,0.0,0.0,0.0,0.0,0.0,0.0,0.0,0.0,0.0,0.0,0.0,0.0,0.0,0.0,0.0,0.0,0.0,0.0,0.0,0.0,0.0,0.0,0.0,0.0,0.0,0.0,0.0,0.0,0.0,0.0,0.0,0.0,0.0,0.0,0.0,0.0,0.0,0.0,0.0,0.0,0.0,0.0,0.0,0.0,0.0,0.0,0.0,0.0,0.0,0.0,0.0,0.0,0.0,0.88,0.0,0.0,0.0,0.0,0.0,0.0,0.0,0.0,0.0,0.0,0.0,0.0,0.0,0.0,0.0,0.0,0.0,0.0,0.0,0.0,0.0,0.0,0.0,0.0,0.0,0.0,0.0,0.0,0.0,0.0,0.0,0.0,0.0,0.0,0.0,0.0,0.0,0.0,0.0,0.0,0.4643,0.5115,0.5395,0.5395,0.5395,0.5395,0.5395,0.5057,0.4738,0.4552,0.3702,0.0,0.0,0.0,0.0,0.0,0.0,0.0,0.0,0.0,0.0,0.0,0.0,0.0,0.0,0.0,0.0,0.0,0.0,0.0,0.0,0.0,0.0,0.0,0.0,0.0,0.0,0.0,0.0,0.0,0.0,0.0,0.0,0.0,0.0,0.0,0.0,0.0,0.0,0.0,0.0,0.0,0.0,0.0,0.0,0.0,0.0,0.0,0.0,0.0,0.0,0.0,0.0,0.0,1.1788,1.1815,1.1761,1.1761,1.1727,1.1575,0.9717,0.9559,1.0544,0.0,0.0,0.0,0.0,0.0,0.0,0.0,0.0,0.0,0.0,0.0,0.0,0.0,0.0,0.0,0.0,0.0,0.0,0.0,0.0,0.0,0.0,0.0,0.0,0.0,0.9005,0.9112,0.0,0.0,0.0,0.0,0.0,0.0,0.0,0.0,0.0,0.0,0.0,0.0,0.4778,0.5227,0.5495,0.5495,0.5495,0.5495,0.5495,0.5458,0.536,0.5205,0.45,0.3993,0.0,0.0,0.0,0.0,0.0,0.0,0.0,0.0,0.0,0.0,0.0,0.0,0.0,0.0,0.0,0.0,0.0,0.0,0.0,0.0,0.0,0.0,0.0,0.0,0.0,0.0,0.0,0.0,0.0,0.0,0.0,0.0,1.2415,1.1923,0.0,0.0,0.0,0.0,0.0,0.0,0.0,0.0,0.0,0.0,0.0,0.0,0.0,0.0,1.2781,1.301,1.301,1.2795,1.3327,1.3408,1.3142,1.3142,1.303,1.2839,1.2011,0.0,1.0883,0.9912,0.0,0.0,0.0,0.0,0.0,0.0,0.0,0.0,0.0,0.0,0.0,0.0,0.0,0.0,0.0,0.0,0.0,0.0,0.0,0.0,0.0,0.0,1.0378,1.0284,1.0342,1.0294,0.0,0.849,0.7193,0.6344,0.0,0.0,0.0,0.0,0.0,0.0,0.0,0.0,0.5269,0.5612,0.5822,0.5822,0.5822,0.5822,0.5822,0.5686,0.5582,0.5618,0.5079,0.4564,0.4158,0.3797,0.0,0.0,0.0,0.0,0.0,0.0,0.0,0.0,0.0,0.0,0.0,0.0,0.0,0.0,0.0,0.0,0.0,0.0,0.0,0.0,0.0,0.0,0.0,0.0,0.0,0.0,0.0,0.0,0.0,1.3628,1.3525,1.2403,1.2751,1.2725,0.0,0.0,0.0,0.0,0.0,0.0,0.0,0.0,0.0,1.2986,1.3,1.3191,1.3501,1.3635,1.3635,1.3508,1.3776,1.3839,1.3659,1.3659,1.3621,1.3529,1.3258,1.2755,1.1977,1.1067,1.0412,0.9999,0.0,0.0,0.0,0.0,0.0,0.9605,1.0053,1.0015,0.0,0.0,0.0,0.0,0.0,0.0,0.0,0.0,0.0,0.0,0.0,0.0,0.0,1.0593,1.0593,1.0553,1.0425,0.9788,0.8917,0.0,0.7717,0.7428,0.6081,0.0,0.0,0.0,0.0,0.0,0.5597,0.5775,0.5888,0.5888,0.5888,0.5888,0.5888,0.5822,0.5789,0.5816,0.5417,0.5085,0.4893,0.4469,0.4011,0.0,0.0,0.0,0.0,0.0,0.0,0.0,0.0,0.0,0.0,0.0,0.0,0.0,0.0,0.0,0.0,0.0,0.0,0.0,0.0,0.0,0.0,0.0,0.0,0.0,0.0,0.0,0.0,1.4639,1.484,1.3472,1.4332,1.4498,0.0,0.0,0.0,0.0,0.0,0.0,1.377,1.3869,1.397,1.411,1.4125,1.4168,1.4261,1.4268,1.4268,1.4268,1.4268,1.4268,1.4268,1.4268,1.4268,1.4221,1.4059,1.3642,1.3052,1.2111,1.1411,1.0879,1.0814,1.0546,1.0154,1.0374,1.0416,1.0481,1.0708,1.0767,1.0667,1.0414,0.0,0.9753,0.9504,0.0,0.0,0.0,0.0,1.0234,1.0234,1.0425,1.0593,1.0593,1.0593,1.0593,1.0593,1.0593,1.0248,0.0,0.9111,0.8816,0.7399,0.0,0.0,0.0,0.0,0.6559,0.622,0.6071,0.602,0.602,0.602,0.602,0.602,0.5987,0.5968,0.5992,0.5654,0.5442,0.546,0.5056,0.4698,0.4381,0.0,0.0,0.0,0.0,0.0,0.0,0.0,0.0,0.0,0.0,0.0,0.0,0.0,0.0,0.0,0.0,0.0,0.0,0.0,0.0,0.0,0.0,0.0,0.0,0.0,0.0,0.0,0.0,0.0,1.565,1.6437,0.0,0.0,0.0,0.0,1.5904,1.5939,1.6086,1.6378,1.6422,1.6312,1.6055,1.6079,1.5821,1.5338,1.5338,1.5338,1.5338,1.5338,1.5338,1.5338,1.5338,1.5213,1.5011,1.4449,1.4006,1.3687,1.2923,1.2245,1.1621,1.1417,1.1329,1.1302,1.1322,1.1322,1.1329,1.1342,1.1202,1.0969,1.0955,1.0561,1.0094,1.0043,1.0043,0.0,0.0,1.0301,1.0566,1.0566,1.0579,1.0593,1.0593,1.0593,1.0593,1.0593,1.0593,1.0492,0.0,1.002,0.977,0.8837,0.0,0.8575,0.8138,0.7562,0.7228,0.7381,0.6802,0.6387,0.6387,0.6387,0.6387,0.6387,0.6251,0.6176,0.62,0.5797,0.559,0.5603,0.5386,0.5139,0.487,0.4602,0.0,0.0,0.0,0.0,0.0,0.0,0.0,0.0,0.0,0.0,0.0,0.0,0.0,0.0,0.0,0.0,0.0,0.0,0.0,0.0,0.0,0.0,0.0,0.0,0.0,0.0,0.0,0.0,1.7098,1.8231,0.0,1.7269,1.738,1.7424,1.7208,1.7351,1.7483,1.7622,1.7553,1.7439,1.7344,1.7353,1.7259,1.7074,1.7074,1.7074,1.7074,1.7074,1.7074,1.7033,1.6509,1.6501,1.6895,1.5535,1.5109,1.5253,1.4127,1.3093,1.2207,1.199,1.177,1.1601,1.1601,1.1601,1.1601,1.1737,1.1737,1.1679,1.1891,1.1966,1.1973,1.1973,1.1973,1.1852,1.1332,1.1597,1.1787,1.0839,1.0902,1.1083,1.0807,1.0649,1.0624,1.0713,1.0649,1.0559,1.0452,1.0432,1.0246,0.973,0.9803,0.9679,0.8886,0.8728,0.8547,0.8188,0.7907,0.7744,0.7744,0.7358,0.7293,0.7712,0.7108,0.6908,0.7332,0.6933,0.6702,0.6687,0.6543,0.6264,0.5878,0.5656,0.5091,0.0,0.0,0.0,0.0,0.0,0.0,0.0,0.0,0.0,0.0,0.0,0.0,0.0,0.0,0.0,0.0,0.0,0.0,0.0,0.0,0.0,0.0,0.0,0.0,0.0,0.0,1.9534,1.8967,2.0211,2.0595,1.9317,1.9529,1.9552,1.9192,1.9212,1.9204,1.9204,1.8989,1.8758,1.8447,1.8447,1.8278,1.7997,1.7997,1.7997,1.7997,1.7997,1.7997,1.7997,1.7391,1.7464,1.79,1.6508,1.611,1.635,1.5164,1.4251,1.3502,1.2735,1.2295,1.2109,1.2109,1.2109,1.2095,1.2137,1.2101,1.2029,1.2123,1.2389,1.2665,1.2665,1.2818,1.2887,1.2358,1.2512,1.2642,1.1663,1.1701,1.188,1.132,1.1139,1.1045,1.0933,1.0839,1.0782,1.0782,1.0688,1.0526,1.0301,1.0459,1.0362,0.9699,0.9536,0.9326,0.8909,0.8651,0.849,0.849,0.8102,0.8004,0.8458,0.7796,0.7515,0.7894,0.7547,0.7274,0.7227,0.6896,0.6556,0.625,0.5982,0.5595,0.5045,0.0,0.0,0.0,0.0,0.0,0.0,0.0,0.0,0.0,0.0,0.0,0.0,0.0,0.0,0.0,0.0,0.0,0.0,0.0,0.0,0.0,0.0,0.0,1.8988,1.9944,2.083,2.124,2.237,2.2808,2.2021,2.2314,2.2373,2.1934,2.1504,2.121,2.119,2.081,2.0206,1.9381,1.9341,1.8935,1.8078,1.8078,1.8078,1.8078,1.8078,1.8078,1.8078,1.8037,1.8078,1.8035,1.7257,1.6939,1.6879,1.6079,1.5727,1.5551,1.3688,1.2966,1.2966,1.2966,1.2966,1.296,1.2692,1.2381,1.2062,1.1711,1.1826,1.2104,1.2104,1.2565,1.307,1.3039,1.3039,1.307,1.3009,1.3009,1.2848,1.2197,1.2043,1.1865,1.1272,1.1122,1.1122,1.109,1.0839,1.0624,1.0624,1.0593,1.0593,1.0593,1.0009,0.0,0.9518,0.8973,0.8554,0.8554,0.8554,0.8554,0.8554,0.8232,0.7991,0.7879,0.7542,0.7283,0.7149,0.6419,0.5993,0.5989,0.563,0.5756,0.6339,0.0,0.0,0.0,0.0,0.0,0.0,0.0,0.0,0.0,0.0,0.0,0.0,0.0,0.0,0.0,0.0,0.0,0.0,0.0,0.0,0.0,0.0,2.0606,2.0199,2.1362,2.2441,2.2834,2.3565,2.3857,2.332,2.3369,2.3135,2.2393,2.1943,2.1562,2.121,2.081,2.0489,2.0245,2.0245,2.0128,1.9883,1.9883,1.9883,1.9883,1.9883,1.9883,1.9844,1.9213,1.9292,1.9777,1.8046,1.7595,1.804,1.662,1.6048,1.5986,1.5108,1.4788,1.4788,1.4788,1.4859,1.4874,1.4525,1.4463,1.4555,1.4107,1.4184,1.4471,1.4471,1.459,1.4628,1.4025,1.4222,1.4359,1.3282,1.3373,1.3575,1.3,1.2787,1.2581,1.2089,1.1872,1.1624,1.1178,1.1028,1.0933,1.0776,1.0649,1.0593,1.0593,1.0428,0.0,1.0301,1.0136,1.0009,1.0009,0.9556,0.9486,1.0098,0.9248,0.8835,0.9288,0.8826,0.8471,0.8348,0.8114,0.7951,0.7854,0.7107,0.6826,0.0,0.0,0.0,0.0,0.0,0.0,0.0,0.0,0.0,0.0,0.0,0.0,0.0,0.0,0.0,0.0,0.0,0.0,0.0,0.0,0.0,0.0,2.1548,2.243,2.2502,2.3128,2.3797,2.4381,2.4716,2.4785,2.4539,2.4094,2.3506,2.2779,2.2051,2.1504,2.121,2.081,2.0605,2.0605,2.0605,2.0605,2.0605,2.0605,2.0605,2.0605,2.0605,2.0605,2.0566,2.0089,1.9993,0.0,1.8795,1.8339,1.8508,1.7423,1.6946,0.0,0.0,0.0,0.0,0.0,1.564,1.565,1.5257,1.5149,1.5115,1.4661,1.476,1.503,1.503,1.5206,1.5294,1.4835,1.4971,1.5108,1.4213,1.4293,1.4451,1.3885,1.3674,1.3463,1.2917,1.2696,1.252,1.2158,0.0,0.0,1.1608,1.1155,1.0814,1.0814,1.0814,1.0814,1.0814,1.0814,1.0766,1.0636,1.0205,1.0122,1.0492,0.9717,0.0,0.0,0.0,0.8921,0.8514,0.8507,0.0,0.0,0.0,0.0,0.0,0.0,0.0,0.0,0.7333,0.726,0.0,0.0,0.0,0.0,0.0,0.0,0.0,0.0,0.0,0.0,0.0,0.0,0.0,0.0,0.0,0.0,2.3234,2.4343,2.521,2.5098,2.5133,2.5789,2.5694,2.557,2.5421,2.4467,2.3589,2.3012,2.1875,2.1171,2.1162,0.0,0.0,0.0,0.0,2.0605,2.0605,2.0605,2.0605,2.0605,2.0605,2.0605,2.0605,2.0605,2.0322,1.9893,1.9473,1.9043,1.8568,1.8184,1.8008,1.7872,1.649,1.5956,1.5956,1.5956,1.593,1.5844,1.5428,0.0,0.0,1.4285,1.4367,1.4588,1.4588,1.4971,1.541,1.541,1.541,1.541,1.541,1.541,1.5264,1.4736,1.4588,1.441,1.3752,1.3567,1.3502,1.3451,1.3249,1.2957,1.2618,1.176,1.1114,1.1085,1.1016,1.0985,1.0985,1.0985,1.088,1.0576,0.0,0.0,1.0156,0.9876,0.9728,0.9728,0.9386,0.8904,0.8252,0.8214,0.8239,0.8239,0.8239,0.8588,0.9313,0.9722,0.9934,0.9949,0.8324,0.8094,0.0,0.0,0.0,0.0,0.0,0.0,0.0,0.0,0.0,0.0,0.0,0.0,0.0,0.0,0.0,2.4328,2.4756,2.5285,2.6185,2.6584,2.6609,2.619,2.6249,2.5896,2.4786,2.4346,2.3533,2.2149,2.1528,2.1124,2.0977,2.0742,0.0,2.0605,2.0605,2.0605,2.0605,2.0605,2.0605,2.0605,0.0,0.0,2.0605,2.0605,2.0322,1.9893,1.9473,1.9043,1.8568,1.8184,1.8008,1.7974,1.7657,1.7545,1.7545,1.7545,1.7345,1.6992,1.6541,1.6144,1.5737,1.5287,1.5185,1.5235,1.5235,1.5323,0.0,1.541,1.541,1.541,1.541,1.541,1.5381,1.5264,1.5235,1.5059,1.444,1.4008,1.3609,1.3124,1.2685,1.2383,1.2287,1.1794,1.1316,1.0996,1.0566,1.0281,1.0281,1.0281,1.0253,1.0197,1.019,1.022,1.0272,1.0016,0.9865,0.9865,0.9439,0.9131,0.899,0.899,0.9042,0.9139,0.9139,0.9399,0.9928,1.002,1.0208,1.0464,1.0099,1.005,0.0,0.0,0.0,0.0,0.0,0.0,0.0,0.0,0.0,0.0,0.0,2.4451,2.4862,0.0,2.5438,2.581,2.6271,2.6658,2.691,2.7164,2.7086,2.6455,2.616,2.5619,2.4729,2.3868,2.303,2.2221,2.1551,2.1173,2.1071,2.0858,2.0741,2.0741,2.0644,2.0605,2.0605,2.0605,2.0605,2.0605,2.0605,2.0605,2.0595,2.038,2.001,1.958,1.915,1.8721,1.8266,1.8096,1.8008,1.8008,1.8008,1.8008,1.8008,1.8008,1.7744,1.7314,1.6853,1.6436,1.6016,1.5557,1.541,1.541,1.541,1.541,1.541,1.541,1.541,1.541,1.541,1.541,1.541,1.541,1.541,1.5264,1.4763,1.4469,1.4148,1.3607,1.3305,1.3095,1.2904,1.2426,1.1967,1.1595,1.1323,1.1048,1.08,1.0743,1.0571,1.0136,1.0094,1.005,0.9947,0.9816,0.9756,0.9756,0.9525,0.9413,0.9413,0.9413,0.9439,0.9484,0.9484,0.9696,1.0104,1.0265,1.0514,1.0865,1.1026,1.1019,0.0,0.0,0.0,0.0,0.0,0.0,0.0,0.0,2.4073,2.5189,2.5875,2.638,2.6761,2.7282,2.7526,2.7089,2.7358,2.749,2.7196,2.7092,2.6832,2.6237,2.5828,2.5364,2.4778,2.3426,2.2534,2.2362,2.1647,2.1205,2.1244,2.1061,2.0945,2.0945,2.0809,2.0683,2.0654,2.0654,2.0654,2.0654,2.0605,2.0556,2.0507,2.0078,1.9639,1.9141,1.8666,1.8286,1.8008,1.8008,1.8008,1.8008,1.8008,1.8008,1.8008,1.8008,1.7686,1.7207,1.6824,1.6387,1.5909,1.5527,1.541,1.541,1.541,1.541,1.541,1.541,1.541,1.541,1.541,1.541,1.541,1.541,1.541,1.5293,1.4873,1.4717,1.4531,1.4065,1.3919,1.3753,1.3447,1.3023,1.2602,1.2233,1.2086,1.1841,1.1411,1.1355,1.1079,1.0382,1.0225,1.0006,0.9636,0.9588,0.9588,0.9588,0.9588,0.9588,0.9588,0.9588,0.9588,0.9588,0.9588,0.9775,1.0104,1.0426,1.0784,1.1114,1.1445,1.1452,2.4073,2.2673,2.192,2.3364,2.3376,2.3659,0.0,0.0,2.6436,2.7507,2.8172,2.8712,2.9275,2.8478,2.8015,2.8838,2.7377,2.625,2.6625,2.6335,2.572,2.4828,2.5385,2.5499,2.4609,2.3504,2.2573,2.1948,2.1448,2.1282,2.1474,2.1282,2.1167,2.1167,2.1128,2.1051,2.0867,2.0867,2.0867,2.0867,2.0693,2.0477,2.0244,2.0007,1.9436,1.8646,1.8262,1.8057,1.8008,1.8008,1.8008,1.8008,1.8008,1.8008,1.8008,1.8008,1.7467,1.6765,1.6716,1.6151,1.5478,1.543,1.541,1.541,1.541,1.541,1.541,1.541,1.541,1.541,1.541,1.541,1.541,1.541,1.541,1.5293,1.4873,1.4482,1.4055,1.3662,1.3271,1.3032,1.2959,1.2925,1.2713,1.2204,1.1658,1.1302,1.1226,1.1226,1.1183,1.109,1.0656,1.0151,0.964,0.9588,0.9588,0.9588,0.9588,0.9588,0.9588,0.9588,0.9588,0.9588,0.9588,0.9775,1.0104,1.0426,1.0784,1.1114,1.1445,1.1569,2.5179,2.4192,2.3665,0.0,2.5008,2.546,2.6942,2.7356,2.7645,2.8423,2.9038,2.9503,2.9741,2.9859,2.9666,0.0,2.8364,2.7662,2.6722,2.5958,2.5368,2.4941,2.4571,2.4064,2.3412,2.268,2.2144,2.1838,2.1655,2.1578,2.1655,2.1464,2.1349,2.1349,2.1244,2.1177,2.1099,2.1051,2.1051,2.1051,2.1012,2.0687,2.0192,1.9871,1.919,1.8227,1.8086,1.8008,1.8008,1.8008,1.8008,1.8008,1.8008,1.8008,1.8008,1.8008,1.7438,1.6697,1.6697,1.6122,1.541,1.541,1.541,1.541,1.541,1.541,1.541,1.541,1.541,1.541,1.541,1.541,1.541,1.541,1.5225,1.4932,1.4502,1.4046,1.3617,1.3223,1.3023,1.2905,1.2905,1.2905,1.2832,1.2603,1.2348,1.2067,1.1769,1.1719,1.1585,1.1225,1.1006,1.077,1.0541,1.0533,1.0533,1.0533,1.0233,1.0061,1.0061,0.9769,0.9588,0.9588,0.9588,0.9775,1.0104,1.0426,1.0784,1.1114,1.1445,1.1591,2.5536,2.4996,0.0,2.5624,2.6298,2.6901,2.7582,2.8172,2.8687,2.9089,2.9503,2.9842,2.9993,3.0433,3.0404,2.932,2.8875,2.8254,2.6992,2.568,2.4809,2.4685,2.3681,2.2811,2.2356,2.2004,2.1807,2.1807,2.1807,2.1807,2.1807,2.1655,2.1578,2.1578,2.1436,2.1359,2.1282,2.1282,2.1282,2.1282,2.1084,2.0707,2.0162,1.9531,1.8804,1.8008,1.8008,1.8008,1.8008,1.8008,1.8008,1.8008,1.8008,1.7939,1.7842,1.7842,1.7285,1.6512,1.6512,1.5967,1.5254,1.5371,1.541,1.541,1.541,1.541,1.541,1.541,1.541,1.541,1.541,1.541,1.541,1.541,1.5088,1.4668,1.4202,1.3773,1.3379,1.2983,1.2905,1.2905,1.2905,1.2905,1.2905,1.2905,1.2905,1.2759,1.2372,1.2323,1.2101,1.151,1.146,1.1385,1.12,1.12,1.12,1.12,1.0829,1.0625,1.0625,1.0113,0.9821,0.9821,0.9666,0.9731,0.9965,1.0294,1.0616,1.0975,1.1305,1.1627,2.4983,2.4443,2.4418,2.6059,2.6889,2.7544,2.8599,2.9327,2.9741,2.9767,2.9779,2.9955,3.0495,2.9796,2.951,3.0553,2.8402,2.6758,2.7294,2.5391,2.3753,2.3308,2.2811,2.2335,0.0,2.1818,2.1807,2.1807,2.1807,2.1807,2.1807,2.1807,2.1807,2.1807,2.1769,2.1693,2.1502,2.1512,2.1512,2.1464,2.0838,2.0404,2.0165,1.8913,1.8231,1.8008,1.8008,1.8008,1.8008,1.8008,1.8008,1.8008,1.8008,1.7764,1.7435,1.7435,1.6877,1.6114,1.6114,1.5557,1.4873,1.5283,1.541,1.541,1.541,1.541,1.541,1.541,1.541,1.541,1.541,1.541,1.541,1.541,1.5088,1.4668,1.4202,1.3773,1.3379,1.2983,1.2905,1.2905,1.2905,1.2905,1.2905,1.2905,1.2905,1.2881,1.2881,1.2881,1.2676,1.2126,1.2076,1.1843,1.1259,1.12,1.12,1.12,1.1175,1.1175,1.1175,1.0651,1.0377,1.0377,0.9873,0.9621,0.9603,0.9958,1.0287,1.0609,1.0968,1.1699,2.5385,2.5485,2.5883,2.6813,2.7178,2.757,2.8674,2.9076,2.9176,2.9176,2.9176,2.9164,2.8988,2.896,2.9101,2.9593,2.809,2.692,2.692,2.4934,2.3246,2.278,2.2325,0.0,0.0,0.0,0.0,2.1807,2.1807,2.1807,2.1807,2.1807,2.1807,2.1807,2.1807,2.1769,2.1693,2.1693,2.1539,2.123,2.0298,1.9788,1.9696,1.8743,1.8269,1.8202,1.8076,1.8008,1.7988,1.7705,1.7598,1.7568,1.7275,1.7048,1.6882,1.6652,1.6133,1.5635,1.5635,1.5439,1.5176,1.5039,1.5186,1.541,1.541,1.541,1.541,1.541,1.541,1.541,1.541,1.541,1.541,1.541,1.4835,1.4367,1.4531,1.3789,1.3135,1.3271,1.3066,1.2905,1.2905,1.2905,1.2905,1.2905,1.2905,1.2905,1.2905,1.2905,1.2832,1.2652,1.2627,1.2554,1.2348,1.2323,1.2323,1.2323,1.1993,1.1794,1.1794,1.1234,1.0964,1.1049,1.0897,1.0838,1.0939,1.1592,1.1952,1.2095,1.2714,1.3215,2.5548,2.5862,2.6373,2.7128,2.7281,2.7519,2.8423,2.8599,2.8599,2.8599,2.8473,2.8298,2.8134,2.8072,2.8338,2.9218,2.7745,2.6678,2.7079,2.4897,2.308,2.278,2.219,2.1807,0.0,0.0,0.0,2.1807,2.1807,2.1807,2.1807,2.1807,2.1807,2.1807,2.1807,2.1807,2.1807,2.1807,2.1487,2.0855,2.0015,1.9479,1.9236,1.8704,1.8405,1.8303,1.8212,1.8021,1.7764,1.7546,1.7383,1.7216,1.6846,1.6631,1.6527,1.6202,1.5811,1.5391,1.5244,1.5088,1.4903,1.4824,1.4971,1.5215,1.5371,1.541,1.541,1.541,1.541,1.541,1.541,1.541,1.541,1.541,1.4873,1.4404,1.4521,1.3789,1.3145,1.3262,1.3091,1.2905,1.2905,1.2905,1.2905,1.2905,1.2929,1.2954,1.2905,1.2905,1.2905,1.2905,1.2905,1.2905,1.2905,1.2905,1.2905,1.2905,1.2578,1.2406,1.2455,1.1884,1.1617,1.1765,1.1566,1.1516,1.1591,1.2289,1.268,1.2804,1.3489,1.4039,2.5473,2.5636,2.5937,2.7014,2.7278,2.7381,2.7946,2.8059,2.8059,2.8021,2.7607,2.7381,0.0,0.0,2.7178,2.9352,2.7382,2.6135,2.7803,2.5308,2.3286,0.0,0.0,0.0,0.0,0.0,0.0,2.1807,0.0,2.1807,2.1807,2.1807,2.1807,2.1807,2.1807,2.1797,2.1766,2.1725,2.1259,2.0343,1.9979,1.9431,1.8808,1.8808,1.864,1.8337,1.8418,1.8088,1.7406,1.75,1.734,1.6994,1.6764,1.6561,1.6337,1.6177,1.5851,1.5429,1.493,1.4492,1.4211,1.4629,1.4766,1.4891,1.5283,1.541,1.541,1.541,1.541,1.541,1.541,1.541,1.541,1.541,1.5088,1.4678,1.4231,1.3792,1.3389,1.2988,1.2925,1.2905,1.2905,1.2905,1.2905,1.2905,1.3027,1.3061,1.2929,1.2905,1.2905,1.2905,1.2905,1.2905,1.2905,1.2905,1.2905,1.2905,1.2905,1.2978,1.3099,1.2559,1.232,1.2438,1.1963,1.169,1.169,1.2187,1.2608,1.2913,1.3418,1.4228,2.5674,2.6214,2.6851,2.6738,2.67,2.6851,2.7369,2.7494,2.7369,2.7002,2.6801,2.6499,0.0,0.0,0.0,2.8247,2.7394,0.0,2.8247,2.6289,0.0,2.4216,0.0,2.2697,2.2356,2.2325,0.0,0.0,2.1807,2.1807,2.1807,2.1807,2.1807,2.1807,2.1807,2.1642,2.13,2.0617,2.0197,1.9958,1.9492,1.9189,1.9008,1.8875,1.8741,1.8654,1.824,1.7865,1.75,1.688,1.685,1.71,1.6602,1.6707,1.7059,1.6459,1.6462,1.6497,1.4852,1.4443,1.458,1.4338,1.4521,1.4891,1.5283,1.541,1.541,1.541,1.541,1.541,1.541,1.541,1.541,1.541,1.5088,1.4784,1.4648,1.4033,1.3477,1.3369,1.3096,1.2929,1.3027,1.3061,1.3075,1.3108,1.3156,1.3118,1.2929,1.2988,1.3002,1.2905,1.2905,1.2905,1.2905,1.2905,1.2929,1.3036,1.3061,1.3089,1.3156,1.3025,1.3016,1.3136,1.3016,1.2991,1.3088,1.3926,1.4356,1.446,1.5267,1.5812,2.6034,2.6474,2.6889,2.6575,2.6499,2.6512,2.6562,2.654,2.6389,2.585,2.5581,0.0,2.4569,0.0,0.0,0.0,0.0,0.0,2.7948,2.6211,2.4821,0.0,2.3663,0.0,2.2522,2.2315,2.2087,0.0,2.1807,2.1807,2.1807,2.1807,2.1807,2.1807,2.1807,2.158,2.1087,2.0249,1.9793,1.9793,1.9326,1.9108,1.9098,1.8759,1.8709,1.8842,0.0,1.7705,1.7481,1.7072,1.698,1.709,1.6945,1.7146,1.7462,1.6961,1.695,1.7009,1.5656,1.5378,1.5427,1.4465,1.432,1.4693,1.5566,1.5843,1.5884,1.6107,1.6226,1.6283,1.6283,1.6312,1.6358,1.6358,1.6189,1.5935,1.5502,1.5013,1.4484,1.3854,1.3555,1.3334,1.3176,1.3152,1.3176,1.3194,1.3266,1.3228,1.3045,1.3104,1.3128,1.3045,1.3031,1.3031,1.3031,1.3031,1.3055,1.3152,1.3152,1.319,1.329,1.329,1.3338,1.3491,1.3491,1.3515,1.3597,1.4542,1.4997,1.5018,1.5977,1.6413,2.6361,2.6499,2.6499,2.6499,2.6499,2.6336,2.5724,2.5536,2.5322,2.4687,0.0,2.3766,2.3766,2.3841,2.4255,2.541,0.0,2.5853,2.7446,2.5879,2.4759,2.5268,2.3775,2.2656,2.2594,2.217,2.188,2.1807,2.1807,2.1807,2.1807,2.1807,2.1776,2.1714,2.1652,2.1393,2.0938,2.0124,1.9699,1.9699,1.9295,1.9108,1.9088,1.8686,1.8723,1.9018,0.0,0.0,1.7562,1.7676,1.752,1.7251,1.7589,1.7809,1.7875,1.7628,1.749,1.7357,1.6828,1.6618,1.6405,1.4904,1.4457,1.4756,1.603,1.6444,1.6613,1.7082,1.7313,1.7407,1.7407,1.7506,1.7605,1.7605,1.755,1.7259,1.6404,1.6101,1.5606,1.4339,1.4037,1.386,1.3399,1.3266,1.3242,1.3266,1.3338,1.3386,1.3266,1.3242,1.3218,1.3194,1.3194,1.3194,1.3194,1.3194,1.3218,1.3242,1.3242,1.329,1.342,1.342,1.3491,1.3597,1.3597,1.3597,1.3597,1.448,1.4935,1.5018,1.5915,1.635,2.6461,2.6499,2.6499,2.6499,2.6499,2.6336,2.5724,2.5259,0.0,0.0,2.2957,2.2598,2.2598,2.2945,2.376,2.5335,0.0,0.0,0.0,0.0,2.5973,0.0,0.0,0.0,0.0,0.0,0.0,0.0,0.0,0.0,2.1807,2.1807,2.1631,2.1248,2.0866,2.0452,2.0031,1.9492,1.9222,1.9222,1.9139,1.9108,1.9088,1.9126,1.9166,1.9206,0.0,0.0,1.8299,1.7991,1.8068,1.8394,1.8352,1.867,1.904,1.8387,1.8387,1.8493,1.7217,1.6788,1.6701,1.5818,1.5832,1.6194,1.6357,1.6711,1.7092,1.7302,1.7379,1.7435,1.7534,1.7578,1.7605,1.7605,1.7265,1.6792,1.63,1.5538,1.4887,1.4617,1.4271,1.4001,1.4025,1.3647,1.3396,1.3515,1.3539,1.3563,1.3539,1.3433,1.3314,1.3208,1.3194,1.3194,1.3194,1.3194,1.3242,1.3362,1.3372,1.342,1.3563,1.3573,1.3586,1.3597,1.3597,1.3597,1.3597,1.4159,1.4624,1.5007,1.5556,1.6039,2.6575,2.6499,2.6499,2.6499,2.6499,2.6273,2.5385,0.0,0.0,0.0,2.2272,2.1794,2.1506,2.2343,0.0,2.3803,0.0,0.0,0.0,0.0,0.0,0.0,0.0,0.0,0.0,0.0,0.0,0.0,0.0,0.0,2.1807,2.158,2.1342,2.1124,2.0441,2.001,1.9793,1.9336,1.9108,1.9108,1.9452,1.9456,1.9211,1.9377,1.9479,1.9463,1.8765,0.0,1.874,1.8549,1.8605,1.8883,1.9083,1.9265,1.9368,1.9013,1.8972,1.8989,1.8292,1.792,1.7685,1.7041,1.6602,1.6425,1.689,1.7393,1.7908,1.832,1.8498,1.8551,1.862,1.8688,1.8741,1.8741,1.812,1.7394,1.6919,1.6193,1.5567,1.531,1.5085,1.4892,1.4709,1.4455,1.4316,1.4362,1.4385,1.4292,1.4046,1.3965,1.38,1.3433,1.342,1.342,1.342,1.342,1.3443,1.3491,1.3491,1.3539,1.3597,1.3597,1.3597,1.3597,1.3597,1.3597,1.3597,1.4076,1.4417,1.4656,1.5359,1.5804,2.6425,2.6332,2.628,2.6452,2.6499,2.621,2.5071,2.4305,0.0,0.0,2.1594,2.1056,2.0742,0.0,2.2556,0.0,2.3572,0.0,0.0,0.0,0.0,0.0,0.0,0.0,0.0,0.0,0.0,0.0,0.0,0.0,2.1652,2.1311,2.1031,2.0834,2.0166,1.9741,1.9647,1.9285,1.9056,1.8953,1.963,1.9671,1.9149,1.9481,1.9655,1.9646,1.8814,0.0,0.0,1.9172,1.9172,1.9212,1.9656,1.9656,1.9447,1.9447,1.9368,1.9249,1.9275,1.8999,1.8548,1.8007,1.7219,1.6587,1.7278,1.7849,1.841,1.9089,1.9339,1.9467,1.9605,1.9734,1.9748,1.951,1.8731,1.7877,1.7335,1.6835,1.638,1.602,1.5876,1.5678,1.53,1.5176,1.5108,1.5108,1.5108,1.4971,1.4605,1.4558,1.4396,1.3965,1.3729,1.3597,1.3597,1.3597,1.3597,1.3597,1.3597,1.3597,1.3597,1.3597,1.3597,1.3597,1.3597,1.3597,1.3597,1.3983,1.4262,1.4469,1.5204,1.5597,2.5756,2.572,2.5594,2.6314,2.6499,2.621,2.5071,0.0,0.0,2.1794,2.0702,2.01,2.0603,2.0817,0.0,0.0,0.0,2.3592,0.0,0.0,0.0,0.0,0.0,0.0,0.0,0.0,0.0,0.0,0.0,0.0,0.0,2.1135,2.0741,1.9948,1.9834,1.9596,1.917,1.9119,1.8891,1.8476,1.9072,1.9138,1.8679,1.9373,1.969,1.9701,0.0,0.0,0.0,1.9721,1.9721,1.9721,1.9773,1.9708,1.9591,1.9591,1.9486,1.9394,1.9512,1.9231,1.8685,1.8163,1.7833,1.7579,1.7162,1.743,1.7982,1.8672,1.8871,1.9008,1.9622,1.9798,1.956,1.8581,1.789,1.73,1.6701,1.6538,1.65,1.6445,1.6086,1.5788,1.5744,1.539,1.5108,1.5108,1.5108,1.5085,1.504,1.504,1.5017,1.4971,1.4129,1.3597,1.3597,1.3597,1.3597,1.3597,1.3597,1.3597,1.3597,1.3597,1.3597,1.3597,1.3597,1.3597,1.3597,1.3638,1.4107,1.4935,1.5018,1.5287,2.4748,2.4728,2.4671,2.4992,2.5441,2.5401,2.3928,0.0,2.2694,2.132,2.0363,1.9874,2.01,2.0465,2.1018,0.0,0.0,0.0,0.0,0.0,0.0,0.0,0.0,0.0,0.0,0.0,0.0,0.0,0.0,0.0,0.0,2.0307,2.0341,2.0409,2.012,1.9933,1.9829,1.9829,1.9555,1.9072,1.9708,1.9754,1.9275,1.9987,2.0089,1.9756,0.0,0.0,0.0,1.9798,1.9798,1.9798,1.9798,1.9734,1.9617,1.9617,1.9565,1.9539,1.9591,1.9307,1.8821,1.8295,1.7872,1.7503,1.7198,1.7484,1.8053,1.8734,1.8684,1.857,1.9171,1.9095,1.8731,1.8304,1.779,1.7225,1.6635,1.65,1.65,1.65,1.6358,1.6216,1.6216,1.6076,1.5944,1.5944,1.5944,1.5834,1.5557,1.5512,1.54,1.5131,1.4489,1.4093,1.4093,1.3787,1.3597,1.3597,1.3597,1.3597,1.3597,1.3597,1.3597,1.3597,1.3597,1.3597,1.3597,1.3597,1.3952,1.4593,1.4863,1.5101,2.3866,2.3869,2.3841,2.4047,2.4601,2.4664,0.0,2.2825,2.2443,2.0993,2.0239,1.9798,1.9798,2.0137,2.0616,0.0,0.0,2.1919,2.217,0.0,0.0,0.0,0.0,0.0,0.0,0.0,0.0,0.0,0.0,0.0,0.0,2.0259,2.0319,2.0576,2.0478,2.0378,2.0285,2.0316,1.9954,1.9314,1.9963,1.9985,1.9497,2.0147,2.0188,1.9798,0.0,0.0,0.0,1.9798,1.9798,1.9798,1.9798,1.9734,1.9656,1.9656,1.9656,1.9656,1.9656,1.947,1.9121,1.8442,1.794,1.7564,1.7122,1.7262,1.7686,1.8332,1.838,1.8292,1.8657,1.838,1.7953,1.7953,1.7539,1.7011,1.6588,1.65,1.65,1.65,1.65,1.65,1.65,1.65,1.65,1.65,1.65,1.638,1.6064,1.602,1.5888,1.5546,1.5085,1.4754,1.4628,1.4246,1.4035,1.4035,1.4035,1.4035,1.4035,1.3894,1.3905,1.4035,1.3752,1.3692,1.3834,1.3834,1.4003,1.4314,1.5103,1.5467,2.3237,2.3388,2.3176,2.3902,2.4296,2.4208,2.3062,2.2531,2.2008,2.0918,2.0239,1.9798,1.9798,1.9811,1.9999,2.0603,0.0,0.0,0.0,0.0,0.0,0.0,0.0,0.0,0.0,0.0,0.0,0.0,0.0,0.0,0.0,2.1346,2.0784,2.0139,2.0741,2.0851,2.0327,2.0316,1.9812,1.8805,1.9419,1.9461,1.9025,1.9552,1.9811,0.0,0.0,0.0,0.0,1.9798,1.9798,1.9798,1.9798,1.9798,1.9798,1.9798,1.9798,1.9798,1.9798,1.9798,1.9623,1.8555,1.8204,1.799,1.6839,1.6513,1.6638,1.726,1.779,1.8204,1.8216,1.7802,1.741,1.741,1.6948,1.65,1.65,1.65,1.65,1.65,1.65,1.65,1.65,1.65,1.65,1.65,1.65,1.65,1.6488,1.65,1.65,1.65,1.6064,1.5601,1.5131,1.5085,1.5085,1.5085,1.5085,1.5085,1.5085,1.4628,1.4605,1.5085,1.4106,1.3858,1.4384,1.4384,1.4363,1.4339,1.5878,1.6548,2.0807,2.1203,2.1359,2.1294,2.2314,2.2943,2.1439,2.1717,2.1882,2.0388,1.9924,1.9798,1.9798,1.9798,2.0112,2.1106,2.1257,0.0,0.0,0.0,0.0,0.0,0.0,0.0,0.0,0.0,0.0,0.0,0.0,0.0,0.0,2.1616,2.171,2.1479,2.1667,2.1571,2.1104,2.1133,2.0583,1.9497,1.9668,1.9687,1.9552,1.9721,0.0,0.0,0.0,0.0,0.0,1.9798,1.9798,1.9798,1.9798,1.9798,1.9798,1.9798,1.9798,1.9798,1.9798,1.9572,1.9133,1.8442,1.7953,1.7501,1.6726,1.65,1.6538,1.6735,1.72,1.7639,1.7639,1.7225,1.6886,1.731,1.6936,1.65,1.65,1.65,1.65,1.65,1.65,1.65,1.65,1.65,1.65,1.65,1.65,1.65,1.65,1.65,1.65,1.65,1.638,1.6086,1.5623,1.5625,1.5499,1.5131,1.5429,1.5487,1.5119,1.4971,1.4949,1.5108,1.4789,1.4709,1.488,1.488,1.5228,1.5878,1.6384,1.696,1.964,2.0288,2.0599,2.0368,2.1279,2.1851,2.0593,2.1031,2.133,2.0062,1.9798,1.9798,1.9798,1.9798,2.0024,2.074,2.0853,0.0,0.0,0.0,0.0,0.0,0.0,0.0,0.0,0.0,0.0,0.0,0.0,0.0,0.0,0.0,2.2366,2.217,2.2188,2.1962,2.1493,2.1307,2.0715,1.9798,1.9798,1.9798,1.9798,1.9798,0.0,0.0,0.0,0.0,0.0,1.9798,1.9798,1.9798,1.9798,1.9798,1.9798,1.9798,1.9798,1.9798,1.9798,1.9459,1.8907,1.8356,1.7689,1.6986,1.66,1.65,1.65,1.65,1.6773,1.7049,1.7049,1.6785,1.6588,1.6974,1.6773,1.65,1.65,1.65,1.65,1.65,1.65,1.65,1.65,1.65,1.65,1.65,1.65,1.6575,1.681,1.6848,1.6923,1.7114,1.7127,1.7015,1.6732,1.6352,1.618,1.6253,1.6169,1.618,1.6276,1.5879,1.5868,1.6265,1.5905,1.5684,1.567,1.5487,1.6033,1.7217,1.7234,1.7674,0.0,2.0306,2.0699,2.0665,2.0911,2.102,2.0406,2.0496,0.0,1.9924,1.9798,1.9811,1.9861,1.9823,1.9823,1.9911,0.0,0.0,0.0,0.0,0.0,0.0,0.0,0.0,0.0,0.0,0.0,0.0,0.0,0.0,0.0,0.0,2.2807,2.2334,2.2234,2.1945,2.1458,2.0943,2.0402,1.9798,1.9798,1.9798,1.9798,1.9798,0.0,0.0,0.0,0.0,0.0,1.9798,1.9798,1.9798,1.9798,1.9798,1.9798,1.9798,1.9773,1.9748,1.9748,1.9359,1.8795,1.8243,1.7353,1.65,1.65,1.65,1.65,1.65,1.65,1.65,1.65,1.65,1.65,1.65,1.65,1.65,1.65,1.65,1.65,1.655,1.655,1.6575,1.66,1.6613,1.6613,1.6613,1.6613,1.6814,1.7363,1.7461,1.7662,1.8154,1.8204,1.8229,1.8254,1.7277,1.7112,1.8091,1.7215,1.7114,1.8103,1.7235,1.7187,1.8191,1.7278,1.6786,1.6712,1.628,1.6824,1.8255,1.8326,1.8598,1.9004,0.0,1.9868,1.9523,2.0131,2.0672,0.0,2.0332,2.0528,1.9924,1.9798,1.9936,2.0402,2.01,2.0087,2.0953,0.0,0.0,0.0,0.0,0.0,0.0,0.0,0.0,0.0,0.0,0.0,0.0,0.0,0.0,0.0,0.0,2.2447,2.2309,2.1493,2.1018,2.0893,2.0754,2.0402,1.9798,1.9798,1.9798,1.9798,1.9798,0.0,0.0,0.0,0.0,1.9798,1.9798,1.9798,1.9798,1.9798,1.9798,1.9798,1.9798,1.9547,1.9183,1.9183,1.8581,1.7677,1.7077,1.6713,1.65,1.65,1.65,1.65,1.65,1.65,1.65,1.65,1.65,1.65,1.65,1.65,1.65,1.65,1.65,1.6647,1.7099,1.7197,1.7313,1.7739,1.7802,1.7802,1.7802,1.7802,1.7852,1.799,1.8003,1.8066,1.8191,1.8204,1.838,1.877,1.8569,1.8191,1.7614,1.8116,1.8155,1.7624,1.7747,1.7936,1.8204,1.7965,1.7832,1.7826,1.7708,1.8064,1.8807,1.8834,1.9095,1.9133,1.9748,2.0104,1.9836,2.0252,2.0603,2.0302,2.0264,2.0175,1.9861,1.9798,1.9899,2.0239,2.0304,2.0494,0.0,0.0,0.0,0.0,0.0,0.0,0.0,0.0,0.0,0.0,0.0,0.0,0.0,0.0,0.0,0.0,0.0,2.2083,2.1568,2.1006,2.0691,2.0691,2.0427,2.0112,1.9798,1.9798,1.9798,1.9798,1.9798,1.9798,0.0,0.0,0.0,1.9798,1.9798,1.9798,1.9798,1.9798,1.9798,1.9798,1.9798,1.9623,1.9321,1.9096,1.8304,1.731,1.671,1.65,1.65,1.65,1.65,1.65,1.65,1.65,1.65,1.65,1.65,1.65,1.65,1.65,1.6584,1.6861,1.6911,1.7087,1.7652,1.7765,1.7852,1.8154,1.8204,1.8204,1.8204,1.8204,1.8292,1.8531,1.8556,1.8668,1.8907,1.8932,1.9058,1.9334,1.9359,1.9133,1.853,1.8593,1.8581,1.8493,1.8543,1.8669,1.8932,1.8682,1.8556,1.8556,1.8556,1.8719,1.9008,1.9246,1.9509,1.9639,2.0377,2.0779,2.0603,2.0629,2.0666,2.0578,2.0189,1.9798,1.9798,0.0,1.9823,1.9911,2.0457,0.0,0.0,0.0,0.0,0.0,0.0,0.0,0.0,0.0,0.0,0.0,0.0,0.0,0.0,0.0,0.0,0.0,0.0,0.0,2.0842,2.0641,2.0566,2.0566,2.0075,1.9798,1.9798,1.9798,1.9798,1.9798,1.9798,1.9798,0.0,0.0,0.0,1.9798,1.9798,1.9798,1.9798,1.9798,1.9798,1.9798,1.9798,1.9748,1.9597,1.8958,1.8166,1.731,1.671,1.65,1.65,1.65,1.65,1.65,1.65,1.65,1.65,1.65,1.65,1.6525,1.6613,1.6647,1.681,1.7388,1.7524,1.7664,1.8229,1.8329,1.8355,1.843,1.8442,1.8442,1.8442,1.8442,1.8618,1.9058,1.9121,1.9284,1.9761,1.9798,1.9798,1.9798,1.9798,1.9798,1.9798,1.8957,1.8857,1.9761,1.9359,1.9334,1.9798,1.9346,1.9121,1.9121,1.9121,1.9121,1.9133,1.9597,1.9798,2.0241,2.0968,2.1157,2.0175,2.0327,2.0566,2.0037,1.9861,1.9798,0.0,0.0,0.0,0.0,2.0655,2.102,0.0,0.0,0.0,0.0,0.0,0.0,0.0,0.0,0.0,0.0,0.0,0.0,0.0,0.0,0.0,0.0,0.0,2.1081,2.1355,2.0439,1.9936,1.9936,1.9849,1.9798,1.9798,1.9798,1.9798,1.9798,1.9798,1.9798,0.0,0.0,1.9798,1.9798,1.9798,1.9798,1.9798,1.9798,1.9798,1.9798,1.9798,1.9497,1.897,1.799,1.7549,1.731,1.671,1.65,1.65,1.65,1.65,1.65,1.65,1.65,1.65,1.65,1.65,1.6635,1.7137,1.725,1.74,1.7953,1.8078,1.8242,1.877,1.8882,1.902,1.9484,1.956,1.956,1.956,1.956,1.9585,1.9673,1.9685,1.971,1.9798,1.9798,1.9798,1.9798,1.9798,1.9798,1.9798,1.9648,1.9635,1.9798,1.9723,1.9723,1.9798,1.9723,1.9685,1.9685,1.9685,1.9685,1.9685,1.9761,1.9798,1.9994,2.0641,2.0943,2.0427,2.0916,2.1521,2.134,2.1064,2.0863,0.0,0.0,0.0,0.0,0.0,2.2316,0.0,0.0,0.0,0.0,0.0,0.0,0.0,0.0,0.0,0.0,0.0,0.0,0.0,0.0,0.0,0.0,0.0,2.0666,2.0577,2.0075,1.9798,1.9798,1.9798,1.9798,1.9798,1.9798,1.9798,1.9798,1.9798,1.9798,1.9798,0.0,1.9798,1.9798,1.9798,1.9798,1.9798,1.9798,1.9798,1.9798,1.9798,1.9447,1.8933,1.8442,1.789,1.736,1.7074,1.6773,1.65,1.65,1.65,1.65,1.65,1.65,1.65,1.65,1.6748,1.7049,1.7335,1.7614,1.7978,1.8506,1.8619,1.8782,1.9346,1.9421,1.9522,1.9761,1.9798,1.9798,1.9798,1.9798,1.9798,1.9798,1.9798,1.9798,1.9798,1.9798,1.9798,1.9798,1.9798,1.9798,1.9798,1.9798,1.9798,1.9798,1.9798,1.9798,1.9798,1.9798,1.9798,1.9798,1.9798,1.9798,1.9798,1.9798,1.9798,1.987,2.0365,2.0783,2.0909,2.1448,2.2056,2.2337,2.2076,2.1852,0.0,0.0,0.0,0.0,2.2716,0.0,0.0,0.0,0.0,0.0,0.0,0.0,0.0,0.0,0.0,0.0,0.0,0.0,0.0,0.0,0.0,0.0,0.0,2.0352,2.0012,1.9874,1.9798,1.9798,1.9798,1.9798,1.9798,1.9798,1.9798,1.9798,1.9798,1.9798,1.9798,1.9798,1.9798,1.9798,1.9798,1.9798,1.9798,1.9798,1.9798,1.9798,1.9798,1.9547,1.9171,1.9045,1.8392,1.7574,1.7448,1.6986,1.6525,1.6663,1.6722,1.6748,1.6851,1.6801,1.6685,1.6538,1.6848,1.7272,1.7513,1.8006,1.8523,1.9058,1.937,1.9621,1.9774,1.9901,1.9978,1.9978,1.9875,1.985,1.9978,1.9875,1.9798,1.9798,1.9798,1.9798,1.9798,1.9798,1.9798,1.9798,1.9798,1.9798,1.9798,1.9798,1.9798,1.9798,1.9798,1.9798,1.9798,1.9798,1.9798,1.9798,1.9798,1.9798,1.9798,1.9798,1.9798,2.0464,2.0759,2.1004,2.1513,2.1308,2.1131,2.1652,2.188,2.2118,2.2644,0.0,0.0,0.0,0.0,0.0,0.0,0.0,0.0,0.0,0.0,0.0,0.0,0.0,0.0,0.0,0.0,0.0,0.0,0.0,0.0,0.0,0.0,0.0,2.0616,2.0075,1.9798,1.9798,1.9798,1.9798,1.9798,1.9798,1.9798,1.9798,1.9798,1.9798,1.9798,1.9798,1.9798,1.9798,1.9798,1.9798,1.9798,1.9798,1.9798,1.9798,1.9798,1.9773,1.9673,1.9171,1.8619,1.8066,1.7574,1.6986,1.66,1.7162,1.7348,1.7448,1.794,1.7714,1.7222,1.666,1.6525,1.6826,1.789,1.8539,1.9082,1.9636,2.0531,2.0951,1.9991,2.0207,2.0535,2.0535,2.0131,1.9978,2.0459,2.0131,1.9798,1.9798,1.9798,1.9798,1.9798,1.9798,1.9798,1.9798,1.9798,1.9798,1.9798,1.9798,1.9798,1.9798,1.9798,1.9798,1.9798,1.9798,1.9798,1.9798,1.9798,1.9798,1.9798,1.9798,1.9798,2.0077,2.0333,2.055,2.1176,2.1527,2.1852,2.2377,2.2858,2.337,2.4014,2.4446,0.0,0.0,0.0,0.0,0.0,0.0,0.0,0.0,0.0,0.0,0.0,0.0,0.0,0.0,0.0,0.0,0.0,0.0,0.0,0.0,0.0,0.0,2.0125,1.9911,1.9798,1.9798,1.9798,1.9798,1.9798,1.9798,1.9798,1.9798,1.9798,1.9798,1.9798,1.9798,1.9798,1.9798,1.9798,1.9798,1.9798,1.9798,1.9798,1.9798,1.9798,1.9798,1.9773,1.9572,1.8945,1.8179,1.7953,1.7702,1.754,1.7773,1.8096,1.8432,1.8652,1.8258,1.767,1.7166,1.7248,1.7534,1.7971,1.8979,1.9937,2.0138,2.0823,2.1272,2.0881,2.0955,2.1115,2.1115,2.093,2.0856,2.1066,2.0646,2.0308,2.0308,2.0003,1.9798,1.9798,1.9798,1.9798,1.9798,1.9798,1.9798,1.9798,1.9798,1.9798,1.9798,1.9798,1.9798,1.9798,1.9798,1.9798,1.9798,1.9798,1.9798,1.9798,1.9798,1.9798,1.9649,1.9927,2.0297,2.0989,2.1573,2.216,2.2914,2.368,2.4437,2.5118,2.555,0.0,0.0,0.0,0.0,0.0,0.0,0.0,0.0,0.0,0.0,0.0,0.0,0.0,0.0,0.0,0.0,0.0,0.0,0.0,0.0,0.0,0.0,0.0,1.9798,1.9798,1.9798,1.9798,1.9798,1.9798,1.9798,1.9798,1.9798,1.9798,1.9798,1.9798,1.9798,1.9798,1.9798,1.9798,1.9798,1.9798,1.9798,1.9798,1.9824,2.0003,2.0055,2.0055,2.0055,1.9367,1.8476,1.8654,1.8422,1.8205,1.8742,1.9185,1.9535,1.9708,1.9303,1.8754,1.8474,1.8336,1.8305,1.8469,1.9633,2.0689,2.0694,2.1335,2.1789,2.1465,2.1551,2.1647,2.1647,2.1513,2.1465,2.1623,2.1188,2.0845,2.0845,2.0371,2.0055,2.0055,2.0055,2.0055,2.0055,1.9901,1.9798,1.9798,1.9798,1.9798,1.9798,1.9798,1.9798,1.9798,1.9798,1.9798,1.9798,1.9978,1.9952,1.9798,1.9978,1.9952,1.9307,1.9685,2.0374,2.112,2.142,2.1799,2.2934,2.4125,2.5162,2.572,2.5793,2.5654,2.5097,0.0,0.0,0.0,0.0,0.0,0.0,0.0,0.0,0.0,0.0,0.0,0.0,0.0,0.0,0.0,0.0,0.0,0.0,0.0,0.0,0.0,1.9798,1.9798,1.9798,1.9798,1.9798,1.9798,1.9798,1.9798,1.9798,1.9798,1.9798,1.9798,1.9798,1.9798,1.9798,1.9798,1.9798,1.9798,1.9798,1.9798,1.9875,2.0409,2.061,2.061,2.061,1.9913,1.9094,1.9635,1.9055,1.8429,2.0093,2.0611,2.0733,2.1267,2.1009,2.0597,2.0597,1.9721,1.8958,1.9491,2.0479,2.1324,2.14,2.2203,2.2601,2.1623,2.1851,2.2208,2.2208,2.1779,2.1599,2.2123,2.1742,2.1417,2.1393,2.0944,2.061,2.061,2.061,2.061,2.061,2.0131,1.9824,1.9824,1.9824,1.9837,1.9798,1.9798,1.9798,1.9837,1.9837,1.9837,1.9824,2.0359,2.0334,1.9824,2.0359,2.0334,1.9206,1.9723,2.045,2.112,0.0,0.0,0.0,2.4125,0.0,0.0,2.6112,2.5654,0.0,0.0,0.0,0.0,0.0,0.0,0.0,0.0,0.0,0.0,0.0,0.0,0.0,0.0,0.0,0.0,0.0,0.0,0.0,0.0,0.0,0.0,1.9798,1.9798,1.9798,1.9798,1.9798,1.9798,1.9798,1.9798,1.9798,1.9798,1.9798,1.9798,1.9798,1.9798,1.9798,1.9798,1.9798,1.9798,1.9798,2.0029,2.0384,2.0535,2.0845,2.1151,2.1151,2.0704,2.0146,2.0297,2.0348,2.0437,2.0938,2.1392,2.176,2.1927,2.15,2.1027,2.1027,2.1042,2.0912,2.03,2.1004,2.1801,2.1833,2.239,2.282,2.2495,2.2578,2.2729,2.282,2.2692,2.2646,2.2797,2.2365,2.1917,2.1585,2.1321,2.1199,2.1296,2.1224,2.1199,2.1296,2.1175,2.1088,2.1135,2.1135,2.0904,2.0371,2.0359,2.0547,2.093,2.093,2.0979,2.1077,2.1224,2.1224,2.1077,2.1224,2.0968,1.9168,1.9889,2.0784,2.147,2.2434,2.3341,2.3812,0.0,0.0,0.0,0.0,0.0,0.0,0.0,0.0,0.0,0.0,0.0,0.0,0.0,0.0,0.0,0.0,0.0,0.0,0.0,0.0,0.0,0.0,0.0,0.0,0.0,0.0,0.0,1.9497,1.9384,1.9171,1.9384,1.9497,1.9472,1.971,1.9798,1.9798,1.9798,1.9798,1.9798,1.9798,1.9798,1.9837,2.0029,2.0003,1.985,2.027,2.0497,2.066,2.108,2.1431,2.1718,2.1718,2.1356,2.0923,2.1149,2.1258,2.1369,2.1817,2.2195,2.2486,2.2486,2.2178,2.188,2.188,2.2131,2.212,2.1248,2.1708,2.2345,2.2345,2.2649,2.2888,2.2888,2.2888,2.2947,2.3082,2.3105,2.3105,2.3105,2.2828,2.2434,2.1941,2.2035,2.2105,2.1964,2.1846,2.1823,2.1941,2.1752,2.1643,2.171,2.1697,2.1592,2.1369,2.1115,2.1151,2.1465,2.1489,2.1524,2.1629,2.1856,2.1846,2.1643,2.213,2.2014,1.908,2.0067,2.1286,2.2001,2.2734,0.0,2.4678,2.4926,2.5083,2.5628,0.0,0.0,0.0,0.0,0.0,0.0,0.0,0.0,0.0,0.0,0.0,0.0,0.0,0.0,0.0,0.0,0.0,0.0,0.0,0.0,0.0,0.0,0.0,0.0,1.9033,1.877,1.8292,1.8757,1.8983,0.0,1.9459,1.9736,1.9736,1.9773,1.9798,1.9798,1.9798,1.9824,1.9901,2.0409,2.0334,2.0042,2.1028,2.114,2.0858,2.1841,2.2231,2.2254,2.2254,2.1905,2.1546,2.208,2.1891,2.1614,2.261,2.2888,2.2888,2.2888,2.2888,2.2888,2.2888,2.2888,2.2765,2.2222,2.2504,2.2888,2.2888,2.2888,2.2888,2.2888,2.2888,2.2947,2.3082,2.3127,2.3127,2.3127,2.3127,2.2955,2.2466,2.2934,2.3127,2.2626,2.2466,2.2443,2.2581,2.2081,2.1809,2.1875,2.1862,2.2128,2.2666,2.2039,2.1704,2.1752,2.1807,2.1892,2.1959,2.2502,2.2516,2.2066,2.3169,2.3382,1.842,1.9737,0.0,2.1878,2.2989,2.3965,2.4243,2.4295,2.4465,2.507,0.0,0.0,0.0,0.0,0.0,0.0,0.0,0.0,0.0,0.0,0.0,0.0,0.0,0.0,0.0,0.0,0.0,0.0,0.0,0.0,0.0,0.0,0.0,1.9635,1.9221,1.8945,1.8832,1.8945,1.8795,0.0,1.8907,1.9171,1.9183,1.961,1.9798,1.9798,1.9798,2.0029,2.0434,2.056,2.0771,2.1077,2.1321,2.1575,2.1888,2.21,2.2417,2.2752,2.2752,2.2651,2.2587,2.2709,2.2651,2.261,2.2822,2.2888,2.2888,2.2888,2.2888,2.2888,2.2888,2.2888,2.2859,2.2751,2.2801,2.2888,2.2888,2.2888,2.2888,2.2888,2.2888,2.2978,2.3209,2.3253,2.3275,2.34,2.3334,2.3253,2.3253,2.3275,2.3297,2.3297,2.315,2.315,2.3275,2.3172,2.3113,2.3194,2.3194,2.3444,2.4042,2.2922,2.2512,2.2934,2.3458,2.3766,2.3904,2.4496,2.4732,2.4622,2.4864,2.4684,1.8191,0.0,0.0,2.224,0.0,2.4037,2.4083,2.389,2.3772,0.0,0.0,0.0,0.0,0.0,0.0,0.0,0.0,0.0,0.0,0.0,0.0,0.0,0.0,0.0,0.0,0.0,0.0,0.0,0.0,0.0,0.0,1.9447,1.9107,1.9045,1.8518,1.8103,1.7804,1.8103,1.8091,1.7815,1.8367,1.8878,1.9388,1.9661,1.9927,2.0182,2.0182,2.0334,2.0635,2.1153,2.1382,2.1441,2.1931,2.2147,2.2231,2.244,2.2684,2.2888,2.2888,2.2888,2.2888,2.2888,2.2888,2.2888,2.2888,2.2888,2.2888,2.2888,2.2888,2.2888,2.2888,2.2888,2.2888,2.2888,2.2888,2.2888,2.2888,2.2888,2.2888,2.2888,2.2947,2.3045,2.3253,2.3341,2.3422,2.3487,2.3444,2.3422,2.3487,2.3473,2.3458,2.3538,2.3748,2.3785,2.3568,2.4075,2.4335,2.4096,2.4388,2.4709,2.5014,2.4357,2.4097,2.4295,2.465,2.4898,2.5029,2.5342,2.5506,2.5506,2.5819,2.5823,1.7871,1.9355,2.1125,2.2631,2.3373,0.0,2.391,2.3548,2.3156,0.0,0.0,0.0,0.0,0.0,0.0,0.0,0.0,0.0,0.0,0.0,0.0,0.0,0.0,0.0,0.0,0.0,0.0,0.0,0.0,0.0,1.9902,1.8949,1.8333,1.8204,1.7664,1.7149,1.6651,1.7137,1.736,1.726,1.7859,1.8731,1.9782,1.9871,2.0154,2.0576,2.0576,2.0548,2.064,2.161,2.1815,2.159,2.2535,2.2661,2.237,2.2752,2.2888,2.2888,2.2888,2.2888,2.2888,2.2888,2.2888,2.2888,2.2888,2.2888,2.2888,2.2888,2.2888,2.2888,2.2888,2.2888,2.2888,2.2888,2.2888,2.2888,2.2888,2.2888,2.2888,2.2888,2.3037,2.3194,2.3297,2.3429,2.3531,2.3531,2.3531,2.3531,2.3531,2.3566,2.364,2.3759,2.4224,2.435,2.3984,2.4865,2.5259,2.4814,2.5277,2.5659,2.5779,2.5779,2.5777,2.5786,2.5682,2.5646,2.5779,2.5899,2.5959,2.5959,2.6497,2.6752,1.6704,0.0,2.0667,0.0,2.3062,2.3155,0.0,0.0,0.0,0.0,0.0,0.0,0.0,0.0,0.0,0.0,0.0,0.0,0.0,0.0,0.0,0.0,0.0,0.0,0.0,0.0,0.0,0.0,0.0,0.0,1.9478,1.8781,1.8333,1.8204,1.7664,1.7373,1.7285,1.7373,1.7137,1.6635,1.7577,1.8609,1.9741,2.013,2.0375,2.0422,2.0422,2.0393,2.0384,2.1064,2.1571,2.1989,2.2648,2.2865,2.2797,2.2865,2.2888,2.2888,2.2888,2.2888,2.2888,2.2888,2.2888,2.2888,2.2888,2.2888,2.2888,2.2888,2.2888,2.2888,2.2888,2.2888,2.2888,2.2888,2.2888,2.2888,2.2888,2.2888,2.2888,2.2888,2.3112,2.3319,2.3466,2.3538,2.3588,2.3588,2.3588,2.3588,2.3588,2.3595,2.3819,2.4395,2.4537,2.4799,2.53,2.5486,2.5546,2.5457,2.5555,2.5869,2.6437,2.6452,2.6722,2.729,2.6752,2.6452,2.6452,2.7061,2.733,2.7345,2.742,2.7465,1.6716,1.8536,2.0244,0.0,2.2065,2.2352,2.2574,0.0,0.0,0.0,0.0,0.0,0.0,0.0,0.0,0.0,0.0,0.0,0.0,0.0,0.0,0.0,0.0,0.0,0.0,0.0,0.0,0.0,0.0,1.9055,1.8949,1.806,1.7616,1.7762,1.72,1.6898,1.6898,1.6898,1.6903,1.6905,1.7341,1.8251,1.9544,1.9743,2.0398,2.1388,2.1006,2.1046,2.1392,2.1574,2.1981,2.2533,2.2786,2.2888,2.2888,2.2888,2.2888,2.2888,2.2888,2.2888,2.2888,2.2888,2.2888,2.2888,2.2888,2.2888,2.2888,2.2888,2.2888,2.2888,2.2888,2.2888,2.2888,2.2888,2.297,2.3015,2.3015,2.2947,2.2933,2.309,2.3275,2.3429,2.3538,2.3588,2.3595,2.3595,2.3595,2.3595,2.3595,2.3595,2.3864,2.453,2.4933,2.5277,2.5561,2.6288,2.6557,2.6183,2.6497,2.6866,2.7151,2.7165,2.73,2.7585,2.7315,2.7165,2.7165,2.745,2.76,2.76,2.76,2.76,0.0,0.0,1.9434,2.0435,2.1096,2.157,0.0,0.0,0.0,0.0,0.0,0.0,0.0,0.0,0.0,0.0,0.0,0.0,0.0,0.0,0.0,0.0,0.0,0.0,0.0,0.0,0.0,0.0,0.0,1.882,1.8734,1.7769,1.7297,1.7556,1.6973,1.6693,1.6693,1.6693,1.6863,1.7199,1.7413,1.8194,1.9409,1.9511,2.0436,2.186,2.1379,2.1435,2.1906,2.1967,2.228,2.2693,2.283,2.2888,2.2888,2.2888,2.2888,2.2888,2.2888,2.2888,2.2888,2.2888,2.2888,2.2888,2.2888,2.2888,2.2888,2.2888,2.2888,2.2888,2.2888,2.2925,2.2947,2.2947,2.3045,2.3135,2.3135,2.3068,2.3068,2.3297,2.3444,2.3516,2.3588,2.3595,2.3595,2.3595,2.3595,2.367,2.3834,2.3864,2.4193,2.5008,2.557,2.5929,2.6093,2.7031,2.739,2.6896,2.733,2.76,2.76,2.76,2.76,2.76,2.76,2.76,2.76,2.76,2.76,2.76,2.76,2.76,0.0,1.6792,0.0,1.9699,2.055,0.0,0.0,0.0,0.0,0.0,0.0,0.0,0.0,0.0,0.0,0.0,0.0,0.0,0.0,0.0,0.0,0.0,0.0,0.0,0.0,0.0,0.0,0.0,0.0,1.921,1.9066,1.8431,1.8014,1.7983,1.7447,1.7157,1.7157,1.7157,1.7178,1.722,1.8028,1.8764,1.9429,1.9855,2.0425,2.1048,2.1019,2.1019,2.1127,2.1743,2.2019,2.2106,2.2693,2.2888,2.2888,2.2888,2.2888,2.2888,2.2888,2.2888,2.2888,2.2888,2.2888,2.2888,2.2888,2.2888,2.2888,2.2888,2.2888,2.2888,2.2888,2.2992,2.3082,2.3082,2.3179,2.3297,2.3297,2.3275,2.3319,2.3466,2.3509,2.3516,2.3588,2.3595,2.3595,2.3595,2.3595,2.3834,2.447,2.4545,2.5038,2.6348,2.6512,2.6821,2.7435,2.7555,2.7585,2.754,2.757,2.76,2.76,2.76,2.76,2.76,2.76,2.76,2.76,2.76,2.76,2.76,2.76,2.76,0.0,0.0,0.0,1.7795,1.8846,1.9712,0.0,0.0,0.0,0.0,0.0,0.0,0.0,0.0,0.0,0.0,0.0,0.0,0.0,0.0,0.0,0.0,0.0,0.0,0.0,0.0,0.0,0.0,0.0,0.0,1.8611,1.829,1.808,1.7988,1.774,1.7455,1.7199,1.7455,1.7598,1.7598,1.8206,1.8744,1.9209,1.9373,1.9812,2.0422,2.0422,2.0886,2.1627,2.1438,2.1844,2.2606,2.2815,2.2888,2.2888,2.2888,2.2888,2.2888,2.2888,2.2888,2.2888,2.2888,2.2888,2.2888,2.2888,2.2888,2.2888,2.2888,2.2888,2.2925,2.3015,2.3253,2.358,2.4012,2.4158,2.422,2.4318,2.4126,2.3861,2.3553,2.3775,2.3925,2.3653,2.3595,2.3595,2.3595,2.3595,2.3849,2.4515,2.4605,2.5113,2.6452,2.6587,2.6881,2.754,2.76,2.76,2.76,2.76,2.76,2.76,2.76,2.76,2.76,2.76,2.76,2.76,2.76,2.76,2.76,2.76,2.76,1.2873,0.0,0.0,0.0,0.0,1.8618,0.0,0.0,0.0,0.0,0.0,0.0,0.0,0.0,0.0,0.0,0.0,0.0,0.0,0.0,0.0,0.0,0.0,0.0,0.0,0.0,0.0,0.0,0.0,0.0,1.8789,1.8621,1.8428,1.8187,1.8068,1.7828,1.7413,1.7808,1.8028,1.8028,1.8481,1.8841,1.9101,1.9101,1.9348,1.9769,1.9769,2.048,2.1641,2.1423,2.183,2.262,2.2815,2.2888,2.2888,2.2888,2.2888,2.2888,2.2888,2.2888,2.2888,2.2888,2.2888,2.2888,2.2888,2.2888,2.291,2.3031,2.312,2.3216,2.3429,2.3767,2.4163,2.4652,2.4768,2.4788,2.4883,2.4699,2.439,2.4036,2.4266,2.4395,2.409,2.4027,2.4027,2.4027,2.4027,2.4362,2.5277,2.5399,2.594,2.7306,2.7291,2.7336,2.7815,2.7685,2.76,2.76,2.76,2.76,2.76,2.76,2.76,2.76,2.76,2.76,2.76,2.76,2.76,2.76,2.76,2.76,0.0,0.0,0.0,0.0,0.0,0.0,0.0,0.0,0.0,0.0,0.0,0.0,0.0,0.0,0.0,0.0,0.0,0.0,0.0,0.0,0.0,0.0,0.0,0.0,0.0,0.0,0.0,0.0,0.0,1.9708,1.9708,1.9523,1.912,1.8553,1.8519,1.8285,1.7828,1.8285,1.85,1.85,1.8898,1.9101,1.9101,1.9101,1.9101,1.9101,1.9101,1.9798,2.1003,2.167,2.196,2.2062,2.2649,2.2873,2.2888,2.2888,2.2888,2.2888,2.2888,2.2888,2.2888,2.2888,2.2888,2.2888,2.291,2.291,2.3,2.3334,2.3565,2.38,2.4224,2.4522,2.4752,2.4902,2.4942,2.4942,2.4942,2.4942,2.4922,2.4902,2.4902,2.4902,2.4902,2.4902,2.4902,2.4902,2.4902,2.5408,2.6783,2.6988,2.7525,2.8923,2.8622,2.8312,2.8312,2.7919,2.7635,2.7635,2.7635,2.765,2.7625,2.7625,2.761,2.76,2.761,2.7625,2.7625,2.7625,2.76,2.76,2.76,2.76,1.2629,0.0,0.0,0.0,0.0,0.0,0.0,0.0,0.0,0.0,0.0,0.0,0.0,0.0,0.0,0.0,0.0,0.0,0.0,0.0,0.0,0.0,0.0,0.0,0.0,0.0,0.0,0.0,1.9708,1.9708,1.9708,1.9523,1.9265,1.8936,1.8917,1.8726,1.8305,1.8726,1.8784,1.85,1.8898,1.9101,1.9101,1.9101,1.9101,1.9101,1.9101,1.9304,1.9682,2.0349,2.1162,2.2019,2.2178,2.2519,2.2888,2.2888,2.2888,2.2888,2.2888,2.2888,2.2888,2.2888,2.2888,2.2955,2.3194,2.3268,2.3334,2.3717,2.3973,2.4271,2.4922,2.5179,2.537,2.5754,2.5844,2.5844,2.5844,2.5844,2.5661,2.502,2.5121,2.5237,2.4962,2.4902,2.4902,2.4902,2.4902,2.5234,2.6098,2.6672,2.7336,2.8198,2.8659,2.8889,2.8889,2.8748,2.8677,2.8677,2.8677,2.8511,2.811,2.8125,2.7953,2.7625,2.7929,2.8125,2.8125,2.7785,2.76,2.76,2.76,2.76,0.0,0.0,0.0,0.0,0.0,0.0,0.0,1.6839,0.0,0.0,0.0,0.0,0.0,0.0,0.0,0.0,0.0,0.0,0.0,0.0,0.0,0.0,0.0,0.0,0.0,0.0,0.0,1.9708,1.9708,1.969,1.9669,1.9487,1.9339,1.9176,1.912,1.8988,1.8745,1.8988,1.8988,1.8745,1.8988,1.9101,1.9101,1.9101,1.9101,1.9101,1.9101,1.9101,1.913,1.9522,2.0436,2.1612,2.1888,2.2359,2.2888,2.2888,2.2888,2.2888,2.2888,2.2888,2.2888,2.2888,2.2986,2.315,2.3341,2.353,2.376,2.4204,2.4634,2.5091,2.5589,2.5756,2.5864,2.6115,2.6202,2.6202,2.6202,2.6202,2.6059,2.5532,2.5626,2.5719,2.5476,2.5438,2.5438,2.5438,2.5438,2.568,2.6389,2.6876,2.7506,2.8485,2.8794,2.9051,2.9377,2.9212,2.9097,2.9097,2.9097,2.8958,2.8638,2.8638,2.8511,2.8238,2.8496,2.8638,2.8638,2.8367,2.8116,2.7894,2.7894,2.7894,0.0,0.0,0.0,0.0,0.0,0.0,1.7413,1.7061,0.0,0.0,0.0,0.0,0.0,0.0,0.0,0.0,0.0,0.0,0.0,0.0,0.0,0.0,0.0,0.0,0.0,1.9453,1.9654,1.9708,1.9708,1.9672,1.9593,1.9483,1.9376,1.9302,1.9157,1.9101,1.9101,1.9101,1.9101,1.9101,1.9101,1.9101,1.9101,1.9101,1.9101,1.9101,1.9101,1.9101,1.9101,1.9101,1.9812,2.0959,2.1554,2.2156,2.2685,2.2757,2.2786,2.2801,2.2873,2.291,2.2955,2.2955,2.3194,2.3486,2.3537,2.3824,2.4213,2.4755,2.5397,2.5952,2.615,2.6202,2.6202,2.6202,2.6202,2.6202,2.6202,2.6202,2.6202,2.6202,2.6202,2.6202,2.6202,2.6202,2.6202,2.6202,2.6202,2.6452,2.71,2.7249,2.7779,2.9036,2.8854,2.8967,2.9681,2.9371,2.9178,2.9257,2.9257,2.9234,2.9166,2.9166,2.9143,2.9097,2.9143,2.9189,2.9257,2.9143,2.885,2.84,2.84,2.84,0.0,0.0,0.0,0.0,0.0,0.0,0.0,1.5374,0.0,0.0,0.0,0.0,0.0,0.0,0.0,0.0,0.0,0.0,0.0,0.0,0.0,0.0,0.0,0.0,0.0,1.9339,1.9362,1.969,1.9708,1.9672,1.9593,1.9483,1.9376,1.9302,1.9157,1.9101,1.9101,1.9101,1.9101,1.9101,1.9101,1.9101,1.9101,1.9101,1.9101,1.9101,1.9101,1.9101,1.9101,1.9101,1.9566,2.0291,2.0422,2.0843,2.1438,2.1989,2.2178,2.2251,2.2736,2.3075,2.3312,2.3312,2.3566,2.3967,2.4395,2.4594,2.4795,2.5492,2.5789,2.5952,2.615,2.6202,2.6202,2.6202,2.6202,2.6202,2.6202,2.6202,2.6202,2.6202,2.6202,2.6202,2.6202,2.6202,2.6202,2.6202,2.6202,2.6252,2.6402,2.6934,2.7398,2.768,2.8166,2.8735,2.9424,2.9391,2.9596,3.0187,3.0236,3.007,2.9683,2.9661,2.9483,2.9097,2.9461,2.9853,3.0236,2.9461,2.9051,2.8935,2.8935,2.8935,0.0,0.0,0.0,1.7146,0.0,0.0,0.0,0.0,1.4962,0.0,0.0,0.0,0.0,0.0,0.0,0.0,0.0,0.0,0.0,0.0,0.0,0.0,0.0,0.0,0.0,1.9157,1.945,1.969,1.9672,1.9647,1.9593,1.9446,1.9339,1.9302,1.9157,1.9101,1.9101,1.9101,1.9101,1.9101,1.9101,1.9101,1.9101,1.9101,1.9101,1.9101,1.9101,1.9101,1.9101,1.9101,1.9304,1.9638,1.9972,2.0465,2.1032,2.138,2.1496,2.1619,2.2432,2.281,2.3048,2.364,2.4099,2.4389,2.4406,2.4586,2.4949,2.5691,2.597,2.6078,2.6168,2.6202,2.6202,2.6202,2.6202,2.6202,2.6202,2.6202,2.6202,2.6202,2.6202,2.6202,2.6202,2.6202,2.6202,2.6202,2.6202,2.6202,2.6202,2.6518,2.6901,2.7249,2.763,2.8276,2.9297,2.9397,2.9711,3.0456,3.0506,3.0384,3.0156,3.0156,3.0049,2.9793,3.0027,3.0262,3.0506,3.0027,2.9683,2.9438,2.9438,2.9438,0.0,0.0,0.0,0.0,0.0,1.6856,0.0,0.0,0.0,1.5277,0.0,0.0,0.0,0.0,0.0,0.0,0.0,0.0,0.0,0.0,0.0,0.0,0.0,0.0,0.0,1.8898,1.948,1.9672,1.9513,1.9477,1.9593,1.9413,1.9321,1.9302,1.9157,1.9101,1.9101,1.9101,1.9101,1.9101,1.9101,1.9101,1.9101,1.9101,1.9101,1.9101,1.9101,1.9101,1.9101,1.9101,1.9101,1.9159,1.9696,2.0204,2.0674,2.0852,2.0901,2.1044,2.2049,2.2431,2.268,2.3805,2.4451,2.4731,2.4292,2.4481,2.4984,2.5575,2.5962,2.6202,2.6202,2.6202,2.6202,2.6202,2.6202,2.6202,2.6202,2.6202,2.6202,2.6202,2.6202,2.6202,2.6202,2.6202,2.6202,2.6202,2.6202,2.6202,2.6202,2.6202,2.6435,2.7017,2.7083,2.7613,2.8887,2.9135,2.9512,3.0241,3.0423,3.0439,3.029,3.0158,3.0158,3.029,3.029,3.0357,3.0506,3.0506,3.03,2.9941,2.9941,2.9941,0.0,0.0,0.0,0.0,1.8335,0.0,0.0,0.0,1.5371,1.4888,0.0,0.0,0.0,0.0,0.0,0.0,0.0,0.0,0.0,0.0,0.0,0.0,0.0,0.0,0.0,0.0,1.8951,1.9566,1.9113,1.9039,1.9563,1.9483,1.9358,1.9302,1.9157,1.9101,1.9101,1.9101,1.9101,1.9101,1.9101,1.9101,1.9101,1.9101,1.9101,1.9101,1.9101,1.9101,1.9101,1.9101,1.9101,1.9116,1.9188,1.9261,1.9415,2.0239,2.0556,2.0684,2.1643,2.2158,2.2555,2.3456,2.4228,2.4792,2.4728,2.4886,2.5092,2.5175,2.5689,2.6202,2.6202,2.6202,2.6202,2.6202,2.6202,2.6202,2.6202,2.6202,2.6202,2.6202,2.6202,2.6202,2.6202,2.6202,2.6202,2.6202,2.6202,2.6202,2.6202,2.6202,2.6219,2.6319,2.6318,2.6651,2.7464,2.8144,2.8787,2.9479,3.0141,3.0208,2.9546,2.8953,2.8903,2.9496,2.9512,2.9843,3.0506,3.0506,3.0468,3.0426,3.0426,3.0426,0.0,0.0,0.0,0.0,0.0,0.0,1.6213,0.0,1.5074,0.0,0.0,0.0,0.0,0.0,0.0,0.0,0.0,0.0,0.0,0.0,0.0,0.0,0.0,0.0,0.0,0.0,0.0,0.0,0.0,1.8576,1.882,1.9097,1.9195,1.9176,1.912,1.9101,1.9101,1.9101,1.9101,1.9101,1.9101,1.9101,1.9101,1.9101,1.9101,1.9101,1.9101,1.9195,1.9328,1.9328,1.9453,1.9632,1.9632,1.9508,1.9376,1.9771,2.0038,2.0364,2.1421,2.1887,2.2178,2.3325,2.3989,2.4413,2.4841,2.5025,2.5176,2.5606,2.5954,2.6202,2.6202,2.6202,2.6202,2.6202,2.6202,2.6202,2.6202,2.6202,2.6202,2.6202,2.6202,2.6202,2.6202,2.6202,2.6202,2.6202,2.6202,2.6202,2.6202,2.6202,2.6202,2.6202,2.6202,2.6501,2.7232,2.758,2.8061,2.8754,2.9102,2.9135,2.882,2.8558,2.8525,2.8804,2.9201,2.9546,2.986,3.029,3.0506,3.0506,3.0506,3.0506,1.8601,0.0,0.0,0.0,0.0,0.0,0.0,0.0,0.0,0.0,0.0,0.0,0.0,0.0,0.0,0.0,0.0,0.0,0.0,0.0,0.0,0.0,0.0,0.0,0.0,0.0,0.0,0.0,0.0,0.0,1.827,1.8666,1.8946,1.9101,1.9101,1.9101,1.9101,1.9101,1.9101,1.9101,1.9101,1.9101,1.9101,1.9101,1.9101,1.9101,1.9195,1.9328,1.9512,1.9603,1.978,2.0005,2.0005,1.9887,1.9749,1.9749,1.9907,2.0244,2.121,2.1732,2.2124,2.3111,2.3704,2.41,2.4646,2.4944,2.5209,2.5739,2.6036,2.6202,2.6202,2.6202,2.6202,2.6202,2.6202,2.6202,2.6202,2.6202,2.6202,2.6202,2.6202,2.6202,2.6202,2.6202,2.6202,2.6202,2.6202,2.6202,2.6202,2.6202,2.6202,2.6202,2.6202,2.6419,2.695,2.7182,2.7597,2.8343,2.821,2.8094,2.8094,2.7912,2.7895,2.8094,2.8572,2.892,2.9135,2.9843,3.0191,3.0191,3.0406,3.0506,0.0,0.0,0.0,1.763,0.0,0.0,0.0,0.0,1.5836,0.0,0.0,0.0,0.0,0.0,0.0,0.0,0.0,0.0,0.0,0.0,0.0,0.0,0.0,0.0,0.0,0.0,0.0,0.0,0.0,0.0,1.8212,1.8329,1.8567,1.9087,1.9101,1.9101,1.9101,1.9101,1.9101,1.9101,1.9101,1.9101,1.9101,1.9101,1.9101,1.912,1.9365,1.9479,1.953,1.9848,1.9988,2.0005,2.0005,2.015,2.0376,2.0376,2.0376,2.0461,2.0957,2.1795,2.2687,2.2719,2.3309,2.4,2.4033,2.453,2.511,2.5143,2.5639,2.6202,2.6202,2.6202,2.6202,2.6202,2.6202,2.6202,2.6202,2.6202,2.6202,2.6202,2.6202,2.6202,2.6202,2.6202,2.6202,2.6202,2.6202,2.6202,2.6202,2.6202,2.6202,2.6202,2.6202,2.6202,2.6219,2.6901,2.7597,2.8343,2.7729,2.735,2.735,2.6651,2.6601,2.7315,2.7348,2.7713,2.8426,2.9102,2.943,2.9446,3.0174,3.0506,0.0,0.0,1.9508,1.851,0.0,0.0,0.0,0.0,0.0,0.0,0.0,0.0,0.0,0.0,0.0,0.0,0.0,0.0,0.0,0.0,0.0,0.0,0.0,0.0,0.0,0.0,0.0,0.0,0.0,0.0,0.0,1.879,1.9371,1.9116,1.9101,1.9101,1.9101,1.9101,1.9101,1.9101,1.9101,1.9101,1.9101,1.9101,1.9213,1.9365,1.9457,1.9732,2.0102,2.0222,2.0375,2.0527,2.0527,2.0662,2.0844,2.0614,2.0679,2.0925,2.1294,2.1737,2.2102,2.2102,2.2629,2.3354,2.3851,2.453,2.5209,2.5689,2.6003,2.6202,2.6202,2.6202,2.6202,2.6202,2.6202,2.6202,2.6202,2.6202,2.6202,2.6202,2.6202,2.6202,2.6202,2.6202,2.6202,2.6202,2.6202,2.6202,2.6202,2.6202,2.6202,2.6202,2.6202,2.6202,2.6202,2.6435,2.6684,2.6932,2.6717,2.6568,2.6568,2.6336,2.6319,2.6568,2.705,2.7415,2.7663,2.8392,2.8738,2.8738,2.8986,2.9615,1.9591,1.9656,0.0,1.8796,1.8111,0.0,1.6955,0.0,0.0,0.0,0.0,0.0,0.0,0.0,0.0,0.0,0.0,0.0,0.0,0.0,0.0,0.0,0.0,0.0,0.0,0.0,1.5939,1.6297,0.0,0.0,0.0,0.0,1.9435,1.9449,1.9217,1.9101,1.9101,1.9101,1.9101,1.9101,1.9101,1.9101,1.9101,1.9213,1.9347,1.9512,1.9732,2.0067,2.0462,2.0529,2.0695,2.0893,2.0827,2.0909,2.1071,2.086,2.099,2.1309,2.1528,2.1694,2.1812,2.1812,2.2294,2.304,2.3785,2.453,2.5242,2.5987,2.6202,2.6202,2.6202,2.6202,2.6202,2.6202,2.6202,2.6202,2.6202,2.6202,2.6202,2.6202,2.6202,2.6202,2.6202,2.6202,2.6202,2.6202,2.6202,2.6202,2.6202,2.6202,2.6202,2.6202,2.6202,2.6202,2.6202,2.6202,2.6202,2.6202,2.6202,2.6202,2.6202,2.6202,2.6202,2.6202,2.6667,2.6917,2.6917,2.7647,2.8011,2.8011,2.8276,2.889]}]]